[[{"header":{"parameterUnit":"m.s-1","parameterCategory":1,"la1":31.0,"la2":29.5877,"lo1":-88.7671,"lo2":-86.6584,"dx":0.0162,"dy":0.0185,"nx":115,"ny":88,"refTime":"2022-12-29T06:00:00:Z","depth":0,"parameterNumber":2,"parameterNumberName":"U-component_of_WINDS"},"data":[0.0,0.0,0.0,0.0,0.0,0.0,0.0,0.0,0.0,0.0,0.0,0.0,0.0,0.0,0.0,0.0,0.0,0.0,0.0,0.0,0.0,0.0,0.0,0.0,0.0,0.0,0.0,0.0,0.0,0.0,0.0,0.0,0.0,0.0,0.0,0.0,0.0,0.0,0.0,0.0,0.0,0.0,0.0,0.0,0.0,0.0,0.0,0.0,0.0,0.0,0.0,0.0,0.0,0.0,0.0,0.0,0.0,0.0,0.0,0.0,0.0,0.0,0.0,0.0,0.0,0.0,0.0,0.0,0.0,0.0,0.0,0.0,0.0,0.0,0.0,0.0,0.0,0.0,0.0,0.0,0.0,0.0,0.0,0.0,0.0,0.0,0.0,0.0,0.0,0.0,0.0,0.0,0.0,0.0,0.0,0.0,0.0,0.0,0.0,0.0,0.0,0.0,0.0,0.0,0.0,0.0,0.0,0.0,0.0,0.0,0.0,0.0,0.0,0.0,0.0,0.0,0.0,0.0,0.0,0.0,0.0,0.0,0.0,0.0,0.0,0.0,0.0,0.0,0.0,0.0,0.0,0.0,0.0,0.0,0.0,0.0,0.0,0.0,0.0,0.0,0.0,0.0,0.0,0.0,0.0,0.0,0.0,0.0,0.0,0.0,0.0,0.0,0.0,0.0,0.0,0.0,0.0,0.0,0.0,0.0,0.0,0.0,0.0,0.0,0.0,0.0,0.0,0.0,0.0,0.0,0.0,0.0,0.0,0.0,0.0,0.0,0.0,0.0,0.0,0.0,0.0,0.0,0.0,0.0,0.0,0.0,0.0,0.0,0.0,0.0,0.0,0.0,0.0,0.0,0.0,0.0,0.0,0.0,0.0,0.0,0.0,0.0,0.0,0.0,0.0,0.0,0.0,0.0,0.0,0.0,0.0,0.0,0.0,0.0,0.0,0.0,0.0,0.0,0.0,0.0,0.0,0.0,0.0,0.0,0.0,0.0,0.0,0.0,0.0,0.0,0.0,0.0,0.0,0.0,0.0,0.0,0.0,0.0,0.0,0.0,0.0,0.0,0.0,0.0,0.0,0.0,0.0,0.0,0.0,0.0,0.0,0.0,0.0,0.0,0.0,0.0,0.0,0.0,0.0,0.0,0.0,0.0,0.0,0.0,0.0,0.0,0.0,0.0,0.0,0.0,0.0,0.0,0.0,0.0,0.0,0.0,0.0,0.0,0.0,0.0,0.0,0.0,0.0,0.0,0.0,0.0,0.0,0.0,0.0,0.0,0.0,0.0,0.0,0.0,0.0,0.0,0.0,0.0,0.0,0.0,0.0,0.0,0.0,0.0,0.0,0.0,0.0,0.0,0.0,0.0,0.0,0.0,0.0,0.0,0.0,0.0,0.0,0.0,0.0,0.0,0.0,0.0,0.0,0.0,0.0,0.0,0.0,0.0,0.0,0.0,0.0,0.0,0.0,0.0,0.0,0.0,0.0,0.0,0.0,0.0,0.0,0.0,0.0,0.0,0.0,0.0,0.0,0.0,0.0,0.0,0.0,0.0,0.0,0.0,0.0,0.0,0.0,0.0,0.0,0.0,0.0,0.0,0.0,0.0,0.0,0.0,0.0,0.0,0.0,0.0,0.0,0.0,0.0,0.0,0.0,0.0,0.0,0.0,0.0,0.0,0.0,0.0,0.0,0.0,0.0,0.0,0.0,0.0,0.0,0.0,0.0,0.0,0.0,0.0,0.0,0.0,0.0,0.0,0.0,0.0,0.0,0.0,0.0,0.0,0.0,0.0,0.0,0.0,0.0,0.0,0.0,0.0,0.0,0.0,0.0,0.0,0.0,0.0,0.0,0.0,0.0,0.0,0.0,0.0,0.0,0.0,0.0,0.0,0.0,0.0,0.0,0.0,0.0,0.0,0.0,0.0,0.0,0.0,0.0,0.0,0.0,0.0,0.0,0.0,0.0,0.0,0.0,0.0,0.0,0.0,0.0,0.0,0.0,0.0,0.0,0.0,0.0,0.0,0.0,0.0,0.0,0.0,0.0,0.0,0.0,0.0,0.0,0.0,0.0,0.0,0.0,0.0,0.0,0.0,0.0,0.0,0.0,0.0,0.0,0.0,0.0,0.0,0.0,0.0,0.0,0.0,0.0,0.0,0.0,0.0,0.0,0.0,0.0,0.0,0.0,0.0,0.0,0.0,0.0,0.0,0.0,0.0,0.0,0.0,0.0,0.0,0.0,0.0,0.0,0.0,0.0,0.0,0.0,0.0,0.0,0.0,0.0,0.0,0.0,0.0,0.0,0.0,0.0,0.0,0.0,0.0,0.0,0.0,0.0,0.0,0.0,0.0,0.0,0.0,0.0,0.0,0.0,0.0,0.0,0.0,0.0,0.0,0.0,0.0,0.0,0.0,0.0,0.0,0.0,0.0,0.0,0.0,0.0,0.0,0.0,0.0,0.0,0.0,0.0,0.0,0.0,0.0,0.0,0.0,0.0,0.0,0.0,0.0,0.0,0.0,0.0,0.0,0.0,0.0,0.0,0.0,0.0,0.0,0.0,0.0,0.0,0.0,0.0,0.0,0.0,0.0,0.0,0.0,0.0,0.0,0.0,0.0,0.0,0.0,0.0,0.0,0.0,0.0,0.0,0.0,0.0,0.0,0.0,0.0,0.0,0.0,0.0,0.0,0.0,0.0,0.0,0.0,0.0,0.0,0.0,0.0,0.0,0.0,0.0,0.0,0.0,0.0,0.0,0.0,0.0,0.0,0.0,0.0,0.0,0.0,0.0,0.0,0.0,0.0,0.0,0.0,0.0,0.0,0.0,0.0,0.0,0.0,0.0,0.0,0.0,0.0,0.0,0.0,0.0,0.0,0.0,0.0,0.0,0.0,0.0,0.0,0.0,0.0,0.0,0.0,0.0,0.0,0.0,0.0,0.0,0.0,0.0,0.0,0.0,0.0,0.0,0.0,0.0,0.0,0.0,0.0,0.0,0.0,0.0,0.0,0.0,0.0,0.0,0.0,0.0,0.0,0.0,0.0,0.0,0.0,0.0,0.0,0.0,0.0,0.0,0.0,0.0,0.0,0.0,0.0,0.0,0.0,0.0,0.0,0.0,0.0,0.0,0.0,0.0,0.0,0.0,0.0,0.0,0.0,0.0,0.0,0.0,0.0,0.0,0.0,0.0,0.0,0.0,0.0,0.0,0.0,0.0,0.0,0.0,0.0,0.0,0.0,0.0,0.0,0.0,0.0,0.0,0.0,0.0,0.0,0.0,0.0,0.0,0.0,0.0,0.0,0.0,0.0,0.0,0.0,0.0,0.0,0.0,0.0,0.0,0.0,0.0,0.0,0.0,0.0,0.0,0.0,0.0,0.0,0.0,0.0,0.0,0.0,0.0,0.0,0.0,0.0,0.0,0.0,0.0,0.0,0.0,0.0,0.0,0.0,0.0,0.0,0.0,0.0,0.0,0.0,0.0,0.0,0.0,0.0,0.0,0.0,0.0,0.0,0.0,0.0,0.0,0.0,0.0,0.0,0.0,0.0,0.0,0.0,0.0,0.0,0.0,0.0,0.0,0.0,0.0,0.0,0.0,0.0,0.0,0.0,0.0,0.0,0.0,0.0,0.0,0.0,0.0,0.0,0.0,0.0,0.0,0.0,0.0,0.0,0.0,0.0,0.0,0.0,0.0,0.0,0.0,0.0,0.0,0.0,0.0,0.0,0.0,0.0,0.0,0.0,0.0,0.0,0.0,0.0,0.0,0.0,0.0,0.0,0.0,0.0,0.0,0.0,0.0,0.0,0.0,0.0,0.0,0.0,0.0,0.0,0.0,0.0,0.0,0.0,0.0,0.0,0.0,0.0,0.0,0.0,0.0,0.0,0.0,0.0,0.0,0.0,0.0,0.0,0.0,0.0,0.0,0.0,0.0,0.0,0.0,0.0,0.0,0.0,0.0,0.0,0.0,0.0,0.0,0.0,0.0,0.0,0.0,0.0,0.0,0.0,0.0,0.0,0.0,0.0,0.0,0.0,0.0,0.0,0.0,0.0,0.0,0.0,0.0,0.0,0.0,0.0,0.0,0.0,0.0,0.0,0.0,0.0,0.0,0.0,0.0,0.0,0.0,0.0,0.0,0.0,0.0,0.0,0.0,0.0,0.0,0.0,0.0,0.0,0.0,0.0,0.0,0.0,0.0,0.0,0.0,0.0,0.0,0.0,0.0,0.0,0.0,0.0,0.0,0.0,0.0,0.0,-1.0636,0.0,0.0,0.0,-1.0641,0.0,0.0,0.0,0.0,0.0,0.0,0.0,0.0,0.0,0.0,0.0,0.0,0.0,0.0,0.0,0.0,0.0,0.0,0.0,0.0,0.0,0.0,0.0,0.0,0.0,0.0,0.0,0.0,0.0,0.0,0.0,0.0,0.0,0.0,0.0,0.0,0.0,0.0,0.0,0.0,0.0,0.0,0.0,0.0,0.0,0.0,0.0,0.0,0.0,0.0,0.0,0.0,0.0,0.0,0.0,0.0,0.0,0.0,0.0,0.0,0.0,0.0,0.0,0.0,0.0,0.0,0.0,0.0,0.0,0.0,0.0,0.0,0.0,0.0,0.0,0.0,0.0,0.0,0.0,0.0,0.0,0.0,0.0,0.0,0.0,0.0,0.0,0.0,0.0,0.0,0.0,0.0,0.0,0.0,0.0,0.0,0.0,0.0,0.0,0.0,0.0,0.0,0.0,0.0,0.0,0.0,0.0,0.0,0.0,0.0,-1.0618,-1.0681,-1.0776,-1.0701,-1.046,0.0,0.0,0.0,0.0,0.0,0.0,0.0,0.0,0.0,0.0,0.0,0.0,0.0,0.0,0.0,0.0,0.0,0.0,0.0,0.0,0.0,0.0,0.0,0.0,0.0,0.0,0.0,0.0,0.0,0.0,0.0,0.0,0.0,0.0,0.0,0.0,0.0,0.0,0.0,0.0,0.0,0.0,0.0,0.0,0.0,0.0,0.0,0.0,0.0,0.0,0.0,0.0,0.0,0.0,0.0,0.0,0.0,0.0,0.0,0.0,0.0,0.0,0.0,0.0,0.0,0.0,0.0,0.0,0.0,0.0,0.0,0.0,0.0,0.0,0.0,0.0,0.0,0.0,0.0,0.0,0.0,0.0,0.0,0.0,0.0,0.0,0.0,0.0,0.0,0.0,0.0,0.0,0.0,0.0,0.0,0.0,0.0,0.0,0.0,0.0,0.0,0.0,0.0,0.0,0.0,0.0,0.0,0.0,0.0,0.0,0.0,0.0,-1.0713,-1.0635,-1.0404,0.0,0.0,0.0,0.0,0.0,0.0,0.0,0.0,0.0,0.0,0.0,0.0,0.0,0.0,0.0,0.0,0.0,0.0,0.0,0.0,0.0,0.0,0.0,0.0,0.0,0.0,0.0,0.0,0.0,0.0,0.0,0.0,0.0,0.0,0.0,0.0,0.0,0.0,0.0,0.0,0.0,0.0,0.0,0.0,0.0,0.0,0.0,0.0,0.0,0.0,0.0,0.0,0.0,0.0,0.0,0.0,0.0,0.0,0.0,0.0,0.0,0.0,0.0,0.0,0.0,0.0,0.0,0.0,0.0,0.0,0.0,0.0,0.0,0.0,0.0,0.0,0.0,0.0,0.0,0.0,0.0,0.0,0.0,0.0,0.0,0.0,0.0,0.0,0.0,0.0,0.0,0.0,0.0,0.0,0.0,0.0,0.0,0.0,0.0,0.0,0.0,0.0,0.0,0.0,0.0,0.0,0.0,0.0,0.0,0.0,-1.0586,-1.0586,-1.0631,0.0,-1.0591,0.0,0.0,0.0,0.0,0.0,0.0,0.0,0.0,0.0,0.0,0.0,0.0,0.0,0.0,0.0,0.0,0.0,0.0,0.0,0.0,0.0,0.0,0.0,0.0,0.0,0.0,0.0,0.0,0.0,0.0,0.0,0.0,0.0,0.0,0.0,0.0,0.0,0.0,0.0,0.0,0.0,0.0,0.0,0.0,0.0,0.0,0.0,0.0,0.0,0.0,0.0,0.0,0.0,0.0,0.0,0.0,0.0,0.0,0.0,0.0,0.0,0.0,0.0,0.0,0.0,0.0,0.0,0.0,0.0,0.0,0.0,0.0,0.0,0.0,0.0,0.0,0.0,0.0,0.0,0.0,0.0,0.0,0.0,0.0,0.0,0.0,0.0,0.0,0.0,0.0,0.0,0.0,0.0,0.0,0.0,0.0,0.0,0.0,0.0,0.0,0.0,0.0,0.0,0.0,0.0,0.0,0.0,0.0,0.0,0.0,-1.0646,-1.0659,-1.0562,-1.0374,0.0,0.0,0.0,0.0,0.0,0.0,0.0,0.0,0.0,0.0,0.0,0.0,0.0,0.0,0.0,0.0,0.0,0.0,0.0,0.0,0.0,0.0,0.0,0.0,0.0,0.0,0.0,0.0,0.0,0.0,0.0,0.0,0.0,0.0,0.0,0.0,0.0,0.0,0.0,0.0,0.0,0.0,0.0,0.0,0.0,0.0,0.0,0.0,0.0,0.0,0.0,0.0,0.0,0.0,0.0,0.0,0.0,0.0,0.0,0.0,0.0,0.0,0.0,0.0,0.0,0.0,0.0,0.0,0.0,0.0,0.0,0.0,0.0,0.0,0.0,0.0,0.0,0.0,0.0,0.0,0.0,0.0,0.0,0.0,0.0,0.0,0.0,0.0,0.0,0.0,0.0,0.0,0.0,0.0,0.0,0.0,0.0,0.0,0.0,0.0,0.0,0.0,0.0,0.0,0.0,0.0,0.0,0.0,0.0,0.0,-1.0771,-1.0769,-1.0748,-1.0505,-1.0266,-0.998,0.0,0.0,0.0,0.0,0.0,0.0,0.0,0.0,0.0,0.0,0.0,0.0,0.0,0.0,0.0,0.0,0.0,0.0,0.0,0.0,0.0,0.0,0.0,0.0,0.0,0.0,0.0,0.0,0.0,0.0,0.0,0.0,0.0,0.0,0.0,0.0,0.0,0.0,0.0,0.0,0.0,0.0,0.0,0.0,0.0,0.0,0.0,0.0,0.0,0.0,0.0,0.0,0.0,0.0,0.0,0.0,0.0,0.0,0.0,0.0,0.0,0.0,0.0,0.0,0.0,0.0,0.0,0.0,0.0,0.0,0.0,0.0,0.0,0.0,0.0,0.0,0.0,0.0,0.0,0.0,0.0,0.0,0.0,0.0,0.0,0.0,0.0,0.0,0.0,0.0,0.0,0.0,0.0,0.0,0.0,0.0,0.0,0.0,0.0,0.0,0.0,0.0,0.0,0.0,0.0,0.0,0.0,0.0,-1.0982,-1.1047,-1.0964,-1.0779,-1.0539,-1.0388,0.0,0.0,0.0,0.0,0.0,0.0,0.0,0.0,0.0,0.0,0.0,0.0,0.0,0.0,0.0,0.0,0.0,0.0,0.0,0.0,0.0,0.0,0.0,0.0,0.0,0.0,0.0,0.0,0.0,0.0,0.0,0.0,0.0,0.0,0.0,0.0,0.0,0.0,0.0,0.0,0.0,0.0,0.0,0.0,0.0,0.0,0.0,0.0,0.0,0.0,0.0,0.0,0.0,0.0,0.0,0.0,0.0,0.0,0.0,0.0,0.0,0.0,0.0,0.0,0.0,0.0,0.0,0.0,0.0,0.0,0.0,0.0,0.0,0.0,0.0,0.0,0.0,0.0,0.0,0.0,0.0,0.0,0.0,0.0,0.0,0.0,0.0,0.0,0.0,0.0,0.0,0.0,0.0,0.0,0.0,0.0,0.0,0.0,0.0,0.0,0.0,0.0,0.0,0.0,0.0,0.0,0.0,0.0,0.0,-1.1242,-1.1244,-1.107,-1.0751,-1.0618,-1.041,0.0,0.0,0.0,0.0,0.0,0.0,0.0,0.0,0.0,0.0,0.0,0.0,0.0,0.0,0.0,0.0,0.0,0.0,0.0,0.0,0.0,0.0,0.0,0.0,0.0,0.0,0.0,0.0,0.0,0.0,0.0,0.0,0.0,0.0,0.0,0.0,0.0,0.0,0.0,0.0,0.0,0.0,0.0,0.0,0.0,0.0,0.0,0.0,0.0,0.0,0.0,0.0,0.0,0.0,0.0,0.0,0.0,0.0,0.0,0.0,0.0,0.0,0.0,0.0,0.0,0.0,0.0,0.0,0.0,0.0,0.0,0.0,0.0,0.0,0.0,0.0,0.0,0.0,0.0,0.0,0.0,0.0,0.0,0.0,0.0,0.0,0.0,0.0,0.0,0.0,0.0,0.0,0.0,0.0,0.0,0.0,0.0,0.0,0.0,0.0,0.0,0.0,0.0,0.0,0.0,0.0,0.0,0.0,0.0,-1.1598,-1.1546,-1.1348,-1.0961,-1.084,-1.0549,0.0,0.0,0.0,0.0,0.0,0.0,0.0,0.0,0.0,0.0,0.0,0.0,0.0,0.0,0.0,0.0,0.0,0.0,0.0,0.0,0.0,0.0,0.0,0.0,0.0,0.0,0.0,0.0,0.0,0.0,0.0,0.0,0.0,0.0,0.0,0.0,0.0,0.0,0.0,0.0,0.0,0.0,0.0,0.0,0.0,0.0,0.0,0.0,0.0,0.0,0.0,0.0,0.0,0.0,0.0,0.0,0.0,0.0,0.0,0.0,0.0,0.0,0.0,0.0,0.0,0.0,0.0,0.0,0.0,0.0,0.0,0.0,0.0,0.0,0.0,0.0,0.0,0.0,0.0,0.0,0.0,0.0,0.0,0.0,0.0,0.0,0.0,0.0,0.0,0.0,0.0,0.0,0.0,0.0,0.0,0.0,0.0,0.0,0.0,0.0,0.0,0.0,0.0,0.0,0.0,0.0,0.0,0.0,-1.2155,-1.202,-1.2009,-1.1813,-1.1416,-1.118,-1.0788,0.0,0.0,0.0,0.0,0.0,0.0,0.0,0.0,0.0,0.0,0.0,0.0,0.0,0.0,0.0,0.0,0.0,0.0,0.0,0.0,0.0,0.0,0.0,0.0,0.0,0.0,0.0,0.0,0.0,0.0,0.0,0.0,0.0,0.0,0.0,0.0,0.0,0.0,0.0,0.0,0.0,0.0,0.0,0.0,0.0,0.0,0.0,0.0,0.0,0.0,0.0,0.0,0.0,0.0,0.0,0.0,0.0,0.0,0.0,0.0,0.0,0.0,0.0,0.0,0.0,0.0,0.0,0.0,0.0,0.0,0.0,0.0,0.0,0.0,0.0,0.0,0.0,0.0,0.0,0.0,0.0,0.0,0.0,0.0,0.0,0.0,0.0,0.0,0.0,0.0,0.0,0.0,0.0,0.0,0.0,0.0,0.0,0.0,0.0,0.0,0.0,0.0,0.0,0.0,0.0,0.0,0.0,0.0,0.0,-1.2347,-1.2543,-1.2505,-1.222,-1.1967,-1.1602,0.0,0.0,0.0,0.0,0.0,0.0,0.0,0.0,0.0,0.0,0.0,0.0,0.0,0.0,0.0,0.0,0.0,0.0,0.0,0.0,0.0,0.0,0.0,0.0,0.0,0.0,0.0,0.0,0.0,0.0,0.0,0.0,0.0,0.0,0.0,0.0,0.0,0.0,0.0,0.0,0.0,0.0,0.0,0.0,0.0,0.0,0.0,0.0,0.0,0.0,0.0,0.0,0.0,0.0,0.0,0.0,0.0,0.0,0.0,0.0,0.0,0.0,0.0,0.0,0.0,0.0,0.0,0.0,0.0,0.0,0.0,0.0,0.0,0.0,0.0,0.0,0.0,0.0,0.0,0.0,0.0,0.0,0.0,0.0,0.0,0.0,0.0,0.0,0.0,0.0,0.0,0.0,0.0,0.0,0.0,0.0,0.0,0.0,0.0,0.0,0.0,0.0,0.0,0.0,0.0,0.0,0.0,0.0,0.0,-1.3359,-1.34,-1.328,-1.2999,-1.283,-1.2376,-1.1515,0.0,0.0,0.0,0.0,0.0,0.0,0.0,0.0,0.0,0.0,0.0,0.0,0.0,0.0,0.0,0.0,0.0,0.0,0.0,0.0,0.0,0.0,0.0,0.0,0.0,0.0,0.0,0.0,0.0,0.0,0.0,0.0,0.0,0.0,0.0,0.0,0.0,0.0,0.0,0.0,0.0,0.0,0.0,0.0,0.0,0.0,0.0,0.0,0.0,0.0,0.0,0.0,0.0,0.0,0.0,0.0,0.0,0.0,0.0,0.0,0.0,0.0,0.0,0.0,0.0,0.0,0.0,0.0,0.0,0.0,0.0,0.0,0.0,0.0,0.0,0.0,0.0,0.0,0.0,0.0,0.0,0.0,0.0,0.0,0.0,0.0,0.0,0.0,0.0,0.0,0.0,0.0,0.0,0.0,0.0,0.0,0.0,0.0,0.0,0.0,0.0,0.0,0.0,0.0,0.0,0.0,0.0,0.0,-1.4895,-1.4573,-1.42,-1.379,-1.3708,-1.3054,0.0,0.0,0.0,0.0,0.0,0.0,0.0,0.0,0.0,0.0,0.0,0.0,0.0,0.0,0.0,0.0,0.0,0.0,0.0,0.0,0.0,0.0,0.0,0.0,0.0,0.0,0.0,0.0,0.0,0.0,0.0,0.0,0.0,0.0,0.0,0.0,0.0,0.0,0.0,0.0,0.0,0.0,0.0,0.0,0.0,0.0,0.0,0.0,0.0,0.0,0.0,0.0,0.0,0.0,0.0,0.0,0.0,0.0,0.0,0.0,0.0,0.0,0.0,0.0,0.0,0.0,0.0,0.0,0.0,0.0,0.0,0.0,0.0,0.0,0.0,0.0,0.0,0.0,0.0,0.0,0.0,0.0,0.0,0.0,0.0,0.0,0.0,0.0,0.0,0.0,0.0,0.0,0.0,0.0,0.0,0.0,0.0,0.0,0.0,0.0,0.0,0.0,0.0,0.0,0.0,0.0,0.0,0.0,0.0,-1.5796,-1.5878,-1.5583,-1.4909,-1.4133,-1.3376,0.0,0.0,0.0,0.0,0.0,0.0,0.0,0.0,0.0,0.0,0.0,0.0,0.0,0.0,0.0,0.0,0.0,0.0,0.0,0.0,0.0,0.0,0.0,0.0,0.0,0.0,0.0,0.0,0.0,0.0,0.0,0.0,0.0,0.0,0.0,0.0,0.0,0.0,0.0,0.0,0.0,0.0,0.0,0.0,0.0,0.0,0.0,0.0,0.0,0.0,0.0,0.0,0.0,0.0,0.0,0.0,0.0,0.0,0.0,0.0,0.0,0.0,0.0,0.0,0.0,0.0,0.0,0.0,0.0,0.0,0.0,0.0,0.0,0.0,0.0,0.0,0.0,0.0,0.0,0.0,0.0,0.0,0.0,0.0,0.0,0.0,0.0,0.0,0.0,0.0,0.0,0.0,0.0,0.0,0.0,0.0,0.0,0.0,0.0,0.0,0.0,0.0,0.0,0.0,0.0,0.0,0.0,0.0,-1.5421,-1.6292,-1.6601,-1.6512,-1.6074,-1.5124,-1.4213,0.0,0.0,0.0,0.0,0.0,0.0,0.0,0.0,0.0,0.0,0.0,0.0,0.0,0.0,0.0,0.0,0.0,0.0,0.0,0.0,0.0,0.0,0.0,0.0,0.0,0.0,0.0,0.0,0.0,0.0,0.0,0.0,0.0,0.0,0.0,0.0,0.0,0.0,0.0,0.0,0.0,0.0,0.0,0.0,0.0,0.0,0.0,0.0,0.0,0.0,0.0,0.0,0.0,0.0,0.0,0.0,0.0,0.0,0.0,0.0,0.0,0.0,0.0,0.0,0.0,0.0,0.0,0.0,0.0,0.0,0.0,0.0,0.0,0.0,0.0,0.0,0.0,0.0,0.0,0.0,0.0,0.0,0.0,0.0,0.0,0.0,0.0,0.0,0.0,0.0,0.0,0.0,0.0,0.0,0.0,0.0,0.0,0.0,0.0,0.0,0.0,0.0,0.0,0.0,0.0,0.0,0.0,0.0,-1.6039,-1.6572,-1.693,-1.7132,-1.7146,-1.6276,-1.5199,0.0,0.0,0.0,0.0,0.0,0.0,0.0,0.0,0.0,0.0,0.0,0.0,0.0,0.0,0.0,0.0,0.0,0.0,0.0,0.0,0.0,0.0,0.0,0.0,0.0,0.0,0.0,0.0,0.0,0.0,0.0,0.0,0.0,0.0,0.0,0.0,0.0,0.0,0.0,0.0,0.0,0.0,0.0,0.0,0.0,0.0,0.0,0.0,0.0,0.0,0.0,0.0,0.0,0.0,0.0,0.0,0.0,0.0,0.0,0.0,0.0,0.0,0.0,0.0,0.0,0.0,0.0,0.0,0.0,0.0,0.0,0.0,0.0,0.0,0.0,0.0,0.0,0.0,0.0,0.0,0.0,0.0,0.0,0.0,0.0,0.0,0.0,0.0,0.0,0.0,0.0,0.0,0.0,0.0,0.0,0.0,0.0,0.0,0.0,0.0,0.0,0.0,0.0,0.0,0.0,0.0,0.0,0.0,-1.6209,-1.7049,-1.7147,-1.7271,-1.7486,-1.6232,-1.5152,0.0,0.0,0.0,0.0,0.0,0.0,0.0,0.0,0.0,0.0,0.0,0.0,0.0,0.0,0.0,0.0,0.0,0.0,0.0,0.0,0.0,0.0,0.0,0.0,0.0,0.0,0.0,0.0,0.0,0.0,0.0,0.0,0.0,0.0,0.0,0.0,0.0,0.0,0.0,0.0,0.0,0.0,0.0,0.0,0.0,0.0,0.0,0.0,-0.6815,0.0,0.0,0.0,0.0,0.0,0.0,0.0,0.0,0.0,0.0,0.0,0.0,0.0,0.0,0.0,0.0,0.0,0.0,0.0,0.0,0.0,0.0,0.0,0.0,0.0,0.0,0.0,0.0,0.0,0.0,0.0,0.0,0.0,0.0,0.0,0.0,0.0,0.0,0.0,0.0,0.0,0.0,0.0,0.0,0.0,0.0,0.0,0.0,0.0,0.0,0.0,0.0,0.0,0.0,0.0,0.0,0.0,0.0,0.0,-1.6406,-1.7179,-1.734,-1.7422,-1.7542,-1.6746,-1.5888,0.0,0.0,0.0,0.0,0.0,0.0,0.0,0.0,0.0,0.0,0.0,0.0,0.0,0.0,0.0,0.0,0.0,0.0,0.0,0.0,0.0,0.0,0.0,0.0,0.0,0.0,0.0,0.0,0.0,0.0,0.0,0.0,0.0,0.0,0.0,0.0,0.0,0.0,0.0,0.0,0.0,0.0,0.0,0.0,0.0,0.0,0.0,0.0,0.0,0.0,0.0,0.0,0.0,0.0,0.0,0.0,0.0,0.0,0.0,0.0,0.0,0.0,0.0,0.0,0.0,0.0,0.0,0.0,0.0,0.0,0.0,0.0,0.0,0.0,0.0,0.0,0.0,0.0,0.0,0.0,0.0,0.0,0.0,0.0,0.0,0.0,0.0,0.0,0.0,0.0,0.0,0.0,0.0,0.0,0.0,0.0,0.0,0.0,0.0,0.0,0.0,0.0,0.0,0.0,0.0,0.0,0.0,-1.6152,-1.6714,-1.7259,-1.7502,-1.7635,-1.7582,-1.7393,-1.6737,-1.5678,0.0,0.0,0.0,0.0,0.0,0.0,0.0,0.0,0.0,0.0,0.0,0.0,0.0,0.0,0.0,0.0,0.0,0.0,0.0,0.0,0.0,0.0,0.0,0.0,0.0,0.0,0.0,0.0,0.0,0.0,0.0,0.0,0.0,0.0,0.0,0.0,0.0,0.0,-0.9243,-0.9773,0.0,0.0,0.0,0.0,0.0,0.0,0.0,0.0,-0.8766,0.0,0.0,0.0,0.0,0.0,0.0,0.0,0.0,0.0,0.0,0.0,0.0,0.0,0.0,0.0,0.0,0.0,0.0,0.0,0.0,0.0,0.0,0.0,0.0,0.0,0.0,0.0,0.0,0.0,0.0,0.0,0.0,0.0,0.0,0.0,0.0,0.0,0.0,0.0,0.0,0.0,0.0,0.0,0.0,0.0,0.0,0.0,0.0,0.0,0.0,0.0,0.0,0.0,0.0,0.0,0.0,-1.6174,-1.6991,-1.7408,-1.7515,-1.7809,-1.7849,-1.7648,-1.7528,-1.7028,-1.5946,0.0,0.0,0.0,0.0,0.0,0.0,0.0,0.0,0.0,0.0,0.0,0.0,0.0,0.0,0.0,0.0,0.0,0.0,0.0,0.0,0.0,0.0,0.0,0.0,0.0,0.0,0.0,0.0,0.0,0.0,0.0,0.0,0.0,0.0,0.0,0.0,0.0,0.0,0.0,-1.0642,-1.071,0.0,0.0,0.0,0.0,0.0,0.0,0.0,0.0,-0.9061,0.0,0.0,0.0,0.0,0.0,0.0,0.0,0.0,0.0,0.0,0.0,0.0,0.0,0.0,0.0,0.0,0.0,0.0,0.0,0.0,0.0,0.0,0.0,0.0,0.0,0.0,0.0,0.0,0.0,0.0,0.0,0.0,0.0,0.0,0.0,0.0,0.0,0.0,0.0,0.0,0.0,0.0,0.0,0.0,0.0,0.0,0.0,0.0,0.0,0.0,0.0,0.0,0.0,0.0,0.0,-1.676,-1.7628,-1.8063,-1.805,-1.8196,-1.821,-1.8063,-1.7903,-1.7292,0.0,0.0,0.0,0.0,0.0,0.0,0.0,0.0,0.0,0.0,0.0,0.0,0.0,0.0,0.0,0.0,0.0,0.0,0.0,0.0,0.0,0.0,0.0,0.0,0.0,0.0,0.0,0.0,0.0,0.0,0.0,0.0,0.0,0.0,0.0,0.0,0.0,0.0,0.0,0.0,-1.1878,-1.1903,-1.1756,0.0,0.0,0.0,0.0,0.0,0.0,-1.015,-0.9625,0.0,0.0,0.0,0.0,0.0,0.0,0.0,0.0,0.0,0.0,0.0,0.0,0.0,0.0,0.0,0.0,0.0,0.0,0.0,0.0,0.0,0.0,0.0,0.0,0.0,0.0,0.0,0.0,0.0,0.0,0.0,0.0,0.0,0.0,0.0,0.0,0.0,0.0,0.0,0.0,0.0,0.0,0.0,0.0,0.0,0.0,0.0,0.0,0.0,0.0,0.0,0.0,0.0,0.0,0.0,-1.7223,-1.8167,-1.8632,-1.849,-1.8544,-1.8557,-1.849,-1.8142,-1.7502,0.0,0.0,0.0,0.0,0.0,0.0,0.0,0.0,0.0,0.0,0.0,0.0,0.0,0.0,0.0,0.0,0.0,0.0,0.0,0.0,0.0,0.0,0.0,0.0,0.0,0.0,0.0,0.0,0.0,0.0,0.0,0.0,0.0,0.0,0.0,0.0,0.0,0.0,0.0,0.0,0.0,-1.333,-1.2896,-1.3102,0.0,0.0,0.0,0.0,-1.2102,-1.1057,0.0,0.0,0.0,0.0,0.0,0.0,0.0,0.0,0.0,0.0,0.0,0.0,0.0,0.0,0.0,0.0,0.0,0.0,0.0,0.0,0.0,0.0,0.0,0.0,0.0,0.0,0.0,0.0,0.0,0.0,0.0,0.0,0.0,0.0,0.0,0.0,0.0,0.0,0.0,0.0,0.0,0.0,0.0,0.0,0.0,0.0,0.0,0.0,0.0,0.0,0.0,0.0,0.0,0.0,0.0,0.0,-1.7473,-1.8673,-1.9054,-1.8573,-1.8744,-1.8744,-1.8504,-1.8155,-1.7609,0.0,0.0,0.0,0.0,0.0,0.0,0.0,0.0,0.0,0.0,0.0,0.0,0.0,0.0,0.0,0.0,0.0,0.0,0.0,0.0,0.0,0.0,0.0,0.0,0.0,0.0,0.0,0.0,0.0,0.0,0.0,0.0,0.0,0.0,0.0,0.0,0.0,0.0,0.0,0.0,0.0,-1.5109,-1.5477,-1.5187,-1.4785,0.0,0.0,-1.3115,-1.2973,-1.2028,0.0,0.0,0.0,0.0,0.0,0.0,0.0,0.0,0.0,0.0,0.0,0.0,0.0,0.0,0.0,0.0,0.0,0.0,0.0,0.0,0.0,0.0,0.0,0.0,0.0,0.0,0.0,0.0,0.0,0.0,0.0,0.0,0.0,0.0,0.0,0.0,0.0,0.0,0.0,0.0,0.0,0.0,0.0,0.0,0.0,0.0,0.0,0.0,0.0,0.0,0.0,0.0,0.0,0.0,0.0,-1.7944,-1.8545,-1.9414,-1.9788,-1.9479,-1.9599,-1.9533,-1.9239,-1.8784,-1.8154,0.0,0.0,0.0,0.0,0.0,0.0,0.0,0.0,0.0,0.0,0.0,0.0,0.0,0.0,0.0,0.0,0.0,0.0,0.0,0.0,0.0,0.0,0.0,0.0,0.0,0.0,0.0,0.0,0.0,0.0,0.0,0.0,0.0,0.0,0.0,0.0,0.0,0.0,0.0,0.0,0.0,0.0,-1.6738,-1.6938,0.0,0.0,0.0,-1.491,-1.4284,0.0,0.0,0.0,0.0,0.0,0.0,0.0,0.0,0.0,0.0,0.0,0.0,0.0,0.0,0.0,0.0,0.0,0.0,0.0,0.0,0.0,0.0,0.0,0.0,0.0,0.0,0.0,0.0,0.0,0.0,0.0,0.0,0.0,0.0,0.0,0.0,0.0,0.0,0.0,0.0,0.0,0.0,0.0,0.0,0.0,0.0,0.0,0.0,0.0,0.0,0.0,0.0,0.0,0.0,0.0,0.0,0.0,-1.9305,-2.0109,-2.0433,-2.0214,-2.018,-2.0134,-1.9907,-1.9345,0.0,0.0,0.0,0.0,0.0,0.0,0.0,0.0,0.0,0.0,0.0,0.0,0.0,0.0,0.0,0.0,0.0,0.0,0.0,0.0,0.0,0.0,0.0,0.0,0.0,0.0,0.0,-1.198,0.0,0.0,0.0,0.0,0.0,0.0,0.0,0.0,0.0,0.0,0.0,0.0,0.0,0.0,-1.8157,-1.8073,-1.8691,-1.8784,0.0,0.0,-1.6472,-1.5682,-1.4526,-1.3477,0.0,0.0,0.0,0.0,0.0,0.0,0.0,0.0,0.0,0.0,0.0,0.0,0.0,0.0,0.0,0.0,0.0,0.0,0.0,0.0,0.0,0.0,0.0,0.0,0.0,0.0,0.0,0.0,0.0,0.0,0.0,0.0,0.0,0.0,0.0,0.0,0.0,0.0,0.0,0.0,0.0,0.0,0.0,0.0,0.0,0.0,0.0,0.0,0.0,0.0,0.0,0.0,0.0,0.0,-1.9233,-1.9333,-2.0492,-2.0818,-2.0241,-2.018,-2.0227,-2.0201,-1.9639,-1.9065,0.0,0.0,0.0,0.0,0.0,0.0,0.0,0.0,0.0,0.0,0.0,0.0,0.0,0.0,0.0,0.0,0.0,0.0,0.0,0.0,0.0,0.0,0.0,0.0,0.0,0.0,0.0,0.0,0.0,0.0,0.0,0.0,0.0,0.0,0.0,0.0,0.0,0.0,0.0,0.0,0.0,-1.985,-2.0144,-2.0433,-2.0422,0.0,-1.8592,-1.7636,-1.7129,-1.6056,-1.5011,-1.4353,0.0,0.0,0.0,0.0,0.0,0.0,0.0,0.0,0.0,0.0,0.0,0.0,0.0,0.0,0.0,0.0,0.0,0.0,0.0,0.0,0.0,0.0,0.0,0.0,0.0,0.0,0.0,0.0,0.0,0.0,0.0,0.0,0.0,0.0,0.0,0.0,0.0,0.0,0.0,0.0,0.0,0.0,0.0,0.0,0.0,0.0,0.0,0.0,0.0,0.0,0.0,0.0,0.0,-1.9263,-1.9878,-2.0777,-2.1081,-2.0762,-2.0775,-2.0681,-2.0508,-2.0107,-1.9626,0.0,0.0,0.0,0.0,0.0,0.0,0.0,0.0,0.0,0.0,0.0,0.0,0.0,0.0,0.0,0.0,0.0,0.0,0.0,0.0,0.0,0.0,0.0,0.0,0.0,0.0,0.0,0.0,-1.5971,-1.6341,-1.6114,0.0,0.0,0.0,0.0,0.0,0.0,0.0,0.0,0.0,0.0,-2.1391,-2.1712,-2.2222,0.0,0.0,-2.0926,-1.9912,-1.9269,-1.7984,-1.6738,-1.606,-1.5047,0.0,0.0,0.0,0.0,0.0,0.0,0.0,0.0,0.0,0.0,0.0,0.0,0.0,0.0,0.0,0.0,0.0,0.0,0.0,0.0,0.0,0.0,0.0,0.0,0.0,0.0,0.0,0.0,0.0,0.0,0.0,0.0,0.0,0.0,0.0,0.0,0.0,0.0,0.0,0.0,0.0,0.0,0.0,0.0,0.0,0.0,0.0,0.0,0.0,0.0,0.0,0.0,-1.9539,-2.0178,-2.0956,-2.1208,-2.1096,-2.1109,-2.1015,-2.0815,-2.0521,-2.0134,0.0,0.0,0.0,0.0,0.0,0.0,0.0,0.0,0.0,0.0,0.0,0.0,0.0,0.0,0.0,0.0,0.0,0.0,0.0,0.0,0.0,0.0,0.0,0.0,0.0,0.0,0.0,0.0,-1.6978,-1.7343,-1.725,0.0,0.0,0.0,0.0,0.0,0.0,0.0,0.0,0.0,0.0,-2.318,-2.3333,-2.3826,-2.4035,-2.3587,-2.2724,-2.1744,-2.0909,-1.9707,-1.8661,-1.8025,0.0,0.0,0.0,0.0,0.0,0.0,0.0,0.0,0.0,0.0,0.0,0.0,0.0,0.0,0.0,0.0,0.0,0.0,0.0,0.0,0.0,0.0,0.0,0.0,0.0,0.0,0.0,-1.9337,0.0,0.0,-1.8544,0.0,0.0,0.0,0.0,0.0,0.0,0.0,0.0,0.0,0.0,0.0,0.0,0.0,0.0,0.0,0.0,0.0,0.0,0.0,0.0,0.0,0.0,-2.0145,-2.0187,-2.1122,-2.1411,-2.1109,-2.1109,-2.1096,-2.1082,-2.0815,-2.0521,-2.0201,0.0,0.0,0.0,0.0,0.0,0.0,0.0,0.0,0.0,0.0,0.0,0.0,0.0,0.0,0.0,0.0,0.0,0.0,0.0,0.0,0.0,0.0,0.0,0.0,0.0,0.0,-1.7099,-1.7576,-1.8124,0.0,0.0,0.0,0.0,0.0,0.0,0.0,0.0,0.0,0.0,-2.3886,-2.5068,-2.5048,-2.533,-2.533,-2.4699,-2.3766,-2.2767,-2.1892,-2.1194,-2.0593,0.0,0.0,0.0,0.0,0.0,0.0,0.0,0.0,0.0,0.0,0.0,0.0,0.0,0.0,0.0,0.0,0.0,0.0,0.0,0.0,0.0,0.0,0.0,0.0,0.0,0.0,0.0,-2.0022,-2.0622,0.0,0.0,0.0,0.0,0.0,0.0,0.0,0.0,0.0,0.0,0.0,-1.9724,-2.0005,0.0,0.0,0.0,0.0,0.0,0.0,0.0,0.0,0.0,0.0,0.0,0.0,-2.0002,-2.0201,-2.1087,-2.1425,-2.1109,-2.1109,-2.1109,-2.1109,-2.1015,-2.0735,-2.0241,0.0,0.0,0.0,0.0,0.0,0.0,0.0,0.0,0.0,0.0,0.0,0.0,0.0,0.0,0.0,0.0,0.0,0.0,0.0,0.0,0.0,0.0,0.0,0.0,0.0,-1.8275,0.0,0.0,0.0,0.0,0.0,0.0,0.0,0.0,0.0,0.0,0.0,-2.3779,-2.4426,-2.5325,-2.5865,-2.5816,-2.5861,-2.6148,0.0,0.0,0.0,0.0,0.0,0.0,0.0,0.0,0.0,0.0,0.0,0.0,0.0,0.0,-1.6856,-1.4679,-1.4414,-1.4532,-1.442,0.0,0.0,0.0,0.0,0.0,0.0,0.0,0.0,0.0,0.0,0.0,0.0,0.0,0.0,-2.106,0.0,-2.1339,0.0,0.0,0.0,0.0,0.0,0.0,0.0,0.0,-1.9861,-2.0141,-2.0511,-2.052,-2.0482,0.0,-2.0183,-1.9736,0.0,0.0,0.0,0.0,0.0,0.0,0.0,0.0,-2.013,-2.0544,-2.1222,-2.1565,-2.1403,-2.1416,-2.1416,-2.1416,-2.1323,-2.1029,-2.0548,-1.9973,-1.9492,0.0,0.0,0.0,0.0,0.0,0.0,0.0,0.0,0.0,0.0,0.0,0.0,0.0,0.0,0.0,0.0,0.0,0.0,0.0,0.0,0.0,0.0,0.0,-1.9507,0.0,0.0,0.0,0.0,0.0,0.0,0.0,0.0,0.0,-2.3169,-2.4454,-2.5749,-2.6512,-2.7149,-2.7453,-2.7246,0.0,0.0,0.0,0.0,0.0,0.0,0.0,-2.442,-2.5183,-2.4945,-2.4526,-2.4102,-2.2497,-2.1404,-2.1641,0.0,0.0,-1.7561,-1.7192,-1.7127,-1.6893,-1.6753,-1.6775,-1.701,-1.6943,-1.6898,0.0,0.0,0.0,0.0,0.0,0.0,0.0,0.0,-2.0948,-2.1916,0.0,-2.1689,0.0,0.0,0.0,0.0,-1.9822,-2.0436,0.0,0.0,-2.0684,-2.1122,-2.1109,-2.114,-2.1278,-2.1573,-2.0994,-2.0743,-2.0673,-1.9793,0.0,0.0,0.0,0.0,0.0,0.0,-2.0483,-2.1082,-2.1467,-2.1762,-2.1964,-2.1977,-2.1977,-2.1964,-2.171,-2.143,-2.1136,-2.0588,-2.0267,-2.018,-1.9158,0.0,0.0,0.0,0.0,0.0,0.0,0.0,0.0,0.0,0.0,0.0,0.0,0.0,0.0,0.0,0.0,0.0,0.0,0.0,0.0,-2.0574,0.0,0.0,0.0,0.0,0.0,0.0,0.0,0.0,0.0,0.0,-2.5077,-2.6103,-2.7261,-2.8271,0.0,0.0,0.0,0.0,-3.0121,-2.9449,-2.8995,-2.8584,-2.8003,-2.7542,-2.7383,-2.7733,0.0,0.0,-2.6933,-2.4935,-2.3452,-2.3648,-2.3237,-2.2261,-2.0613,-2.0013,-1.9584,-1.894,-1.8645,-1.8499,-1.8696,-1.8855,-1.8847,-2.1117,0.0,0.0,0.0,0.0,-2.0755,-2.1015,-2.1743,-2.2127,-2.2527,-2.2842,-2.2703,0.0,0.0,0.0,0.0,0.0,0.0,-2.111,-2.1347,-2.1397,-2.1537,-2.1737,-2.1773,-2.1773,-2.1919,-2.1727,-2.1605,-2.1605,-2.1362,-2.0733,-1.9807,0.0,0.0,0.0,0.0,-2.0873,-2.1467,-2.171,-2.1911,-2.1977,-2.1991,-2.1991,-2.1991,-2.1911,-2.1817,-2.1737,-2.1376,-2.1082,-2.0855,-2.0134,0.0,0.0,0.0,0.0,0.0,0.0,0.0,0.0,0.0,0.0,0.0,0.0,0.0,0.0,0.0,0.0,0.0,0.0,0.0,-2.0837,-2.1628,-2.1935,0.0,0.0,0.0,0.0,0.0,0.0,0.0,0.0,0.0,-2.8537,-2.8793,-2.9293,0.0,0.0,-3.026,-3.017,-3.0353,-3.0743,-3.1614,-3.0989,0.0,-3.1238,-3.0341,-2.968,-2.9975,-2.9866,-2.9621,-2.9184,-2.7587,-2.6389,-2.6484,-2.5725,-2.4809,-2.4274,-2.2841,-2.1785,-2.1583,-2.16,-2.1699,-2.1799,-2.1611,-2.141,-2.1735,-2.1727,-2.1104,-2.1119,-2.155,-2.126,-2.1459,-2.2013,-2.2391,-2.2771,-2.3049,-2.2918,-2.2879,-2.288,-2.2372,0.0,0.0,0.0,-2.1724,-2.1984,-2.1854,-2.1884,-2.2138,-2.2031,-2.2044,-2.2151,-2.2044,-2.1991,-2.1991,-2.1991,-2.1649,-2.0917,0.0,0.0,-2.1059,-2.1061,-2.1309,-2.1871,-2.2071,-2.2218,-2.2325,-2.2338,-2.2351,-2.2364,-2.2231,-2.2164,-2.2188,-2.1948,-2.1643,-2.1456,-2.1002,-2.0529,0.0,0.0,0.0,0.0,0.0,0.0,0.0,0.0,0.0,0.0,0.0,-1.8994,-1.9242,0.0,0.0,0.0,-2.1247,-2.1569,-2.2286,-2.274,0.0,0.0,0.0,0.0,0.0,0.0,0.0,-2.7352,-2.9333,-3.0768,-3.0993,-3.1257,-3.1531,-3.1819,-3.1739,-3.1622,-3.1539,0.0,-3.1809,-3.2551,-3.2093,-3.1942,-3.2598,-3.2129,-3.1722,-3.1887,-3.1866,-3.1513,-3.0952,-2.9676,-2.8848,-2.8631,-2.7764,-2.6833,-2.6772,-2.5341,-2.3925,-2.36,-2.3538,-2.3589,-2.3602,-2.3242,-2.3005,-2.2058,-2.203,-2.1458,-2.1369,-2.157,-2.1583,-2.1767,-2.2017,-2.2044,-2.2739,-2.3772,-2.2578,-2.3045,-2.4694,-2.3851,0.0,-2.2046,-2.2383,-2.2388,-2.2084,-2.2071,-2.2218,-2.2512,-2.2205,-2.2205,-2.2485,-2.2191,-2.2071,-2.2111,-2.2098,-2.2098,-2.2084,-2.183,-2.1735,-2.1681,-2.1681,-2.1911,-2.2472,-2.2498,-2.27,-2.3063,-2.2995,-2.3065,-2.3185,-2.2754,-2.2552,-2.2599,-2.2295,-2.2083,-2.2149,-2.1802,-2.1649,-2.1705,0.0,0.0,0.0,0.0,0.0,0.0,0.0,0.0,0.0,0.0,0.0,0.0,0.0,0.0,0.0,-2.331,0.0,-2.4101,-2.3896,0.0,0.0,0.0,-2.619,-2.693,-2.8627,-2.9838,-3.0116,0.0,0.0,-3.2658,-3.3441,-3.3795,-3.3458,-3.3371,-3.3388,-3.3298,-3.3329,-3.3271,-3.3049,-3.3006,-3.2945,-3.3315,-3.342,-3.3566,-3.379,-3.3686,-3.3276,-3.2484,-3.1355,-3.0683,-3.0572,-2.9425,-2.8396,-2.8302,-2.7305,-2.6255,-2.5165,-2.4726,-2.4534,-2.4534,-2.4225,-2.3993,-2.2659,-2.27,-2.2552,-2.2324,-2.2164,-2.2164,-2.2258,-2.2338,-2.2552,-2.262,-2.2457,-2.2338,-2.2593,-2.2983,-2.278,-2.2673,-2.2687,-2.2754,-2.2847,-2.2979,-2.2766,-2.2939,-2.342,-2.2899,-2.2806,-2.3073,-2.2806,-2.2779,-2.2993,-2.3006,-2.3006,-2.3006,-2.2939,-2.2672,-2.2231,-2.2218,-2.2512,-2.3113,-2.3113,-2.3525,-2.4371,-2.4161,-2.4149,-2.4493,-2.4121,-2.3845,-2.3607,-2.3103,-2.2846,-2.3112,-2.2361,-2.1946,-2.197,-2.1555,0.0,0.0,0.0,0.0,0.0,0.0,0.0,0.0,0.0,-2.1408,-2.1803,0.0,-2.312,0.0,-2.4174,-2.4709,-2.4466,-2.4818,0.0,0.0,-2.6396,-2.742,-2.8707,-3.0425,-3.1612,-3.1679,-3.3129,-3.3941,-3.3205,-3.428,-3.5049,-3.4947,-3.4462,-3.412,-3.4154,-3.4596,-3.5049,-3.518,-3.5621,-3.6062,-3.5994,-3.5902,-3.574,-3.5874,-3.5292,-3.4686,-3.4522,-3.3234,-3.2252,-3.2153,-3.1173,-3.018,-2.9408,-2.8839,-2.8126,-2.7186,-2.6545,-2.6188,-2.6188,-2.5857,-2.5551,-2.2939,-2.306,-2.2926,-2.2766,-2.2605,-2.2619,-2.2619,-2.2632,-2.2792,-2.274,-2.2392,-2.2699,-2.2899,-2.3006,-2.2886,-2.2913,-2.306,-2.2926,-2.3033,-2.3313,-2.3153,-2.3313,-2.3754,-2.3434,-2.3354,-2.3514,-2.3354,-2.3354,-2.3514,-2.3527,-2.3527,-2.3527,-2.3527,-2.3354,-2.3033,-2.2886,-2.2993,-2.3313,-2.346,-2.4159,-2.5356,-2.4876,-2.4933,-2.567,-2.5039,-2.462,-2.445,-2.38,-2.3621,-2.3882,-2.3337,-2.3171,-2.3392,-2.2933,-2.2582,0.0,0.0,0.0,0.0,0.0,0.0,0.0,0.0,0.0,0.0,0.0,-2.4218,-2.4627,-2.5301,-2.5889,-2.619,-2.6519,-2.7125,-2.8006,-2.8917,-2.9873,-3.1064,-3.2492,-3.3415,-3.3491,-3.4647,-3.523,-3.4681,-3.5509,-3.6268,-3.6268,-3.5909,-3.5583,-3.5429,-3.5635,-3.5857,-3.608,-3.644,-3.6782,-3.6919,-3.6941,-3.6793,-3.6643,-3.6342,-3.5886,-3.5301,-3.4434,-3.3803,-3.3535,-3.2724,-3.1678,-3.0735,-3.0029,-2.9396,-2.8511,-2.8043,-2.7642,-2.7134,-2.669,-2.6284,-2.314,-2.3354,-2.3046,-2.2913,-2.2926,-2.2926,-2.2926,-2.2926,-2.2926,-2.2939,-2.2993,-2.326,-2.3527,-2.3754,-2.346,-2.3257,-2.3313,-2.3046,-2.3086,-2.338,-2.338,-2.3567,-2.3875,-2.3808,-2.3781,-2.3821,-2.3781,-2.3794,-2.3821,-2.3821,-2.3834,-2.3834,-2.3821,-2.3879,-2.3825,-2.3611,-2.3504,-2.3588,-2.387,-2.4802,-2.6261,-2.5555,-2.5682,-2.6623,-2.5798,-2.5221,-2.5094,-2.4493,-2.4341,-2.4595,-2.4539,-2.4678,-2.5025,-2.4467,-2.4156,0.0,-2.3427,0.0,0.0,0.0,0.0,0.0,0.0,0.0,0.0,-2.4832,-2.531,-2.6261,-2.6599,-2.7269,-2.8427,-2.8531,-2.9143,-3.0601,-3.1752,-3.2624,-3.3348,-3.4406,-3.507,-3.5104,-3.5817,-3.6229,-3.608,-3.683,-3.7376,-3.7225,-3.7325,-3.7239,-3.695,-3.6641,-3.6371,-3.6303,-3.6354,-3.6748,-3.6953,-3.7193,-3.7231,-3.6913,-3.6963,-3.6793,-3.575,-3.5431,-3.5161,-3.4753,-3.4072,-3.3203,-3.2259,-3.1354,-3.0361,-2.948,-2.9052,-2.8631,-2.7816,-2.7314,-2.6904,-2.3634,-2.3661,-2.3367,-2.3233,-2.3233,-2.3233,-2.3233,-2.3233,-2.3233,-2.338,-2.3607,-2.3661,-2.3714,-2.3741,-2.346,-2.3257,-2.3257,-2.3273,-2.3394,-2.3688,-2.3688,-2.3968,-2.4422,-2.3995,-2.3888,-2.4102,-2.3875,-2.3888,-2.4128,-2.4128,-2.4128,-2.4128,-2.4115,-2.4139,-2.4195,0.0,0.0,0.0,-2.526,-2.6054,-2.7227,-2.6865,-2.6892,-2.7494,-2.6978,0.0,-2.5874,-2.5437,-2.5367,-2.5635,-2.5144,0.0,0.0,0.0,0.0,0.0,0.0,0.0,0.0,0.0,0.0,0.0,-2.5915,-2.5754,-2.5754,-2.6222,-2.7008,-2.8079,-2.8258,-2.89,-3.0324,-3.0462,-3.0937,-3.2129,-3.272,-3.3426,-3.4484,-3.5111,-3.5515,-3.5857,-3.6592,-3.6846,-3.6396,-3.7404,-3.804,-3.7445,-3.807,-3.8684,-3.8557,-3.7891,-3.7516,-3.7467,-3.7604,-3.7878,-3.7998,-3.8032,-3.7964,-3.7964,-3.7639,-3.7399,-3.7058,-3.6457,-3.6059,-3.587,-3.5469,-3.4831,-3.3873,-3.279,-3.1642,-3.0696,-2.973,-2.8978,-2.8751,-2.8612,-2.8439,-2.4205,-2.3955,-2.3674,-2.3554,0.0,-2.3541,-2.3621,-2.3754,-2.3607,-2.3714,-2.3981,-2.3981,-2.4062,-2.4182,-2.3888,-2.3754,-2.3754,-2.3607,-2.3701,-2.3981,-2.3981,-2.4222,-2.4623,-2.4329,-2.4275,-2.4409,-2.4262,-2.4275,-2.4409,-2.4409,-2.4422,-2.4422,-2.4569,-2.4707,-2.4774,-2.5347,-2.5721,-2.5866,-2.6008,-2.675,-2.8042,-2.742,-2.7346,-2.81,-2.7504,0.0,0.0,0.0,0.0,0.0,0.0,0.0,0.0,0.0,0.0,-2.5968,-2.6035,-2.6149,-2.6457,-2.6486,-2.6705,-2.7174,-2.7881,-2.8072,-2.7428,-2.7759,-2.8624,-2.9922,-3.0044,-3.0703,-3.2139,-3.2313,-3.2769,-3.3909,-3.4452,-3.4993,-3.5708,-3.6172,-3.6516,-3.6974,-3.7526,-3.7787,-3.7613,-3.8482,-3.8918,-3.8516,-3.8944,-3.9307,-3.9058,-3.885,-3.8728,-3.8474,-3.8527,-3.858,-3.834,-3.8323,-3.8323,-3.8237,-3.8066,-3.7894,-3.7619,-3.7205,-3.6789,-3.6372,-3.6096,-3.5573,-3.4422,-3.3671,-3.2763,-3.143,-3.0613,-2.9934,-2.9461,-2.9138,-2.8945,-2.4624,-2.4249,-2.3968,-2.3848,-2.3848,-2.3848,-2.4008,-2.4262,0.0,0.0,0.0,-2.4275,-2.4409,-2.4536,-2.4329,-2.4209,-2.4182,-2.3955,-2.3981,-2.4195,-2.4249,-2.4409,-2.4623,-2.4636,-2.471,-2.4636,-2.4636,-2.471,-2.471,-2.471,-2.471,-2.4857,-2.5226,-2.5474,-2.575,-2.6398,-2.6793,-2.6924,-2.6793,-2.7451,-2.8806,-2.7876,-2.7876,-2.8878,-2.7894,-2.7182,-2.6749,-2.65,-2.6486,-2.6735,-2.6764,-2.6881,-2.7144,-2.7159,-2.7159,-2.7159,-2.7159,-2.7379,-2.7836,-2.7866,-2.8103,-2.8548,-2.9822,-3.0223,-2.9251,-2.9559,-3.0327,-3.1722,-3.177,-3.2446,-3.4109,-3.4254,-3.4756,-3.5914,-3.6339,-3.6691,-3.6968,-3.724,-3.7531,-3.8018,-3.8341,-3.8715,-3.9002,-3.9573,-3.9858,-3.9774,-3.9823,-3.9774,-3.9451,-3.9348,-3.9143,-3.8819,-3.8751,-3.8683,-3.8426,-3.8426,-3.8426,-3.846,-3.8512,-3.8356,-3.8097,-3.7907,-3.7545,-3.6834,-3.6628,-3.6002,-3.489,-3.4406,-3.3719,-3.1937,-3.1404,-3.0992,-2.9872,-2.9379,-2.9104,-2.4603,-2.4469,-2.4262,-2.4142,-2.4142,-2.4142,-2.4315,-2.4569,-2.4529,-2.4543,-2.4569,-2.4583,-2.4596,-2.4623,-2.4329,-2.4209,-2.4209,-2.4168,-2.4168,-2.4222,-2.4462,-2.4596,-2.4636,-2.4931,-2.4931,-2.4636,-2.4931,-2.5079,-2.5079,-2.5152,-2.5299,-2.5653,-2.6019,-2.6675,-2.7659,-2.8057,-2.8488,-2.8745,-2.8192,-2.8414,-2.9595,-2.9089,-2.9089,-2.9595,-2.879,-2.8104,-2.7744,-2.7611,-2.7626,-2.7744,-2.7669,-2.7698,-2.7742,-2.7817,-2.7742,-2.7742,-2.7817,-2.8251,-2.9321,-2.9427,-2.9992,-3.123,-3.1889,-3.1873,-3.1159,-3.1667,-3.241,-3.3277,-3.3355,-3.4221,-3.6029,-3.6292,-3.6713,-3.7848,-3.8141,-3.8294,-3.8223,-3.8053,-3.8071,-3.8512,-3.8866,-3.9051,-3.9306,-4.015,-4.0536,-4.0028,-4.0336,-4.0826,-4.0506,-3.9433,-3.858,-3.8409,-3.8409,-3.8323,-3.8443,-3.8631,-3.8803,-3.8837,-3.9077,-3.9214,-3.9126,-3.8845,-3.8393,-3.7999,-3.76,-3.6976,-3.6121,-3.5296,-3.4246,-3.2852,-3.2054,-3.1212,-3.0266,-2.9931,-2.9681,-2.6019,-2.5345,-2.5573,-2.5444,-2.508,-2.508,-2.4869,-2.4636,-2.4636,-2.4636,-2.4636,-2.4636,-2.4636,-2.4623,-2.4502,-2.4436,-2.4436,-2.4436,-2.4436,-2.4449,-2.479,-2.4931,-2.4931,-2.5373,-2.5433,-2.5286,-2.5446,-2.5506,-2.552,-2.5299,-2.552,-2.6093,-2.675,-2.7495,-2.8323,-2.8575,-2.8893,-2.9381,-2.8926,-2.9,-2.9735,-2.9601,-2.9452,-2.9452,-2.9062,-2.8537,-2.7949,-2.7874,-2.8025,-2.8251,-2.8251,-2.8476,-2.8882,-2.9275,-2.9533,-2.9715,-3.0129,-3.0608,-3.123,-3.1464,-3.1822,-3.2605,-3.3582,-3.4059,-3.3758,-3.3322,-3.3681,-3.4908,-3.5032,-3.5526,-3.693,-3.706,-3.7333,-3.7862,-3.8252,-3.8512,-3.8651,-3.8861,-3.914,-3.9555,-3.9717,-3.9916,-4.018,-4.0698,-4.0976,-4.0554,-4.0868,-4.1032,-4.105,-4.0289,-3.9652,-3.9477,-3.9599,-3.9461,-3.9027,-3.9077,-3.9196,-3.9214,-3.9351,-3.9453,-3.947,-3.9294,-3.9032,-3.8632,-3.8317,-3.8003,-3.7381,-3.6483,-3.5492,-3.4476,-3.3456,-3.2601,-3.176,-3.104,-3.0254,-2.7172,-2.6152,-2.6736,-2.6663,-2.6078,-2.6093,-2.5653,-2.4918,-2.4857,-2.4784,-2.4636,-2.4636,-2.4636,-2.4636,-2.4636,-2.4636,-2.4636,-2.4636,-2.4636,-2.4636,-2.5005,-2.5239,-2.5373,-2.5814,-2.6019,-2.5946,-2.6019,-2.6019,-2.5946,-2.574,-2.6034,-2.6896,-2.755,-2.827,-2.8961,-2.8977,-2.9241,-2.9915,-2.9655,-2.9758,-3.0285,-3.0194,-3.0044,-2.9893,-2.9592,-2.9139,-2.8609,-2.8397,-2.8473,-2.8927,-2.9063,-2.9382,-3.0008,-3.0794,-3.1324,-3.1606,-3.2269,-3.265,-3.2824,-3.3427,-3.3835,-3.3915,-3.5168,-3.6033,-3.6088,-3.5395,-3.5435,-3.6473,-3.6609,-3.6979,-3.7909,-3.7897,-3.7823,-3.8213,-3.8769,-3.9192,-3.9386,-3.9736,-4.0271,-4.074,-4.072,-4.0764,-4.1108,-4.1145,-4.1097,-4.1159,-4.1227,-4.1152,-4.1297,-4.1275,-4.1191,-4.0874,-4.084,-4.0561,-3.9911,-3.9892,-4.0015,-3.9944,-3.9959,-4.0045,-3.9957,-3.9922,-3.957,-3.9181,-3.9041,-3.8813,-3.8319,-3.7644,-3.6652,-3.5645,-3.4779,-3.4079,-3.3101,-3.2333,-3.1133,-2.7027,-2.6881,-2.7027,-2.6954,-2.6881,-2.6881,-2.6444,-2.5726,-2.5726,-2.5286,-2.471,-2.4636,-2.4636,-2.4636,-2.4636,-2.4636,-2.4636,-2.4636,-2.4636,-2.4636,-2.5005,-2.5373,-2.58,-2.6546,-2.6692,-2.6473,-2.6692,-2.6692,-2.6458,-2.6692,-2.7347,-2.8418,-2.8563,-2.9107,-2.9965,-2.9763,-3.0106,-3.1162,-3.0854,-3.1069,-3.1743,-3.1453,-3.159,-3.2277,-3.0807,-3.0192,-3.0392,-2.9821,-2.9589,-2.9913,-3.0327,-3.0746,-3.1199,-3.1952,-3.2396,-3.2459,-3.2871,-3.3188,-3.371,-3.5021,-3.5921,-3.5956,-3.6644,-3.727,-3.7738,-3.8301,-3.8536,-3.8366,-3.8024,-3.8446,-3.9929,-3.9413,-3.934,-4.0243,-4.0593,-4.0998,-4.1184,-4.1138,-4.1285,-4.2159,-4.1499,-4.1202,-4.1556,-4.1415,-4.1328,-4.1592,-4.1653,-4.1836,-4.2111,-4.2371,-4.2451,-4.1884,-4.1477,-4.1018,-4.079,-4.109,-4.1178,-4.1231,-4.1156,-4.0992,-4.0902,-4.0631,-4.0378,-3.9839,-3.9788,-3.9524,-3.8931,-3.8252,-3.7468,-3.6469,-3.5599,-3.4863,-3.3975,-3.3448,-3.2394,-2.8236,-2.8039,-2.8278,-2.8202,-2.8042,-2.8259,-2.7753,-2.6808,-2.6808,-2.6531,-2.6093,-2.6005,-2.5653,-2.4931,-2.471,-2.471,-2.4931,-2.4931,-2.4931,-2.5005,-2.5887,-2.6326,-2.6619,-2.726,-2.755,-2.7405,-2.7565,-2.7565,-2.7478,-2.784,-2.8274,-2.8722,-2.9127,-2.9707,-3.0224,-3.0387,-3.0675,-3.0994,-3.1087,-3.1549,-3.2222,-3.2222,-3.2146,-3.2146,-3.1609,-3.1055,-3.0778,-3.0405,-3.0512,-3.1152,-3.1779,-3.2442,-3.3071,-3.4109,-3.4722,-3.4739,-3.5322,-3.5742,-3.5919,-3.6711,-3.7029,-3.6561,-3.7748,-3.8338,-3.8163,-3.9237,-3.9992,-4.0061,-3.9303,-3.9114,-3.9986,-3.98,-3.9895,-4.0646,-4.1196,-4.1609,-4.1756,-4.185,-4.2065,-4.2364,-4.2084,-4.1944,-4.2049,-4.1938,-4.1915,-4.2063,-4.2197,-4.2417,-4.2619,-4.2986,-4.3117,-4.2958,-4.2635,-4.2208,-4.1728,-4.1657,-4.1763,-4.1727,-4.1564,-4.1325,-4.1325,-4.0946,-4.0515,-4.0361,-4.0344,-4.0292,-4.001,-3.92,-3.8455,-3.745,-3.6711,-3.5864,-3.4108,-3.3861,-3.2871,-2.9495,-2.932,-2.9849,-2.9881,-2.9553,-2.9912,-2.9345,-2.8186,-2.8042,-2.7825,-2.7448,-2.7318,-2.6808,-2.6019,-2.5506,-2.5373,-2.552,-2.5667,-2.5667,-2.5814,-2.6692,-2.7202,-2.7347,-2.7913,-2.8274,-2.8274,-2.8274,-2.8274,-2.8434,-2.8707,-2.9026,-2.9369,-2.984,-3.0323,-3.0607,-3.0969,-3.1029,-3.0978,-3.1241,-3.184,-3.2588,-3.274,-3.2757,-3.2604,-3.2299,-3.1949,-3.1583,-3.1137,-3.1324,-3.2187,-3.2997,-3.3826,-3.4632,-3.5939,-3.6782,-3.7037,-3.7586,-3.796,-3.7908,-3.8308,-3.8279,-3.7824,-3.8865,-3.9339,-3.911,-4.0179,-4.1019,-4.1021,-4.0515,-4.0291,-4.047,-4.0371,-4.0434,-4.0986,-4.1593,-4.2011,-4.2131,-4.2397,-4.2633,-4.2735,-4.2831,-4.2797,-4.2762,-4.2603,-4.2493,-4.2641,-4.2762,-4.2931,-4.3023,-4.3298,-4.3481,-4.3481,-4.3481,-4.3195,-4.2586,-4.2443,-4.2389,-4.2299,-4.2119,-4.1777,-4.1687,-4.1308,-4.0856,-4.095,-4.0838,-4.064,-4.0356,-3.9807,-3.9165,-3.8638,-3.7805,-3.6722,-3.5013,-3.4766,-3.3828,-3.0663,-3.0511,-3.1553,-3.1711,-3.1498,-3.1841,-3.1136,-2.9663,-2.9409,-2.9051,-2.8691,-2.8331,-2.8042,-2.797,-2.7318,-2.6663,-2.6473,-2.675,-2.6881,-2.6881,-2.7318,-2.7695,-2.8057,-2.8491,-2.8691,-2.8707,-2.8707,-2.8866,-2.9242,-2.9314,-2.9817,-3.0865,-3.093,-3.1129,-3.1462,-3.1534,-3.1485,-3.1424,-3.1472,-3.1993,-3.2968,-3.312,-3.3517,-3.4022,-3.323,-3.2923,-3.3205,-3.2122,-3.1826,-3.3013,-3.3848,-3.4605,-3.5515,-3.702,-3.8268,-3.8998,-3.9175,-3.9202,-3.9295,-3.9591,-3.9733,-3.977,-4.0123,-4.0441,-4.0367,-4.1414,-4.1809,-4.126,-4.1794,-4.2106,-4.2101,-4.1437,-4.1385,-4.2097,-4.2309,-4.2557,-4.2927,-4.301,-4.3214,-4.356,-4.3601,-4.363,-4.3586,-4.3251,-4.3199,-4.3323,-4.3227,-4.3092,-4.3316,-4.3463,-4.3481,-4.3481,-4.3481,-4.3481,-4.341,-4.3323,-4.3286,-4.3215,-4.2892,-4.2604,-4.2479,-4.2299,-4.1777,-4.1416,-4.1235,-4.0946,-4.0674,-4.0112,-3.9424,-3.8876,-3.8477,-3.7388,-3.5421,-3.5866,-3.4813,-3.1052,-3.1229,-3.2104,-3.2251,-3.1978,-3.2332,-3.2033,-3.1277,-3.1443,-3.1258,-3.0954,-3.0811,-3.0611,-3.0307,-2.9792,-2.8707,-2.726,-2.7535,-2.7608,-2.7478,-2.797,-2.8331,-2.8491,-2.8923,-2.9082,-2.9066,-2.9066,-2.9409,-2.9978,-3.0283,-3.0953,-3.1885,-3.2063,-3.2406,-3.2882,-3.2743,-3.2472,-3.2206,-3.1916,-3.1993,-3.2544,-3.3196,-3.3998,-3.4696,-3.4408,-3.4001,-3.3674,-3.3342,-3.3416,-3.3881,-3.5093,-3.6178,-3.7073,-3.8469,-3.9482,-4.0024,-4.0062,-4.0231,-4.0428,-4.0664,-4.0745,-4.0782,-4.1141,-4.1341,-4.1437,-4.1986,-4.2264,-4.2101,-4.2181,-4.2495,-4.2689,-4.2365,-4.226,-4.276,-4.3046,-4.3297,-4.3463,-4.3463,-4.3643,-4.4038,-4.4363,-4.4516,-4.4521,-4.4396,-4.422,-4.3964,-4.3793,-4.369,-4.3515,-4.3481,-4.3481,-4.3481,-4.3499,-4.3591,-4.3866,-4.3884,-4.3884,-4.3704,-4.3506,-4.309,-4.2838,-4.2514,-4.2063,-4.1936,-4.1719,-4.1339,-4.0993,-4.0328,-3.9707,-3.905,-3.8683,-3.7655,-3.56,-3.5506,-3.4385,-3.1816,-3.2595,-3.2982,-3.302,-3.2738,-3.309,-3.2948,-3.2526,-3.2754,-3.2841,-3.2787,-3.2748,-3.2512,-3.2189,-3.211,-3.1131,-2.9366,-2.8888,-2.8691,-2.8707,-2.9051,-2.9409,-2.9624,-2.9926,-2.9991,-2.9833,-2.9873,-3.0211,-3.0754,-3.1152,-3.1991,-3.3025,-3.3209,-3.3621,-3.4132,-3.4059,-3.3702,-3.3119,-3.2923,-3.2972,-3.3072,-3.4009,-3.5047,-3.5846,-3.6083,-3.5674,-3.4744,-3.4688,-3.4849,-3.5383,-3.6487,-3.7667,-3.878,-3.9779,-4.054,-4.0887,-4.1059,-4.1308,-4.1752,-4.1829,-4.1829,-4.1848,-4.2078,-4.2159,-4.2037,-4.221,-4.2372,-4.2439,-4.2578,-4.2793,-4.3027,-4.2958,-4.3036,-4.3301,-4.3535,-4.3769,-4.3906,-4.3926,-4.4238,-4.4726,-4.5058,-4.5238,-4.5348,-4.5251,-4.5056,-4.4706,-4.4459,-4.4034,-4.3856,-4.3589,-4.3481,-4.3481,-4.3481,-4.3756,-4.4105,-4.427,-4.4288,-4.4197,-4.4179,-4.3706,-4.338,-4.2928,-4.2711,-4.2566,-4.2185,-4.1804,-4.1262,-4.0595,-3.9906,-3.925,-3.8759,-3.7931,-3.6344,-3.4853,-3.3807,-3.3051,-3.427,-3.4433,-3.409,-3.3874,-3.4084,-3.3955,-3.3335,-3.3357,-3.3554,-3.3821,-3.3893,-3.3691,-3.3546,-3.3892,-3.3638,-3.2394,-3.0877,-3.0398,-3.0826,-3.0579,-3.0864,-3.1449,-3.1483,-3.1279,-3.097,-3.104,-3.1203,-3.1662,-3.2047,-3.2821,-3.3796,-3.4327,-3.4744,-3.5064,-3.5288,-3.4976,-3.4231,-3.4529,-3.4796,-3.5003,-3.5624,-3.6646,-3.7773,-3.8242,-3.7943,-3.6745,-3.5991,-3.6085,-3.702,-3.7649,-3.878,-4.0175,-4.0875,-4.1401,-4.1736,-4.2127,-4.2537,-4.3008,-4.3004,-4.2923,-4.2923,-4.3024,-4.2907,-4.2615,-4.2478,-4.2478,-4.2656,-4.2832,-4.3066,-4.3164,-4.3437,-4.355,-4.3691,-4.373,-4.3945,-4.4238,-4.4414,-4.4707,-4.5391,-4.5625,-4.584,-4.6065,-4.5881,-4.5549,-4.5324,-4.4851,-4.4338,-4.4141,-4.3911,-4.3625,-4.3481,-4.3518,-4.3738,-4.4233,-4.4655,-4.4691,-4.4691,-4.4691,-4.449,-4.4252,-4.3979,-4.376,-4.3577,-4.3029,-4.2535,-4.1551,-4.0862,-4.0275,-3.9582,-3.9057,-3.8148,-3.6514,-3.4932,-3.3887,-3.4143,-3.4756,-3.4501,-3.4483,-3.4646,-3.4461,-3.426,-3.4134,-3.4375,-3.4557,-3.4702,-3.4957,-3.4993,-3.4848,-3.4631,-3.4288,-3.3909,-3.3012,-3.2547,-3.2275,-3.2113,-3.2168,-3.2402,-3.2474,-3.2326,-3.23,-3.2475,-3.277,-3.3123,-3.3526,-3.4309,-3.5278,-3.5573,-3.6016,-3.6571,-3.6516,-3.6178,-3.5901,-3.5803,-3.5693,-3.5564,-3.6469,-3.7308,-3.7755,-3.8601,-3.9003,-3.8892,-3.8104,-3.7542,-3.7428,-3.8286,-3.949,-4.0762,-4.1405,-4.1775,-4.2166,-4.2637,-4.3066,-4.3437,-4.3496,-4.3496,-4.3496,-4.3496,-4.3457,-4.3301,-4.3008,-4.3008,-4.3183,-4.3203,-4.3164,-4.3457,-4.3613,-4.373,-4.3711,-4.3984,-4.4219,-4.4492,-4.4941,-4.5332,-4.5625,-4.5918,-4.6152,-4.625,-4.6133,-4.5958,-4.5714,-4.5534,-4.5294,-4.4464,-4.4309,-4.4096,-4.3662,-4.3717,-4.3793,-4.4343,-4.4801,-4.4966,-4.5077,-4.515,-4.5058,-4.493,-4.4856,-4.4728,-4.4323,-4.3751,-4.2922,-4.1931,-4.1186,-4.0612,-4.0033,-3.9554,-3.8187,-3.6297,-3.5212,-3.4478,-3.4556,-3.4756,-3.4805,-3.4913,-3.5009,-3.4857,-3.4765,-3.4697,-3.5064,-3.5319,-3.5465,-3.5888,-3.6146,-3.6164,-3.5777,-3.5612,-3.5521,-3.5303,-3.4939,-3.4446,-3.3797,-3.3799,-3.3962,-3.3868,-3.3848,-3.3883,-3.4062,-3.4183,-3.4355,-3.4744,-3.5371,-3.609,-3.6349,-3.6812,-3.7568,-3.7495,-3.7426,-3.7237,-3.7254,-3.7129,-3.7024,-3.7773,-3.8465,-3.8669,-3.933,-3.9871,-4.004,-3.9726,-3.9235,-3.8761,-3.949,-4.0372,-4.1133,-4.1699,-4.2148,-4.2461,-4.2969,-4.3437,-4.3672,-4.3672,-4.3691,-4.3691,-4.3691,-4.3691,-4.3613,-4.332,-4.3281,-4.3574,-4.334,-4.3242,-4.3613,-4.3887,-4.3945,-4.3965,-4.4199,-4.4531,-4.4844,-4.5488,-4.5859,-4.5976,-4.6133,-4.6269,-4.6308,-4.6308,-4.6221,-4.5909,-4.5907,-4.5864,-4.4927,-4.4665,-4.4272,-4.3914,-4.3827,-4.414,-4.4545,-4.4911,-4.5205,-4.5425,-4.5608,-4.548,-4.5352,-4.5333,-4.5204,-4.4666,-4.4088,-4.335,-4.2446,-4.1883,-4.1229,-4.0697,-3.9961,-3.8849,-3.7445,-3.6699,-3.5813,-3.4631,-3.4703,-3.5404,-3.5513,-3.5281,-3.5566,-3.5476,-3.5263,-3.5503,-3.5869,-3.6253,-3.657,-3.6996,-3.7236,-3.7068,-3.7049,-3.731,-3.7234,-3.7123,-3.6734,-3.6031,-3.5624,-3.5896,-3.5722,-3.5541,-3.5596,-3.5667,-3.5458,-3.5309,-3.5625,-3.5903,-3.6442,-3.6812,-3.7255,-3.7936,-3.8375,-3.8432,-3.8311,-3.8861,-3.8973,-3.8711,-3.9434,-4.0002,-4.0315,-4.0393,-4.049,-4.0588,-4.0763,-4.0841,-4.0607,-4.0763,-4.1016,-4.1328,-4.1973,-4.2383,-4.2461,-4.3223,-4.3574,-4.3691,-4.3691,-4.3691,-4.3691,-4.3691,-4.3691,-4.3652,-4.334,-4.3242,-4.3633,-4.332,-4.3242,-4.3672,-4.4082,-4.4336,-4.4492,-4.459,-4.4922,-4.5605,-4.6035,-4.6191,-4.625,-4.6289,-4.6308,-4.6308,-4.6308,-4.6308,-4.626,-4.6074,-4.5945,-4.5553,-4.5186,-4.4539,-4.4294,-4.4265,-4.4416,-4.482,-4.5003,-4.5315,-4.5608,-4.5792,-4.5737,-4.5663,-4.5663,-4.5476,-4.4952,-4.4504,-4.378,-4.311,-4.2484,-4.1732,-4.0956,-4.0276,-3.9658,-3.8791,-3.7804,-3.7009,-3.5924,-3.6219,-3.645,-3.6579,-3.6713,-3.6614,-3.6463,-3.6337,-3.6431,-3.6506,-3.6727,-3.7085,-3.7329,-3.7402,-3.7402,-3.7402,-3.7495,-3.7715,-3.7862,-3.7824,-3.7797,-3.7372,-3.7153,-3.701,-3.692,-3.6865,-3.6885,-3.6886,-3.6812,-3.6812,-3.7107,-3.7495,-3.7568,-3.7936,-3.8448,-3.8794,-3.9168,-3.9391,-3.9891,-4.0106,-4.0082,-4.0529,-4.0685,-4.0509,-4.0841,-4.0997,-4.0997,-4.1094,-4.1172,-4.1016,-4.1094,-4.1172,-4.125,-4.1953,-4.2422,-4.2558,-4.3203,-4.3691,-4.3691,-4.3691,-4.3691,-4.3691,-4.3691,-4.3691,-4.3691,-4.332,-4.332,-4.3535,-4.334,-4.3262,-4.3691,-4.416,-4.4629,-4.5234,-4.5293,-4.5508,-4.5976,-4.623,-4.6308,-4.6308,-4.6308,-4.6308,-4.6308,-4.6308,-4.6308,-4.6406,-4.6542,-4.6714,-4.6292,-4.6075,-4.5649,-4.5088,-4.4891,-4.4948,-4.5021,-4.5168,-4.5407,-4.5737,-4.5865,-4.5847,-4.581,-4.581,-4.5546,-4.5151,-4.489,-4.4387,-4.3779,-4.3192,-4.2321,-4.1403,-4.0862,-4.0462,-3.9393,-3.8446,-3.793,-3.6827,-3.7089,-3.721,-3.7321,-3.7383,-3.7356,-3.7188,-3.7042,-3.7042,-3.7188,-3.7318,-3.7509,-3.7789,-3.7936,-3.7916,-3.7916,-3.7916,-3.8155,-3.8228,-3.8302,-3.8409,-3.8263,-3.799,-3.7916,-3.7916,-3.7916,-3.7916,-3.7789,-3.7642,-3.7642,-3.7789,-3.7936,-3.8009,-3.8228,-3.8594,-3.9004,-3.9453,-3.9883,-4.0312,-4.0569,-4.0802,-4.1094,-4.1094,-4.0841,-4.1074,-4.1172,-4.1191,-4.1328,-4.1367,-4.123,-4.1172,-4.1172,-4.125,-4.1973,-4.2402,-4.2461,-4.3223,-4.3691,-4.3691,-4.3691,-4.3691,-4.3691,-4.3691,-4.3691,-4.3672,-4.3457,-4.3496,-4.3613,-4.3457,-4.3594,-4.4004,-4.4551,-4.5195,-4.5781,-4.5937,-4.6035,-4.6289,-4.6289,-4.6308,-4.6308,-4.6308,-4.6308,-4.6308,-4.6308,-4.6387,-4.6582,-4.6914,-4.6951,-4.6888,-4.6901,-4.6694,-4.5994,-4.5537,-4.5464,-4.5353,-4.5407,-4.5517,-4.5828,-4.5883,-4.5883,-4.5883,-4.5883,-4.5695,-4.5412,-4.5223,-4.4939,-4.437,-4.3895,-4.3201,-4.2458,-4.1852,-4.119,-4.0224,-3.9253,-3.8717,-3.7438,-3.7495,-3.7862,-3.7862,-3.7642,-3.7862,-3.7897,-3.7549,-3.7585,-3.7731,-3.799,-3.8082,-3.8228,-3.8574,-3.8428,-3.8574,-3.8574,-3.8574,-3.872,-3.872,-3.8793,-3.872,-3.872,-3.8501,-3.8501,-3.8501,-3.8574,-3.8375,-3.8155,-3.8082,-3.814,-3.8198,-3.8198,-3.8437,-3.8999,-3.9367,-3.9645,-4.0151,-4.0659,-4.1032,-4.1171,-4.1327,-4.1327,-4.1327,-4.123,-4.1308,-4.1426,-4.1621,-4.1719,-4.1348,-4.1308,-4.1387,-4.1465,-4.2109,-4.2461,-4.2656,-4.3324,-4.3793,-4.3793,-4.3793,-4.3856,-4.3856,-4.3774,-4.3793,-4.3856,-4.3817,-4.3735,-4.3856,-4.375,-4.4043,-4.457,-4.5234,-4.5723,-4.6133,-4.6269,-4.6289,-4.6308,-4.6308,-4.6308,-4.6308,-4.6308,-4.6308,-4.6308,-4.6328,-4.6426,-4.6543,-4.6933,-4.7196,-4.7269,-4.7294,-4.7064,-4.6641,-4.6276,-4.5909,-4.5778,-4.5739,-4.5737,-4.5883,-4.5883,-4.5883,-4.5883,-4.5883,-4.5883,-4.5789,-4.5506,-4.5318,-4.4939,-4.4353,-4.3877,-4.3192,-4.2403,-4.1807,-4.1162,-4.0309,-3.9608,-3.7628,-3.7936,-3.8282,-3.8428,-3.8355,-3.8428,-3.8428,-3.8355,-3.8282,-3.8355,-3.8428,-3.8501,-3.8501,-3.8647,-3.8647,-3.8574,-3.872,-3.8938,-3.9228,-3.9498,-3.9498,-3.9425,-3.9281,-3.8938,-3.8647,-3.8647,-3.8647,-3.8574,-3.8521,-3.856,-3.8696,-3.895,-3.9008,-3.9312,-4.0018,-4.0334,-4.069,-4.0963,-4.1529,-4.1768,-4.1656,-4.1695,-4.1695,-4.1618,-4.1618,-4.166,-4.1759,-4.2053,-4.2211,-4.215,-4.2148,-4.2148,-4.2187,-4.2598,-4.2871,-4.3069,-4.3687,-4.4041,-4.3876,-4.4205,-4.4554,-4.4186,-4.4123,-4.437,-4.4636,-4.4041,-4.3958,-4.41,-4.4292,-4.4596,-4.5215,-4.5527,-4.5879,-4.6191,-4.6308,-4.6308,-4.6308,-4.6308,-4.6308,-4.6308,-4.6308,-4.6308,-4.6308,-4.6308,-4.6406,-4.6543,-4.6933,-4.7402,-4.7612,-4.7819,-4.753,-4.7293,-4.6854,-4.6448,-4.6318,-4.6149,-4.5904,-4.5883,-4.5883,-4.5883,-4.5883,-4.5883,-4.5883,-4.5883,-4.5883,-4.5601,-4.5318,-4.4939,-4.4448,-4.3687,-4.2922,-4.2358,-4.1761,-4.102,-4.0394,-3.8069,-3.8282,-3.8501,-3.8574,-3.8574,-3.8574,-3.8574,-3.8647,-3.8812,-3.8865,-3.8885,-3.8865,-3.8938,-3.9063,-3.8938,-3.8938,-3.9136,-3.9301,-3.9518,-3.9642,-3.9714,-3.9714,-3.9642,-3.9353,-3.9156,-3.9156,-3.9136,-3.9136,-3.9123,-3.9155,-3.9372,-3.9736,-3.9766,-4.0112,-4.0709,-4.1203,-4.1363,-4.1463,-4.1975,-4.2293,-4.2082,-4.2082,-4.1927,-4.1773,-4.1638,-4.1601,-4.1817,-4.217,-4.2464,-4.2737,-4.2891,-4.2812,-4.2558,-4.2832,-4.3128,-4.345,-4.3703,-4.4103,-4.4123,-4.4205,-4.4288,-4.4123,-4.4041,-4.4288,-4.4554,-4.4288,-4.4288,-4.4551,-4.4743,-4.498,-4.5652,-4.5918,-4.6094,-4.6211,-4.6308,-4.6308,-4.6308,-4.6308,-4.6308,-4.6308,-4.6308,-4.6308,-4.6308,-4.6308,-4.666,-4.6914,-4.7129,-4.7598,-4.8262,-4.841,-4.8192,-4.788,-4.7288,-4.6971,-4.6878,-4.6616,-4.6129,-4.6072,-4.5883,-4.5883,-4.5883,-4.5883,-4.5883,-4.5883,-4.5883,-4.5789,-4.5601,-4.5318,-4.4939,-4.418,-4.3513,-4.294,-4.2313,-4.1603,-4.107,-3.8516,-3.8574,-3.8574,-3.8574,-3.8574,-3.8574,-3.8574,-3.8647,-3.903,-3.9176,-3.9176,-3.9248,-3.9373,-3.957,-3.9373,-3.9445,-3.9734,-3.9714,-3.9714,-4.0002,-3.9858,-4.0011,-4.0072,-4.0112,-4.0173,-4.004,-3.9775,-3.9682,-3.9645,-3.9832,-3.9963,-4.0418,-4.0514,-4.0888,-4.1364,-4.1661,-4.1943,-4.2023,-4.2439,-4.26,-4.2447,-4.239,-4.2179,-4.1854,-4.1718,-4.1759,-4.213,-4.2463,-4.2815,-4.3226,-4.3598,-4.3363,-4.303,-4.293,-4.3327,-4.3672,-4.3864,-4.4001,-4.4123,-4.4123,-4.4041,-4.3876,-4.3958,-4.4205,-4.4616,-4.4718,-4.4778,-4.51,-4.5314,-4.5509,-4.5856,-4.6035,-4.623,-4.6308,-4.6308,-4.6308,-4.6308,-4.6308,-4.6308,-4.6308,-4.6308,-4.6308,-4.6308,-4.6328,-4.6836,-4.7285,-4.748,-4.7812,-4.8457,-4.8848,-4.859,-4.8312,-4.7848,-4.7289,-4.7196,-4.7102,-4.6635,-4.6259,-4.6072,-4.5978,-4.5978,-4.5883,-4.5883,-4.5883,-4.5883,-4.5883,-4.5789,-4.5601,-4.5129,-4.456,-4.4085,-4.3513,-4.294,-4.2268,-4.1732,-3.8242,-3.8574,-3.8574,-3.8574,-3.8574,-3.8574,-3.8647,-3.8647,-3.9103,-3.9176,-3.9248,-3.9518,-3.9642,-3.9714,-3.9642,-3.9878,-4.0094,-4.0002,-4.0074,-4.0453,-4.0422,-4.0494,-4.0976,-4.1151,-4.1409,-4.1346,-4.0675,-3.9996,-3.9925,-3.981,-4.0469,-4.0893,-4.1036,-4.1519,-4.2388,-4.2785,-4.2744,-4.2724,-4.3096,-4.3136,-4.2927,-4.2681,-4.2359,-4.2072,-4.2131,-4.2447,-4.2878,-4.3234,-4.3652,-4.4047,-4.3837,-4.386,-4.3887,-4.3762,-4.3719,-4.3821,-4.4044,-4.4123,-4.4123,-4.4452,-4.4718,-4.48,-4.4698,-4.5127,-4.5556,-4.5413,-4.5391,-4.5875,-4.6125,-4.6313,-4.6741,-4.6512,-4.6289,-4.6308,-4.6308,-4.6308,-4.6308,-4.6308,-4.6308,-4.6308,-4.6308,-4.6308,-4.6308,-4.6387,-4.6738,-4.7168,-4.7461,-4.7832,-4.8398,-4.873,-4.8848,-4.859,-4.8312,-4.7848,-4.7401,-4.7382,-4.7102,-4.6728,-4.6447,-4.6166,-4.6166,-4.5978,-4.5883,-4.5883,-4.5883,-4.5883,-4.5789,-4.5695,-4.5412,-4.4939,-4.4465,-4.399,-4.3322,-4.2652,-4.2268,-3.8379,-3.8647,-3.8812,-3.8958,-3.8958,-3.9083,-3.9136,-3.9208,-3.959,-3.9734,-3.9806,-3.995,-4.0146,-4.0218,-4.0094,-4.0238,-4.0453,-4.0453,-4.0596,-4.0832,-4.0987,-4.11,-4.1648,-4.1814,-4.2021,-4.203,-4.1428,-4.1012,-4.1109,-4.1151,-4.1379,-4.1852,-4.2079,-4.2495,-4.3096,-4.3269,-4.331,-4.3386,-4.3462,-4.3539,-4.3371,-4.3111,-4.2951,-4.2877,-4.3,-4.334,-4.3698,-4.3877,-4.4259,-4.4598,-4.4452,-4.4554,-4.4554,-4.4554,-4.439,-4.437,-4.4205,-4.437,-4.4534,-4.4882,-4.4698,-4.4964,-4.5066,-4.5432,-4.5902,-4.5861,-4.584,-4.6511,-4.6997,-4.6961,-4.7014,-4.6813,-4.6571,-4.6308,-4.6308,-4.6308,-4.6308,-4.6308,-4.6328,-4.6328,-4.6348,-4.6348,-4.6308,-4.6445,-4.668,-4.7012,-4.7402,-4.7891,-4.8398,-4.8633,-4.8848,-4.8755,-4.859,-4.8219,-4.7848,-4.7755,-4.7569,-4.7196,-4.6728,-4.6541,-4.6259,-4.6072,-4.5978,-4.5883,-4.5883,-4.5883,-4.5883,-4.5789,-4.5506,-4.5223,-4.475,-4.418,-4.3626,-4.3148,-4.2652,-3.872,-3.872,-3.9156,-3.9321,-3.9321,-3.957,-3.9714,-3.9786,-4.0094,-4.0238,-4.031,-4.0402,-4.0596,-4.074,-4.0668,-4.0596,-4.0882,-4.0811,-4.0781,-4.1131,-4.1214,-4.1514,-4.1938,-4.2166,-4.2476,-4.2663,-4.2505,-4.2476,-4.2064,-4.2065,-4.2461,-4.2706,-4.2958,-4.3233,-4.3462,-4.3539,-4.3615,-4.3615,-4.3615,-4.3635,-4.3613,-4.373,-4.3803,-4.3885,-4.3915,-4.406,-4.4422,-4.4482,-4.4704,-4.4945,-4.5046,-4.5046,-4.5127,-4.5046,-4.5046,-4.4964,-4.437,-4.4698,-4.4964,-4.4964,-4.48,-4.5229,-4.5228,-4.5799,-4.627,-4.6516,-4.666,-4.717,-4.7511,-4.7642,-4.7468,-4.7074,-4.6892,-4.6689,-4.6474,-4.6328,-4.6406,-4.6426,-4.6426,-4.6426,-4.6406,-4.6406,-4.6387,-4.6406,-4.6621,-4.7148,-4.7539,-4.8008,-4.8476,-4.8691,-4.8848,-4.8848,-4.8775,-4.8497,-4.8312,-4.8219,-4.8034,-4.7662,-4.7196,-4.6822,-4.6447,-4.6166,-4.6072,-4.5883,-4.5883,-4.5883,-4.5883,-4.5883,-4.5695,-4.5412,-4.4845,-4.4388,-4.4008,-4.3531,-4.3053,-3.9103,-3.9176,-3.9518,-3.9642,-3.9642,-3.9714,-3.9714,-3.9786,-4.0166,-4.031,-4.0382,-4.0668,-4.0811,-4.0882,-4.0903,-4.0882,-4.0832,-4.0812,-4.0997,-4.141,-4.143,-4.1842,-4.2547,-4.2787,-4.3035,-4.3221,-4.3325,-4.2974,-4.2597,-4.2426,-4.2555,-4.2917,-4.3075,-4.3233,-4.3539,-4.3615,-4.3615,-4.3615,-4.3656,-4.3689,-4.3771,-4.4144,-4.4354,-4.4379,-4.4422,-4.4623,-4.4987,-4.5027,-4.521,-4.5495,-4.5209,-4.5209,-4.5454,-4.5209,-4.5291,-4.5372,-4.5209,-4.4882,-4.5127,-4.5046,-4.5127,-4.5617,-4.5943,-4.6455,-4.6866,-4.7567,-4.7897,-4.8147,-4.8346,-4.8229,-4.8007,-4.7528,-4.7292,-4.7109,-4.6826,-4.6729,-4.6719,-4.6582,-4.6582,-4.6777,-4.6855,-4.666,-4.6523,-4.6523,-4.6582,-4.7148,-4.7695,-4.8164,-4.8535,-4.875,-4.8848,-4.8848,-4.8848,-4.8682,-4.859,-4.859,-4.8405,-4.8034,-4.7569,-4.7196,-4.6822,-4.6447,-4.6072,-4.5996,-4.5883,-4.5883,-4.5883,-4.5883,-4.5883,-4.5601,-4.5129,-4.475,-4.437,-4.3912,-4.334,-3.9878,-3.9518,-3.9878,-4.0022,-4.0094,-4.031,-4.0361,-4.0433,-4.0596,-4.0668,-4.0668,-4.0811,-4.0882,-4.0965,-4.111,-4.1276,-4.1317,-4.1358,-4.1606,-4.2,-4.206,-4.2315,-4.2795,-4.318,-4.3491,-4.3532,-4.3594,-4.3415,-4.3118,-4.3022,-4.3166,-4.3269,-4.331,-4.3386,-4.3615,-4.3615,-4.378,-4.4008,-4.4256,-4.4406,-4.4539,-4.481,-4.516,-4.5105,-4.533,-4.5474,-4.5616,-4.5698,-4.5779,-4.6023,-4.5779,-4.5779,-4.5942,-4.5861,-4.5861,-4.5942,-4.5861,-4.5779,-4.5779,-4.5535,-4.5637,-4.5984,-4.6455,-4.6887,-4.7486,-4.8169,-4.8603,-4.8396,-4.8619,-4.8675,-4.8519,-4.827,-4.7929,-4.7678,-4.7326,-4.7278,-4.7179,-4.6836,-4.6816,-4.707,-4.7305,-4.7148,-4.7051,-4.7129,-4.7226,-4.7578,-4.7949,-4.8262,-4.8574,-4.8789,-4.8848,-4.8848,-4.8848,-4.8848,-4.8755,-4.8775,-4.8775,-4.8497,-4.8034,-4.7569,-4.7102,-4.6728,-4.6259,-4.5978,-4.5883,-4.5883,-4.5883,-4.5883,-4.5883,-4.5695,-4.5506,-4.5034,-4.456,-4.399,-4.3322,-4.0668,-4.0146,-4.0382,-4.0525,-4.0617,-4.0811,-4.0954,-4.1025,-4.1099,-4.1048,-4.1161,-4.1193,-4.1255,-4.1276,-4.1586,-4.1804,-4.1845,-4.2177,-4.2311,-4.2518,-4.2745,-4.2952,-4.318,-4.347,-4.3594,-4.3615,-4.3615,-4.3573,-4.3594,-4.3594,-4.3497,-4.3615,-4.3539,-4.3615,-4.3615,-4.3656,-4.3801,-4.4256,-4.4836,-4.5105,-4.525,-4.5623,-4.5809,-4.5874,-4.614,-4.6266,-4.6266,-4.6266,-4.6266,-4.6266,-4.6266,-4.6185,-4.6266,-4.6185,-4.6185,-4.6266,-4.6185,-4.6185,-4.6104,-4.6023,-4.6085,-4.6495,-4.7092,-4.7589,-4.8086,-4.8728,-4.8976,-4.8624,-4.8831,-4.8867,-4.8712,-4.8846,-4.8696,-4.8398,-4.8016,-4.7939,-4.7828,-4.7374,-4.7246,-4.7558,-4.7773,-4.7871,-4.7812,-4.7891,-4.7988,-4.8125,-4.8301,-4.8437,-4.8633,-4.8828,-4.8848,-4.8848,-4.8848,-4.8848,-4.8848,-4.8848,-4.8848,-4.8775,-4.8405,-4.7941,-4.7382,-4.6822,-4.6353,-4.6166,-4.5883,-4.5883,-4.5883,-4.5883,-4.5883,-4.5789,-4.5601,-4.5223,-4.4673,-4.4085,-4.3348,-4.1402,-4.1331,-4.1025,-4.1046,-4.1352,-4.1025,-4.1117,-4.1548,-4.1596,-4.1576,-4.1565,-4.197,-4.2115,-4.2124,-4.2124,-4.2281,-4.2281,-4.2322,-4.2559,-4.2807,-4.2932,-4.318,-4.3408,-4.3553,-4.3615,-4.3615,-4.3615,-4.3615,-4.3615,-4.3615,-4.3615,-4.3615,-4.3615,-4.3615,-4.3677,-4.378,-4.4008,-4.4526,-4.5188,-4.5623,-4.5747,-4.5995,-4.6223,-4.6244,-4.6225,-4.6266,-4.6266,-4.6266,-4.6266,-4.6266,-4.6266,-4.6266,-4.6266,-4.6266,-4.6266,-4.6266,-4.6266,-4.6266,-4.6266,-4.6287,-4.6514,-4.6989,-4.7672,-4.8272,-4.8686,-4.8893,-4.9017,-4.8955,-4.9017,-4.9038,-4.9011,-4.9127,-4.9249,-4.9101,-4.8731,-4.8603,-4.8342,-4.7895,-4.7734,-4.8047,-4.8223,-4.8281,-4.8359,-4.8379,-4.832,-4.8418,-4.8418,-4.8555,-4.8691,-4.8848,-4.8848,-4.8848,-4.8848,-4.8848,-4.8848,-4.8848,-4.8848,-4.8867,-4.859,-4.8034,-4.7476,-4.7009,-4.6635,-4.6166,-4.5883,-4.5883,-4.5883,-4.5883,-4.5883,-4.5883,-4.5695,-4.5336,-4.4768,-4.4103,-4.3357,-4.233,-4.2515,-4.2158,-4.1943,-4.1964,-4.2015,-4.2111,-4.2312,-4.2355,-4.2293,-4.2094,-4.246,-4.2543,-4.2405,-4.258,-4.2663,-4.2704,-4.2994,-4.3159,-4.3284,-4.3387,-4.347,-4.3594,-4.3615,-4.3615,-4.3615,-4.3615,-4.3615,-4.3615,-4.3691,-4.3615,-4.3615,-4.3691,-4.3615,-4.3698,-4.4112,-4.4505,-4.4877,-4.5561,-4.6078,-4.6119,-4.6202,-4.6266,-4.6266,-4.6266,-4.6266,-4.6266,-4.6266,-4.6266,-4.6266,-4.6266,-4.6266,-4.6266,-4.6266,-4.6266,-4.6266,-4.6266,-4.6287,-4.6308,-4.6349,-4.6678,-4.7403,-4.8024,-4.8562,-4.9017,-4.9059,-4.9059,-4.9059,-4.908,-4.9207,-4.9142,-4.9527,-4.9929,-4.9651,-4.9469,-4.9362,-4.893,-4.839,-4.8216,-4.8398,-4.8555,-4.8652,-4.873,-4.8789,-4.8711,-4.8672,-4.8652,-4.8652,-4.8769,-4.8848,-4.8848,-4.8848,-4.8848,-4.8848,-4.8848,-4.8848,-4.8848,-4.8775,-4.8682,-4.8127,-4.7569,-4.7401,-4.7028,-4.6372,-4.5883,-4.5883,-4.5883,-4.5883,-4.5883,-4.5883,-4.5789,-4.5525,-4.4863,-4.4198,-4.3452,-4.2991,-4.3292,-4.3157,-4.2933,-4.2788,-4.2933,-4.3031,-4.3182,-4.3278,-4.3131,-4.2865,-4.3183,-4.3034,-4.282,-4.2952,-4.3118,-4.3201,-4.3387,-4.3532,-4.3573,-4.3573,-4.3615,-4.3615,-4.3767,-4.3843,-4.3843,-4.3919,-4.3995,-4.405,-4.3995,-4.4071,-4.405,-4.3898,-4.3919,-4.3822,-4.4484,-4.5043,-4.5374,-4.5871,-4.6246,-4.6326,-4.6266,-4.6266,-4.6266,-4.6266,-4.6266,-4.6266,-4.6266,-4.6266,-4.6266,-4.6266,-4.6266,-4.6266,-4.6266,-4.6266,-4.6266,-4.6266,-4.6328,-4.6452,-4.6761,-4.7092,-4.7838,-4.8334,-4.8748,-4.8976,-4.9059,-4.9059,-4.91,-4.9162,-4.9352,-4.9328,-4.9965,-5.0249,-5.0148,-5.0303,-5.0086,-4.9551,-4.8997,-4.881,-4.8822,-4.8901,-4.8828,-4.8828,-4.8848,-4.8828,-4.8769,-4.875,-4.875,-4.8789,-4.8848,-4.8848,-4.8848,-4.8848,-4.8848,-4.8848,-4.8848,-4.8848,-4.8848,-4.8682,-4.8219,-4.7848,-4.7588,-4.7028,-4.6278,-4.5883,-4.5883,-4.5883,-4.5883,-4.5883,-4.5883,-4.5789,-4.5619,-4.5034,-4.4353,-4.3677,-4.3292,-4.3357,-4.381,-4.4004,-4.3953,-4.3619,-4.3662,-4.3979,-4.408,-4.4071,-4.4012,-4.413,-4.3903,-4.3622,-4.3622,-4.3622,-4.3566,-4.3649,-4.3767,-4.3843,-4.3767,-4.3691,-4.3843,-4.4071,-4.4125,-4.4277,-4.4428,-4.4579,-4.4654,-4.4579,-4.4579,-4.4782,-4.4715,-4.4445,-4.3815,-4.4526,-4.5188,-4.5664,-4.6119,-4.6204,-4.6266,-4.6266,-4.6266,-4.6266,-4.6266,-4.6266,-4.6266,-4.6266,-4.6266,-4.6266,-4.6266,-4.6266,-4.6266,-4.6266,-4.6266,-4.6266,-4.6308,-4.6535,-4.701,-4.7424,-4.7817,-4.821,-4.8624,-4.8955,-4.9038,-4.9059,-4.9142,-4.9224,-4.9518,-4.9746,-5.0011,-5.0446,-5.0523,-5.0579,-5.0625,-5.0459,-4.9924,-4.9437,-4.9229,-4.892,-4.894,-4.8848,-4.8848,-4.8848,-4.8848,-4.8848,-4.8848,-4.8848,-4.8848,-4.8848,-4.8848,-4.8848,-4.8848,-4.8848,-4.8848,-4.8848,-4.8848,-4.8848,-4.8663,-4.8312,-4.7848,-4.7495,-4.6934,-4.6072,-4.5883,-4.5883,-4.5883,-4.5883,-4.5883,-4.5883,-4.5883,-4.5695,-4.5129,-4.4637,-4.3884,-4.4112,-4.4627,-4.4779,-4.5018,-4.5235,-4.4901,-4.4798,-4.4931,-4.4955,-4.4806,-4.4708,-4.488,-4.4805,-4.4504,-4.4352,-4.4201,-4.405,-4.4352,-4.4428,-4.4352,-4.4146,-4.4654,-4.4826,-4.4588,-4.4642,-4.4826,-4.4977,-4.5019,-4.4805,-4.5137,-4.5157,-4.523,-4.5638,-4.5264,-4.4761,-4.4946,-4.5229,-4.5685,-4.6078,-4.6266,-4.6266,-4.6347,-4.6347,-4.6347,-4.6347,-4.6266,-4.6266,-4.6266,-4.6266,-4.6266,-4.6266,-4.6266,-4.6266,-4.6266,-4.6266,-4.6349,-4.6493,-4.7175,-4.7693,-4.8107,-4.8189,-4.8479,-4.8769,-4.9059,-4.9059,-4.9059,-4.9224,-4.9473,-4.9721,-4.9949,-5.0259,-5.0715,-5.0812,-5.0647,-5.0579,-5.0437,-4.9975,-4.972,-4.94,-4.9032,-4.8848,-4.8848,-4.8848,-4.8848,-4.8848,-4.8848,-4.8848,-4.8848,-4.8848,-4.8848,-4.8848,-4.8848,-4.8848,-4.8848,-4.8848,-4.8848,-4.8848,-4.8848,-4.8775,-4.8405,-4.7941,-4.7495,-4.6841,-4.6072,-4.5978,-4.5883,-4.5883,-4.5883,-4.5883,-4.5883,-4.5883,-4.5789,-4.5318,-4.475,-4.4163,-4.529,-4.6033,-4.5698,-4.5866,-4.6307,-4.6117,-4.5962,-4.6055,-4.6002,-4.563,-4.5181,-4.5256,-4.5181,-4.488,-4.4805,-4.473,-4.4428,-4.4805,-4.4654,-4.4697,-4.4715,-4.506,-4.533,-4.5491,-4.5857,-4.6106,-4.6408,-4.6451,-4.6441,-4.6376,-4.6604,-4.6779,-4.6776,-4.672,-4.6279,-4.611,-4.5657,-4.5993,-4.6264,-4.6428,-4.6428,-4.6428,-4.6428,-4.6428,-4.6428,-4.6266,-4.6266,-4.6266,-4.6266,-4.6266,-4.6266,-4.6266,-4.6266,-4.6266,-4.6266,-4.639,-4.6968,-4.7568,-4.8127,-4.8562,-4.8603,-4.8686,-4.8935,-4.9038,-4.9121,-4.9245,-4.9452,-4.9701,-4.999,-5.0322,-5.0653,-5.1108,-5.1108,-5.0874,-5.0909,-5.0789,-5.0276,-5.0004,-4.9879,-4.94,-4.9124,-4.9032,-4.9032,-4.8848,-4.8848,-4.8848,-4.8848,-4.894,-4.894,-4.894,-4.8848,-4.8848,-4.8848,-4.8848,-4.8848,-4.8848,-4.8848,-4.8848,-4.8682,-4.8497,-4.7941,-4.7401,-4.6747,-4.6166,-4.5978,-4.5883,-4.5883,-4.5883,-4.5883,-4.5883,-4.5883,-4.5695,-4.5412,-4.4939,-4.4275,-4.6951,-4.7402,-4.6544,-4.65,-4.7112,-4.7141,-4.7186,-4.7134,-4.7038,-4.6374,-4.548,-4.548,-4.5405,-4.5031,-4.4977,-4.5191,-4.5406,-4.5706,-4.5599,-4.5233,-4.5684,-4.5998,-4.6322,-4.6615,-4.7116,-4.8053,-4.8432,-4.8306,-4.8673,-4.8552,-4.8597,-4.8557,-4.8354,-4.8146,-4.7723,-4.7169,-4.6611,-4.6563,-4.6447,-4.661,-4.6751,-4.659,-4.667,-4.667,-4.659,-4.6347,-4.6266,-4.6266,-4.6266,-4.6266,-4.6266,-4.6266,-4.6266,-4.6266,-4.6266,-4.6637,-4.7299,-4.79,-4.8417,-4.8831,-4.8935,-4.8935,-4.9017,-4.9059,-4.9162,-4.9411,-4.968,-4.999,-5.0322,-5.0756,-5.126,-5.1384,-5.1598,-5.1598,-5.166,-5.128,-5.0736,-5.0428,-5.0327,-4.9951,-4.9676,-4.9492,-4.9584,-4.9492,-4.9584,-4.9676,-4.9676,-4.9308,-4.9308,-4.894,-4.894,-4.8848,-4.8848,-4.8848,-4.8848,-4.8848,-4.8848,-4.8848,-4.8848,-4.859,-4.7941,-4.7401,-4.6916,-4.6447,-4.6072,-4.5883,-4.5883,-4.5883,-4.5883,-4.5883,-4.5883,-4.5883,-4.5601,-4.5034,-4.4465,-4.766,-4.8098,-4.7799,-4.7479,-4.7281,-4.7794,-4.7721,-4.7208,-4.6596,-4.6077,-4.5853,-4.5853,-4.612,-4.647,-4.695,-4.7135,-4.7611,-4.8164,-4.8419,-4.8133,-4.7399,-4.8093,-4.8356,-4.8338,-4.8611,-4.9163,-4.9615,-4.9834,-4.9609,-4.9867,-4.9638,-4.9224,-4.9756,-4.9485,-4.8793,-4.8251,-4.7725,-4.7251,-4.6912,-4.6933,-4.7014,-4.6832,-4.6933,-4.6912,-4.659,-4.6347,-4.6266,-4.6266,-4.6266,-4.6266,-4.6266,-4.6266,-4.6266,-4.6287,-4.6492,-4.7299,-4.7879,-4.8376,-4.879,-4.8997,-4.9059,-4.9144,-4.9144,-4.9059,-4.929,-4.9601,-4.9995,-5.0393,-5.0767,-5.1271,-5.1741,-5.1998,-5.2108,-5.2198,-5.2282,-5.2102,-5.1577,-5.1391,-5.1186,-5.0864,-5.0499,-5.0479,-5.0479,-5.0661,-5.0752,-5.0661,-5.0408,-5.0042,-4.9584,-4.9216,-4.894,-4.8848,-4.8848,-4.8848,-4.8848,-4.8848,-4.8848,-4.8848,-4.8848,-4.8682,-4.8034,-4.7495,-4.7102,-4.6635,-4.6072,-4.5883,-4.5883,-4.5883,-4.5883,-4.5883,-4.5883,-4.5883,-4.5789,-4.5223,-4.4673,-4.8726,-4.9173,-4.8618,-4.8305,-4.8209,-4.8305,-4.8232,-4.7991,-4.7603,-4.7259,-4.6987,-4.7165,-4.7477,-4.7959,-4.8417,-4.8815,-4.9062,-4.9468,-4.968,-4.9103,-4.9322,-4.967,-4.9889,-4.995,-5.0209,-5.0694,-5.1071,-5.1338,-5.0943,-5.0954,-5.0903,-5.0872,-5.137,-5.0565,-4.9864,-4.9349,-4.8842,-4.8071,-4.7554,-4.7335,-4.7255,-4.7153,-4.7174,-4.7234,-4.6751,-4.6347,-4.6347,-4.6347,-4.6266,-4.6266,-4.6266,-4.6266,-4.6328,-4.6432,-4.6865,-4.7589,-4.8065,-4.8541,-4.8914,-4.9038,-4.9059,-4.9144,-4.923,-4.9526,-4.9797,-5.0151,-5.0617,-5.1019,-5.1417,-5.1883,-5.2292,-5.255,-5.2644,-5.2737,-5.2796,-5.2924,-5.2655,-5.2476,-5.2159,-5.184,-5.1659,-5.1659,-5.1659,-5.184,-5.1659,-5.1297,-5.0843,-5.0297,-4.9768,-4.9308,-4.9032,-4.8848,-4.8848,-4.8848,-4.8848,-4.8848,-4.8775,-4.8775,-4.8848,-4.859,-4.8034,-4.7588,-4.7102,-4.6541,-4.6072,-4.5978,-4.5883,-4.5883,-4.5883,-4.5883,-4.5883,-4.5883,-4.5789,-4.5318,-4.4845,-5.0033,-5.0554,-4.9124,-4.8957,-4.9437,-4.8884,-4.8957,-4.9604,-4.9507,-4.9147,-4.8561,-4.8832,-4.9015,-4.9324,-4.9835,-5.0215,-5.0508,-5.0947,-5.0988,-4.9707,-5.0467,-5.0954,-5.1192,-5.1317,-5.1499,-5.2418,-5.2745,-5.2509,-5.257,-5.2342,-5.2242,-5.2588,-5.236,-5.1593,-5.0666,-5.0042,-4.9258,-4.8331,-4.7794,-4.7474,-4.7693,-4.7554,-4.7314,-4.7693,-4.7052,-4.6347,-4.6347,-4.6347,-4.6266,-4.6266,-4.6266,-4.6266,-4.6493,-4.6865,-4.732,-4.7859,-4.8356,-4.873,-4.9041,-4.9144,-4.9144,-4.923,-4.9422,-4.9887,-5.0288,-5.0626,-5.0965,-5.1495,-5.1984,-5.2411,-5.2843,-5.3021,-5.3024,-5.3309,-5.3547,-5.3612,-5.3523,-5.3344,-5.3098,-5.2851,-5.2851,-5.2761,-5.2761,-5.294,-5.2919,-5.2201,-5.1297,-5.0752,-5.0114,-4.9584,-4.9124,-4.8848,-4.8848,-4.8848,-4.8848,-4.8848,-4.8682,-4.8682,-4.8682,-4.8682,-4.8219,-4.7662,-4.7009,-4.6541,-4.6166,-4.5978,-4.5883,-4.5883,-4.5883,-4.5883,-4.5883,-4.5883,-4.5695,-4.5412,-4.5129,-5.0554,-5.0625,-4.9675,-4.9652,-5.027,-4.9604,-4.9675,-5.0436,-5.0843,-5.0241,-4.9195,-4.9163,-4.9711,-5.0624,-5.1166,-5.1648,-5.2166,-5.2356,-5.2767,-5.2292,-5.2306,-5.2131,-5.24,-5.2342,-5.2664,-5.2992,-5.3295,-5.3446,-5.3143,-5.3068,-5.2916,-5.2612,-5.2459,-5.1924,-5.0743,-5.0042,-4.9415,-4.8331,-4.8172,-4.7773,-4.7773,-4.7693,-4.7613,-4.7533,-4.6891,-4.667,-4.659,-4.6509,-4.6428,-4.6266,-4.6266,-4.6452,-4.6865,-4.7299,-4.7901,-4.8609,-4.8837,-4.9213,-4.9424,-4.9401,-4.9144,-4.923,-4.9549,-5.0207,-5.0611,-5.0908,-5.142,-5.2017,-5.2531,-5.3027,-5.3397,-5.3421,-5.3488,-5.3969,-5.421,-5.4298,-5.4298,-5.4121,-5.4032,-5.3943,-5.3854,-5.3833,-5.3833,-5.3833,-5.401,-5.3298,-5.2201,-5.1388,-5.0661,-5.0022,-4.9124,-4.8848,-4.8848,-4.8848,-4.8848,-4.8867,-4.8682,-4.8497,-4.8497,-4.8497,-4.8405,-4.7662,-4.6916,-4.6635,-4.6259,-4.6072,-4.5883,-4.5883,-4.5883,-4.5883,-4.5883,-4.5883,-4.5883,-4.5695,-4.5412,-5.0696,-5.0625,-5.0246,-5.0246,-5.0554,-5.0246,-5.0317,-5.0721,-5.1249,-5.1176,-5.0684,-5.0798,-5.1279,-5.2003,-5.2529,-5.2818,-5.3437,-5.3654,-5.3552,-5.3473,-5.3446,-5.3271,-5.3295,-5.3219,-5.3295,-5.3521,-5.3672,-5.3672,-5.3446,-5.3446,-5.3295,-5.3068,-5.2764,-5.2077,-5.0821,-5.0277,-4.9573,-4.8331,-4.849,-4.8331,-4.8012,-4.7933,-4.8012,-4.7853,-4.7533,-4.7132,-4.7052,-4.6993,-4.6832,-4.6694,-4.6635,-4.672,-4.7216,-4.788,-4.8651,-4.9217,-4.9554,-4.9891,-4.9997,-4.9827,-4.9401,-4.9486,-4.9486,-5.0123,-5.1208,-5.1593,-5.2153,-5.2735,-5.3492,-5.4036,-5.408,-5.4125,-5.4125,-5.4432,-5.4475,-5.4475,-5.4475,-5.4475,-5.4387,-5.4387,-5.4387,-5.4387,-5.4298,-5.4298,-5.4188,-5.3366,-5.2381,-5.1388,-5.0752,-5.0114,-4.94,-4.8848,-4.8848,-4.8848,-4.8848,-4.8867,-4.8775,-4.859,-4.8312,-4.8127,-4.7941,-4.7382,-4.6916,-4.6541,-4.6259,-4.5978,-4.5883,-4.5883,-4.5883,-4.5883,-4.5883,-4.5883,-4.5883,-4.5883,-4.5695,-5.0696,-5.0696,-5.0696,-5.0696,-5.0696,-5.0696,-5.0768,-5.0912,-5.1369,-5.1898,-5.2257,-5.276,-5.3125,-5.3341,-5.3582,-5.3726,-5.3822,-5.3798,-5.3822,-5.3822,-5.3747,-5.3672,-5.3672,-5.3747,-5.3747,-5.3672,-5.3747,-5.3822,-5.3747,-5.3747,-5.3747,-5.3747,-5.3422,-5.2892,-5.1847,-5.1076,-5.0277,-4.9337,-4.9122,-4.8965,-4.8727,-4.841,-4.841,-4.8331,-4.8092,-4.7672,-4.7672,-4.7533,-4.7373,-4.7161,-4.7006,-4.736,-4.7775,-4.863,-4.9258,-4.9848,-5.0272,-5.0548,-5.076,-5.0231,-4.9912,-4.9742,-4.9742,-5.0335,-5.1508,-5.2196,-5.2758,-5.3496,-5.4259,-5.4543,-5.4587,-5.463,-5.4652,-5.4652,-5.4652,-5.4652,-5.4652,-5.4652,-5.4652,-5.4652,-5.4652,-5.4652,-5.4652,-5.4652,-5.401,-5.3187,-5.2291,-5.1388,-5.0479,-4.9839,-4.9124,-4.8848,-4.8848,-4.8848,-4.8848,-4.8867,-4.8775,-4.859,-4.8312,-4.796,-4.7588,-4.7308,-4.7009,-4.6635,-4.6353,-4.6072,-4.5978,-4.5883,-4.5883,-4.5883,-4.5883,-4.5883,-4.5883,-4.5883,-4.5883,-5.0696,-5.0696,-5.0696,-5.0696,-5.0696,-5.072,-5.0936,-5.1393,-5.1971,-5.2427,-5.2982,-5.3389,-5.3678,-5.3678,-5.375,-5.3822,-5.3822,-5.3822,-5.3822,-5.3822,-5.3822,-5.3822,-5.3822,-5.3822,-5.3822,-5.3822,-5.3822,-5.3822,-5.3822,-5.3822,-5.3822,-5.3822,-5.312,-5.2436,-5.1516,-5.0898,-5.0432,-4.9808,-4.9886,-4.9964,-5.0065,-4.9516,-4.841,-4.8172,-4.7933,-4.7933,-4.7933,-4.7773,-4.7394,-4.714,-4.7273,-4.8084,-4.8774,-4.9508,-5.0119,-5.0606,-5.0948,-5.1054,-5.1013,-5.0569,-5.0231,-4.9997,-5.0188,-5.0697,-5.1702,-5.2282,-5.3018,-5.4062,-5.4543,-5.4456,-5.4499,-5.4609,-5.4652,-5.4652,-5.4652,-5.4475,-5.4298,-5.4475,-5.4564,-5.4564,-5.4564,-5.4564,-5.4652,-5.4276,-5.3544,-5.265,-5.1569,-5.0661,-5.0114,-4.9492,-4.894,-4.894,-4.894,-4.8848,-4.8848,-4.8848,-4.8775,-4.859,-4.8312,-4.7941,-4.7588,-4.7401,-4.7102,-4.6822,-4.6541,-4.6259,-4.6166,-4.5978,-4.5883,-4.5883,-4.5883,-4.5883,-4.5883,-4.5883,-4.5883]},{"header":{"parameterUnit":"m.s-1","parameterCategory":1,"la1":31.0,"la2":29.5877,"lo1":-88.7671,"lo2":-86.6584,"dx":0.0162,"dy":0.0185,"nx":115,"ny":88,"refTime":"2022-12-29T06:00:00:Z","depth":0,"parameterNumber":3,"parameterNumberName":"V-component_of_WINDS"},"data":[0.0,0.0,0.0,0.0,0.0,0.0,0.0,0.0,0.0,0.0,0.0,0.0,0.0,0.0,0.0,0.0,0.0,0.0,0.0,0.0,0.0,0.0,0.0,0.0,0.0,0.0,0.0,0.0,0.0,0.0,0.0,0.0,0.0,0.0,0.0,0.0,0.0,0.0,0.0,0.0,0.0,0.0,0.0,0.0,0.0,0.0,0.0,0.0,0.0,0.0,0.0,0.0,0.0,0.0,0.0,0.0,0.0,0.0,0.0,0.0,0.0,0.0,0.0,0.0,0.0,0.0,0.0,0.0,0.0,0.0,0.0,0.0,0.0,0.0,0.0,0.0,0.0,0.0,0.0,0.0,0.0,0.0,0.0,0.0,0.0,0.0,0.0,0.0,0.0,0.0,0.0,0.0,0.0,0.0,0.0,0.0,0.0,0.0,0.0,0.0,0.0,0.0,0.0,0.0,0.0,0.0,0.0,0.0,0.0,0.0,0.0,0.0,0.0,0.0,0.0,0.0,0.0,0.0,0.0,0.0,0.0,0.0,0.0,0.0,0.0,0.0,0.0,0.0,0.0,0.0,0.0,0.0,0.0,0.0,0.0,0.0,0.0,0.0,0.0,0.0,0.0,0.0,0.0,0.0,0.0,0.0,0.0,0.0,0.0,0.0,0.0,0.0,0.0,0.0,0.0,0.0,0.0,0.0,0.0,0.0,0.0,0.0,0.0,0.0,0.0,0.0,0.0,0.0,0.0,0.0,0.0,0.0,0.0,0.0,0.0,0.0,0.0,0.0,0.0,0.0,0.0,0.0,0.0,0.0,0.0,0.0,0.0,0.0,0.0,0.0,0.0,0.0,0.0,0.0,0.0,0.0,0.0,0.0,0.0,0.0,0.0,0.0,0.0,0.0,0.0,0.0,0.0,0.0,0.0,0.0,0.0,0.0,0.0,0.0,0.0,0.0,0.0,0.0,0.0,0.0,0.0,0.0,0.0,0.0,0.0,0.0,0.0,0.0,0.0,0.0,0.0,0.0,0.0,0.0,0.0,0.0,0.0,0.0,0.0,0.0,0.0,0.0,0.0,0.0,0.0,0.0,0.0,0.0,0.0,0.0,0.0,0.0,0.0,0.0,0.0,0.0,0.0,0.0,0.0,0.0,0.0,0.0,0.0,0.0,0.0,0.0,0.0,0.0,0.0,0.0,0.0,0.0,0.0,0.0,0.0,0.0,0.0,0.0,0.0,0.0,0.0,0.0,0.0,0.0,0.0,0.0,0.0,0.0,0.0,0.0,0.0,0.0,0.0,0.0,0.0,0.0,0.0,0.0,0.0,0.0,0.0,0.0,0.0,0.0,0.0,0.0,0.0,0.0,0.0,0.0,0.0,0.0,0.0,0.0,0.0,0.0,0.0,0.0,0.0,0.0,0.0,0.0,0.0,0.0,0.0,0.0,0.0,0.0,0.0,0.0,0.0,0.0,0.0,0.0,0.0,0.0,0.0,0.0,0.0,0.0,0.0,0.0,0.0,0.0,0.0,0.0,0.0,0.0,0.0,0.0,0.0,0.0,0.0,0.0,0.0,0.0,0.0,0.0,0.0,0.0,0.0,0.0,0.0,0.0,0.0,0.0,0.0,0.0,0.0,0.0,0.0,0.0,0.0,0.0,0.0,0.0,0.0,0.0,0.0,0.0,0.0,0.0,0.0,0.0,0.0,0.0,0.0,0.0,0.0,0.0,0.0,0.0,0.0,0.0,0.0,0.0,0.0,0.0,0.0,0.0,0.0,0.0,0.0,0.0,0.0,0.0,0.0,0.0,0.0,0.0,0.0,0.0,0.0,0.0,0.0,0.0,0.0,0.0,0.0,0.0,0.0,0.0,0.0,0.0,0.0,0.0,0.0,0.0,0.0,0.0,0.0,0.0,0.0,0.0,0.0,0.0,0.0,0.0,0.0,0.0,0.0,0.0,0.0,0.0,0.0,0.0,0.0,0.0,0.0,0.0,0.0,0.0,0.0,0.0,0.0,0.0,0.0,0.0,0.0,0.0,0.0,0.0,0.0,0.0,0.0,0.0,0.0,0.0,0.0,0.0,0.0,0.0,0.0,0.0,0.0,0.0,0.0,0.0,0.0,0.0,0.0,0.0,0.0,0.0,0.0,0.0,0.0,0.0,0.0,0.0,0.0,0.0,0.0,0.0,0.0,0.0,0.0,0.0,0.0,0.0,0.0,0.0,0.0,0.0,0.0,0.0,0.0,0.0,0.0,0.0,0.0,0.0,0.0,0.0,0.0,0.0,0.0,0.0,0.0,0.0,0.0,0.0,0.0,0.0,0.0,0.0,0.0,0.0,0.0,0.0,0.0,0.0,0.0,0.0,0.0,0.0,0.0,0.0,0.0,0.0,0.0,0.0,0.0,0.0,0.0,0.0,0.0,0.0,0.0,0.0,0.0,0.0,0.0,0.0,0.0,0.0,0.0,0.0,0.0,0.0,0.0,0.0,0.0,0.0,0.0,0.0,0.0,0.0,0.0,0.0,0.0,0.0,0.0,0.0,0.0,0.0,0.0,0.0,0.0,0.0,0.0,0.0,0.0,0.0,0.0,0.0,0.0,0.0,0.0,0.0,0.0,0.0,0.0,0.0,0.0,0.0,0.0,0.0,0.0,0.0,0.0,0.0,0.0,0.0,0.0,0.0,0.0,0.0,0.0,0.0,0.0,0.0,0.0,0.0,0.0,0.0,0.0,0.0,0.0,0.0,0.0,0.0,0.0,0.0,0.0,0.0,0.0,0.0,0.0,0.0,0.0,0.0,0.0,0.0,0.0,0.0,0.0,0.0,0.0,0.0,0.0,0.0,0.0,0.0,0.0,0.0,0.0,0.0,0.0,0.0,0.0,0.0,0.0,0.0,0.0,0.0,0.0,0.0,0.0,0.0,0.0,0.0,0.0,0.0,0.0,0.0,0.0,0.0,0.0,0.0,0.0,0.0,0.0,0.0,0.0,0.0,0.0,0.0,0.0,0.0,0.0,0.0,0.0,0.0,0.0,0.0,0.0,0.0,0.0,0.0,0.0,0.0,0.0,0.0,0.0,0.0,0.0,0.0,0.0,0.0,0.0,0.0,0.0,0.0,0.0,0.0,0.0,0.0,0.0,0.0,0.0,0.0,0.0,0.0,0.0,0.0,0.0,0.0,0.0,0.0,0.0,0.0,0.0,0.0,0.0,0.0,0.0,0.0,0.0,0.0,0.0,0.0,0.0,0.0,0.0,0.0,0.0,0.0,0.0,0.0,0.0,0.0,0.0,0.0,0.0,0.0,0.0,0.0,0.0,0.0,0.0,0.0,0.0,0.0,0.0,0.0,0.0,0.0,0.0,0.0,0.0,0.0,0.0,0.0,0.0,0.0,0.0,0.0,0.0,0.0,0.0,0.0,0.0,0.0,0.0,0.0,0.0,0.0,0.0,0.0,0.0,0.0,0.0,0.0,0.0,0.0,0.0,0.0,0.0,0.0,0.0,0.0,0.0,0.0,0.0,0.0,0.0,0.0,0.0,0.0,0.0,0.0,0.0,0.0,0.0,0.0,0.0,0.0,0.0,0.0,0.0,0.0,0.0,0.0,0.0,0.0,0.0,0.0,0.0,0.0,0.0,0.0,0.0,0.0,0.0,0.0,0.0,0.0,0.0,0.0,0.0,0.0,0.0,0.0,0.0,0.0,0.0,0.0,0.0,0.0,0.0,0.0,0.0,0.0,0.0,0.0,0.0,0.0,0.0,0.0,0.0,0.0,0.0,0.0,0.0,0.0,0.0,0.0,0.0,0.0,0.0,0.0,0.0,0.0,0.0,0.0,0.0,0.0,0.0,0.0,0.0,0.0,0.0,0.0,0.0,0.0,0.0,0.0,0.0,0.0,0.0,0.0,0.0,0.0,0.0,0.0,0.0,0.0,0.0,0.0,0.0,0.0,0.0,0.0,0.0,0.0,0.0,0.0,0.0,0.0,0.0,0.0,0.0,0.0,0.0,0.0,0.0,0.0,0.0,0.0,0.0,0.0,0.0,0.0,0.0,0.0,0.0,0.0,0.0,0.0,0.0,0.0,0.0,0.0,0.0,0.0,0.0,0.0,0.0,0.0,0.0,0.0,0.0,0.0,0.0,0.0,0.0,0.0,0.0,0.0,0.0,0.0,0.0,0.0,0.0,0.0,0.0,0.0,0.0,0.0,0.0,0.0,0.0,0.0,0.0,0.0,0.0,0.0,0.0,0.0,0.0,0.0,2.8927,0.0,0.0,0.0,2.7631,0.0,0.0,0.0,0.0,0.0,0.0,0.0,0.0,0.0,0.0,0.0,0.0,0.0,0.0,0.0,0.0,0.0,0.0,0.0,0.0,0.0,0.0,0.0,0.0,0.0,0.0,0.0,0.0,0.0,0.0,0.0,0.0,0.0,0.0,0.0,0.0,0.0,0.0,0.0,0.0,0.0,0.0,0.0,0.0,0.0,0.0,0.0,0.0,0.0,0.0,0.0,0.0,0.0,0.0,0.0,0.0,0.0,0.0,0.0,0.0,0.0,0.0,0.0,0.0,0.0,0.0,0.0,0.0,0.0,0.0,0.0,0.0,0.0,0.0,0.0,0.0,0.0,0.0,0.0,0.0,0.0,0.0,0.0,0.0,0.0,0.0,0.0,0.0,0.0,0.0,0.0,0.0,0.0,0.0,0.0,0.0,0.0,0.0,0.0,0.0,0.0,0.0,0.0,0.0,0.0,0.0,0.0,0.0,0.0,0.0,2.8975,2.8952,2.8917,2.8528,2.77,0.0,0.0,0.0,0.0,0.0,0.0,0.0,0.0,0.0,0.0,0.0,0.0,0.0,0.0,0.0,0.0,0.0,0.0,0.0,0.0,0.0,0.0,0.0,0.0,0.0,0.0,0.0,0.0,0.0,0.0,0.0,0.0,0.0,0.0,0.0,0.0,0.0,0.0,0.0,0.0,0.0,0.0,0.0,0.0,0.0,0.0,0.0,0.0,0.0,0.0,0.0,0.0,0.0,0.0,0.0,0.0,0.0,0.0,0.0,0.0,0.0,0.0,0.0,0.0,0.0,0.0,0.0,0.0,0.0,0.0,0.0,0.0,0.0,0.0,0.0,0.0,0.0,0.0,0.0,0.0,0.0,0.0,0.0,0.0,0.0,0.0,0.0,0.0,0.0,0.0,0.0,0.0,0.0,0.0,0.0,0.0,0.0,0.0,0.0,0.0,0.0,0.0,0.0,0.0,0.0,0.0,0.0,0.0,0.0,0.0,0.0,0.0,2.894,2.8636,2.8013,0.0,0.0,0.0,0.0,0.0,0.0,0.0,0.0,0.0,0.0,0.0,0.0,0.0,0.0,0.0,0.0,0.0,0.0,0.0,0.0,0.0,0.0,0.0,0.0,0.0,0.0,0.0,0.0,0.0,0.0,0.0,0.0,0.0,0.0,0.0,0.0,0.0,0.0,0.0,0.0,0.0,0.0,0.0,0.0,0.0,0.0,0.0,0.0,0.0,0.0,0.0,0.0,0.0,0.0,0.0,0.0,0.0,0.0,0.0,0.0,0.0,0.0,0.0,0.0,0.0,0.0,0.0,0.0,0.0,0.0,0.0,0.0,0.0,0.0,0.0,0.0,0.0,0.0,0.0,0.0,0.0,0.0,0.0,0.0,0.0,0.0,0.0,0.0,0.0,0.0,0.0,0.0,0.0,0.0,0.0,0.0,0.0,0.0,0.0,0.0,0.0,0.0,0.0,0.0,0.0,0.0,0.0,0.0,0.0,0.0,2.8987,2.8987,2.9012,0.0,2.8902,0.0,0.0,0.0,0.0,0.0,0.0,0.0,0.0,0.0,0.0,0.0,0.0,0.0,0.0,0.0,0.0,0.0,0.0,0.0,0.0,0.0,0.0,0.0,0.0,0.0,0.0,0.0,0.0,0.0,0.0,0.0,0.0,0.0,0.0,0.0,0.0,0.0,0.0,0.0,0.0,0.0,0.0,0.0,0.0,0.0,0.0,0.0,0.0,0.0,0.0,0.0,0.0,0.0,0.0,0.0,0.0,0.0,0.0,0.0,0.0,0.0,0.0,0.0,0.0,0.0,0.0,0.0,0.0,0.0,0.0,0.0,0.0,0.0,0.0,0.0,0.0,0.0,0.0,0.0,0.0,0.0,0.0,0.0,0.0,0.0,0.0,0.0,0.0,0.0,0.0,0.0,0.0,0.0,0.0,0.0,0.0,0.0,0.0,0.0,0.0,0.0,0.0,0.0,0.0,0.0,0.0,0.0,0.0,0.0,0.0,2.9754,2.9791,2.9826,2.9602,0.0,0.0,0.0,0.0,0.0,0.0,0.0,0.0,0.0,0.0,0.0,0.0,0.0,0.0,0.0,0.0,0.0,0.0,0.0,0.0,0.0,0.0,0.0,0.0,0.0,0.0,0.0,0.0,0.0,0.0,0.0,0.0,0.0,0.0,0.0,0.0,0.0,0.0,0.0,0.0,0.0,0.0,0.0,0.0,0.0,0.0,0.0,0.0,0.0,0.0,0.0,0.0,0.0,0.0,0.0,0.0,0.0,0.0,0.0,0.0,0.0,0.0,0.0,0.0,0.0,0.0,0.0,0.0,0.0,0.0,0.0,0.0,0.0,0.0,0.0,0.0,0.0,0.0,0.0,0.0,0.0,0.0,0.0,0.0,0.0,0.0,0.0,0.0,0.0,0.0,0.0,0.0,0.0,0.0,0.0,0.0,0.0,0.0,0.0,0.0,0.0,0.0,0.0,0.0,0.0,0.0,0.0,0.0,0.0,0.0,3.0207,3.0623,3.0671,3.0508,3.0135,2.9613,0.0,0.0,0.0,0.0,0.0,0.0,0.0,0.0,0.0,0.0,0.0,0.0,0.0,0.0,0.0,0.0,0.0,0.0,0.0,0.0,0.0,0.0,0.0,0.0,0.0,0.0,0.0,0.0,0.0,0.0,0.0,0.0,0.0,0.0,0.0,0.0,0.0,0.0,0.0,0.0,0.0,0.0,0.0,0.0,0.0,0.0,0.0,0.0,0.0,0.0,0.0,0.0,0.0,0.0,0.0,0.0,0.0,0.0,0.0,0.0,0.0,0.0,0.0,0.0,0.0,0.0,0.0,0.0,0.0,0.0,0.0,0.0,0.0,0.0,0.0,0.0,0.0,0.0,0.0,0.0,0.0,0.0,0.0,0.0,0.0,0.0,0.0,0.0,0.0,0.0,0.0,0.0,0.0,0.0,0.0,0.0,0.0,0.0,0.0,0.0,0.0,0.0,0.0,0.0,0.0,0.0,0.0,0.0,3.0173,3.098,3.1506,3.1528,3.0826,3.0383,0.0,0.0,0.0,0.0,0.0,0.0,0.0,0.0,0.0,0.0,0.0,0.0,0.0,0.0,0.0,0.0,0.0,0.0,0.0,0.0,0.0,0.0,0.0,0.0,0.0,0.0,0.0,0.0,0.0,0.0,0.0,0.0,0.0,0.0,0.0,0.0,0.0,0.0,0.0,0.0,0.0,0.0,0.0,0.0,0.0,0.0,0.0,0.0,0.0,0.0,0.0,0.0,0.0,0.0,0.0,0.0,0.0,0.0,0.0,0.0,0.0,0.0,0.0,0.0,0.0,0.0,0.0,0.0,0.0,0.0,0.0,0.0,0.0,0.0,0.0,0.0,0.0,0.0,0.0,0.0,0.0,0.0,0.0,0.0,0.0,0.0,0.0,0.0,0.0,0.0,0.0,0.0,0.0,0.0,0.0,0.0,0.0,0.0,0.0,0.0,0.0,0.0,0.0,0.0,0.0,0.0,0.0,0.0,0.0,3.0993,3.1863,3.2379,3.2486,3.2201,3.157,0.0,0.0,0.0,0.0,0.0,0.0,0.0,0.0,0.0,0.0,0.0,0.0,0.0,0.0,0.0,0.0,0.0,0.0,0.0,0.0,0.0,0.0,0.0,0.0,0.0,0.0,0.0,0.0,0.0,0.0,0.0,0.0,0.0,0.0,0.0,0.0,0.0,0.0,0.0,0.0,0.0,0.0,0.0,0.0,0.0,0.0,0.0,0.0,0.0,0.0,0.0,0.0,0.0,0.0,0.0,0.0,0.0,0.0,0.0,0.0,0.0,0.0,0.0,0.0,0.0,0.0,0.0,0.0,0.0,0.0,0.0,0.0,0.0,0.0,0.0,0.0,0.0,0.0,0.0,0.0,0.0,0.0,0.0,0.0,0.0,0.0,0.0,0.0,0.0,0.0,0.0,0.0,0.0,0.0,0.0,0.0,0.0,0.0,0.0,0.0,0.0,0.0,0.0,0.0,0.0,0.0,0.0,0.0,0.0,3.2193,3.2834,3.3192,3.3363,3.3115,3.2347,0.0,0.0,0.0,0.0,0.0,0.0,0.0,0.0,0.0,0.0,0.0,0.0,0.0,0.0,0.0,0.0,0.0,0.0,0.0,0.0,0.0,0.0,0.0,0.0,0.0,0.0,0.0,0.0,0.0,0.0,0.0,0.0,0.0,0.0,0.0,0.0,0.0,0.0,0.0,0.0,0.0,0.0,0.0,0.0,0.0,0.0,0.0,0.0,0.0,0.0,0.0,0.0,0.0,0.0,0.0,0.0,0.0,0.0,0.0,0.0,0.0,0.0,0.0,0.0,0.0,0.0,0.0,0.0,0.0,0.0,0.0,0.0,0.0,0.0,0.0,0.0,0.0,0.0,0.0,0.0,0.0,0.0,0.0,0.0,0.0,0.0,0.0,0.0,0.0,0.0,0.0,0.0,0.0,0.0,0.0,0.0,0.0,0.0,0.0,0.0,0.0,0.0,0.0,0.0,0.0,0.0,0.0,0.0,3.2947,3.3826,3.3913,3.4065,3.4117,3.3414,3.2597,0.0,0.0,0.0,0.0,0.0,0.0,0.0,0.0,0.0,0.0,0.0,0.0,0.0,0.0,0.0,0.0,0.0,0.0,0.0,0.0,0.0,0.0,0.0,0.0,0.0,0.0,0.0,0.0,0.0,0.0,0.0,0.0,0.0,0.0,0.0,0.0,0.0,0.0,0.0,0.0,0.0,0.0,0.0,0.0,0.0,0.0,0.0,0.0,0.0,0.0,0.0,0.0,0.0,0.0,0.0,0.0,0.0,0.0,0.0,0.0,0.0,0.0,0.0,0.0,0.0,0.0,0.0,0.0,0.0,0.0,0.0,0.0,0.0,0.0,0.0,0.0,0.0,0.0,0.0,0.0,0.0,0.0,0.0,0.0,0.0,0.0,0.0,0.0,0.0,0.0,0.0,0.0,0.0,0.0,0.0,0.0,0.0,0.0,0.0,0.0,0.0,0.0,0.0,0.0,0.0,0.0,0.0,0.0,0.0,3.4746,3.5298,3.5685,3.5742,3.5003,3.4178,0.0,0.0,0.0,0.0,0.0,0.0,0.0,0.0,0.0,0.0,0.0,0.0,0.0,0.0,0.0,0.0,0.0,0.0,0.0,0.0,0.0,0.0,0.0,0.0,0.0,0.0,0.0,0.0,0.0,0.0,0.0,0.0,0.0,0.0,0.0,0.0,0.0,0.0,0.0,0.0,0.0,0.0,0.0,0.0,0.0,0.0,0.0,0.0,0.0,0.0,0.0,0.0,0.0,0.0,0.0,0.0,0.0,0.0,0.0,0.0,0.0,0.0,0.0,0.0,0.0,0.0,0.0,0.0,0.0,0.0,0.0,0.0,0.0,0.0,0.0,0.0,0.0,0.0,0.0,0.0,0.0,0.0,0.0,0.0,0.0,0.0,0.0,0.0,0.0,0.0,0.0,0.0,0.0,0.0,0.0,0.0,0.0,0.0,0.0,0.0,0.0,0.0,0.0,0.0,0.0,0.0,0.0,0.0,0.0,3.6333,3.6567,3.6736,3.6836,3.6357,3.544,3.4166,0.0,0.0,0.0,0.0,0.0,0.0,0.0,0.0,0.0,0.0,0.0,0.0,0.0,0.0,0.0,0.0,0.0,0.0,0.0,0.0,0.0,0.0,0.0,0.0,0.0,0.0,0.0,0.0,0.0,0.0,0.0,0.0,0.0,0.0,0.0,0.0,0.0,0.0,0.0,0.0,0.0,0.0,0.0,0.0,0.0,0.0,0.0,0.0,0.0,0.0,0.0,0.0,0.0,0.0,0.0,0.0,0.0,0.0,0.0,0.0,0.0,0.0,0.0,0.0,0.0,0.0,0.0,0.0,0.0,0.0,0.0,0.0,0.0,0.0,0.0,0.0,0.0,0.0,0.0,0.0,0.0,0.0,0.0,0.0,0.0,0.0,0.0,0.0,0.0,0.0,0.0,0.0,0.0,0.0,0.0,0.0,0.0,0.0,0.0,0.0,0.0,0.0,0.0,0.0,0.0,0.0,0.0,0.0,3.8676,3.7963,3.7603,3.7631,3.7536,3.6485,0.0,0.0,0.0,0.0,0.0,0.0,0.0,0.0,0.0,0.0,0.0,0.0,0.0,0.0,0.0,0.0,0.0,0.0,0.0,0.0,0.0,0.0,0.0,0.0,0.0,0.0,0.0,0.0,0.0,0.0,0.0,0.0,0.0,0.0,0.0,0.0,0.0,0.0,0.0,0.0,0.0,0.0,0.0,0.0,0.0,0.0,0.0,0.0,0.0,0.0,0.0,0.0,0.0,0.0,0.0,0.0,0.0,0.0,0.0,0.0,0.0,0.0,0.0,0.0,0.0,0.0,0.0,0.0,0.0,0.0,0.0,0.0,0.0,0.0,0.0,0.0,0.0,0.0,0.0,0.0,0.0,0.0,0.0,0.0,0.0,0.0,0.0,0.0,0.0,0.0,0.0,0.0,0.0,0.0,0.0,0.0,0.0,0.0,0.0,0.0,0.0,0.0,0.0,0.0,0.0,0.0,0.0,0.0,0.0,4.1969,4.1771,4.1131,4.0008,3.8961,3.7904,0.0,0.0,0.0,0.0,0.0,0.0,0.0,0.0,0.0,0.0,0.0,0.0,0.0,0.0,0.0,0.0,0.0,0.0,0.0,0.0,0.0,0.0,0.0,0.0,0.0,0.0,0.0,0.0,0.0,0.0,0.0,0.0,0.0,0.0,0.0,0.0,0.0,0.0,0.0,0.0,0.0,0.0,0.0,0.0,0.0,0.0,0.0,0.0,0.0,0.0,0.0,0.0,0.0,0.0,0.0,0.0,0.0,0.0,0.0,0.0,0.0,0.0,0.0,0.0,0.0,0.0,0.0,0.0,0.0,0.0,0.0,0.0,0.0,0.0,0.0,0.0,0.0,0.0,0.0,0.0,0.0,0.0,0.0,0.0,0.0,0.0,0.0,0.0,0.0,0.0,0.0,0.0,0.0,0.0,0.0,0.0,0.0,0.0,0.0,0.0,0.0,0.0,0.0,0.0,0.0,0.0,0.0,0.0,4.1109,4.3286,4.3962,4.387,4.2992,4.1552,4.0136,0.0,0.0,0.0,0.0,0.0,0.0,0.0,0.0,0.0,0.0,0.0,0.0,0.0,0.0,0.0,0.0,0.0,0.0,0.0,0.0,0.0,0.0,0.0,0.0,0.0,0.0,0.0,0.0,0.0,0.0,0.0,0.0,0.0,0.0,0.0,0.0,0.0,0.0,0.0,0.0,0.0,0.0,0.0,0.0,0.0,0.0,0.0,0.0,0.0,0.0,0.0,0.0,0.0,0.0,0.0,0.0,0.0,0.0,0.0,0.0,0.0,0.0,0.0,0.0,0.0,0.0,0.0,0.0,0.0,0.0,0.0,0.0,0.0,0.0,0.0,0.0,0.0,0.0,0.0,0.0,0.0,0.0,0.0,0.0,0.0,0.0,0.0,0.0,0.0,0.0,0.0,0.0,0.0,0.0,0.0,0.0,0.0,0.0,0.0,0.0,0.0,0.0,0.0,0.0,0.0,0.0,0.0,0.0,4.2755,4.3597,4.5132,4.5974,4.6011,4.4416,4.248,0.0,0.0,0.0,0.0,0.0,0.0,0.0,0.0,0.0,0.0,0.0,0.0,0.0,0.0,0.0,0.0,0.0,0.0,0.0,0.0,0.0,0.0,0.0,0.0,0.0,0.0,0.0,0.0,0.0,0.0,0.0,0.0,0.0,0.0,0.0,0.0,0.0,0.0,0.0,0.0,0.0,0.0,0.0,0.0,0.0,0.0,0.0,0.0,0.0,0.0,0.0,0.0,0.0,0.0,0.0,0.0,0.0,0.0,0.0,0.0,0.0,0.0,0.0,0.0,0.0,0.0,0.0,0.0,0.0,0.0,0.0,0.0,0.0,0.0,0.0,0.0,0.0,0.0,0.0,0.0,0.0,0.0,0.0,0.0,0.0,0.0,0.0,0.0,0.0,0.0,0.0,0.0,0.0,0.0,0.0,0.0,0.0,0.0,0.0,0.0,0.0,0.0,0.0,0.0,0.0,0.0,0.0,0.0,4.4233,4.6213,4.6635,4.713,4.7717,4.5056,4.2787,0.0,0.0,0.0,0.0,0.0,0.0,0.0,0.0,0.0,0.0,0.0,0.0,0.0,0.0,0.0,0.0,0.0,0.0,0.0,0.0,0.0,0.0,0.0,0.0,0.0,0.0,0.0,0.0,0.0,0.0,0.0,0.0,0.0,0.0,0.0,0.0,0.0,0.0,0.0,0.0,0.0,0.0,0.0,0.0,0.0,0.0,0.0,0.0,3.5683,0.0,0.0,0.0,0.0,0.0,0.0,0.0,0.0,0.0,0.0,0.0,0.0,0.0,0.0,0.0,0.0,0.0,0.0,0.0,0.0,0.0,0.0,0.0,0.0,0.0,0.0,0.0,0.0,0.0,0.0,0.0,0.0,0.0,0.0,0.0,0.0,0.0,0.0,0.0,0.0,0.0,0.0,0.0,0.0,0.0,0.0,0.0,0.0,0.0,0.0,0.0,0.0,0.0,0.0,0.0,0.0,0.0,0.0,0.0,4.5076,4.7039,4.748,4.7865,4.8196,4.6324,4.4557,0.0,0.0,0.0,0.0,0.0,0.0,0.0,0.0,0.0,0.0,0.0,0.0,0.0,0.0,0.0,0.0,0.0,0.0,0.0,0.0,0.0,0.0,0.0,0.0,0.0,0.0,0.0,0.0,0.0,0.0,0.0,0.0,0.0,0.0,0.0,0.0,0.0,0.0,0.0,0.0,0.0,0.0,0.0,0.0,0.0,0.0,0.0,0.0,0.0,0.0,0.0,0.0,0.0,0.0,0.0,0.0,0.0,0.0,0.0,0.0,0.0,0.0,0.0,0.0,0.0,0.0,0.0,0.0,0.0,0.0,0.0,0.0,0.0,0.0,0.0,0.0,0.0,0.0,0.0,0.0,0.0,0.0,0.0,0.0,0.0,0.0,0.0,0.0,0.0,0.0,0.0,0.0,0.0,0.0,0.0,0.0,0.0,0.0,0.0,0.0,0.0,0.0,0.0,0.0,0.0,0.0,0.0,4.4378,4.592,4.7259,4.8086,4.8453,4.8306,4.7626,4.6618,4.521,0.0,0.0,0.0,0.0,0.0,0.0,0.0,0.0,0.0,0.0,0.0,0.0,0.0,0.0,0.0,0.0,0.0,0.0,0.0,0.0,0.0,0.0,0.0,0.0,0.0,0.0,0.0,0.0,0.0,0.0,0.0,0.0,0.0,0.0,0.0,0.0,0.0,0.0,3.3757,3.6002,0.0,0.0,0.0,0.0,0.0,0.0,0.0,0.0,3.8547,0.0,0.0,0.0,0.0,0.0,0.0,0.0,0.0,0.0,0.0,0.0,0.0,0.0,0.0,0.0,0.0,0.0,0.0,0.0,0.0,0.0,0.0,0.0,0.0,0.0,0.0,0.0,0.0,0.0,0.0,0.0,0.0,0.0,0.0,0.0,0.0,0.0,0.0,0.0,0.0,0.0,0.0,0.0,0.0,0.0,0.0,0.0,0.0,0.0,0.0,0.0,0.0,0.0,0.0,0.0,0.0,4.4287,4.6526,4.7829,4.8122,4.893,4.904,4.8323,4.8159,4.7426,4.5985,0.0,0.0,0.0,0.0,0.0,0.0,0.0,0.0,0.0,0.0,0.0,0.0,0.0,0.0,0.0,0.0,0.0,0.0,0.0,0.0,0.0,0.0,0.0,0.0,0.0,0.0,0.0,0.0,0.0,0.0,0.0,0.0,0.0,0.0,0.0,0.0,0.0,0.0,0.0,3.7422,3.8783,0.0,0.0,0.0,0.0,0.0,0.0,0.0,0.0,3.9642,0.0,0.0,0.0,0.0,0.0,0.0,0.0,0.0,0.0,0.0,0.0,0.0,0.0,0.0,0.0,0.0,0.0,0.0,0.0,0.0,0.0,0.0,0.0,0.0,0.0,0.0,0.0,0.0,0.0,0.0,0.0,0.0,0.0,0.0,0.0,0.0,0.0,0.0,0.0,0.0,0.0,0.0,0.0,0.0,0.0,0.0,0.0,0.0,0.0,0.0,0.0,0.0,0.0,0.0,0.0,4.5279,4.7623,4.9128,4.9591,4.9994,5.0031,4.9627,4.9187,4.8328,0.0,0.0,0.0,0.0,0.0,0.0,0.0,0.0,0.0,0.0,0.0,0.0,0.0,0.0,0.0,0.0,0.0,0.0,0.0,0.0,0.0,0.0,0.0,0.0,0.0,0.0,0.0,0.0,0.0,0.0,0.0,0.0,0.0,0.0,0.0,0.0,0.0,0.0,0.0,0.0,3.885,4.0025,4.1857,0.0,0.0,0.0,0.0,0.0,0.0,4.2074,4.0874,0.0,0.0,0.0,0.0,0.0,0.0,0.0,0.0,0.0,0.0,0.0,0.0,0.0,0.0,0.0,0.0,0.0,0.0,0.0,0.0,0.0,0.0,0.0,0.0,0.0,0.0,0.0,0.0,0.0,0.0,0.0,0.0,0.0,0.0,0.0,0.0,0.0,0.0,0.0,0.0,0.0,0.0,0.0,0.0,0.0,0.0,0.0,0.0,0.0,0.0,0.0,0.0,0.0,0.0,0.0,4.6065,4.859,5.0167,5.0802,5.0949,5.0986,5.0802,5.0014,4.8916,0.0,0.0,0.0,0.0,0.0,0.0,0.0,0.0,0.0,0.0,0.0,0.0,0.0,0.0,0.0,0.0,0.0,0.0,0.0,0.0,0.0,0.0,0.0,0.0,0.0,0.0,0.0,0.0,0.0,0.0,0.0,0.0,0.0,0.0,0.0,0.0,0.0,0.0,0.0,0.0,0.0,4.1957,4.3887,4.4233,0.0,0.0,0.0,0.0,4.6377,4.4144,0.0,0.0,0.0,0.0,0.0,0.0,0.0,0.0,0.0,0.0,0.0,0.0,0.0,0.0,0.0,0.0,0.0,0.0,0.0,0.0,0.0,0.0,0.0,0.0,0.0,0.0,0.0,0.0,0.0,0.0,0.0,0.0,0.0,0.0,0.0,0.0,0.0,0.0,0.0,0.0,0.0,0.0,0.0,0.0,0.0,0.0,0.0,0.0,0.0,0.0,0.0,0.0,0.0,0.0,0.0,0.0,4.6889,4.9944,5.1302,5.0855,5.1499,5.1499,5.0839,5.0051,4.8878,0.0,0.0,0.0,0.0,0.0,0.0,0.0,0.0,0.0,0.0,0.0,0.0,0.0,0.0,0.0,0.0,0.0,0.0,0.0,0.0,0.0,0.0,0.0,0.0,0.0,0.0,0.0,0.0,0.0,0.0,0.0,0.0,0.0,0.0,0.0,0.0,0.0,0.0,0.0,0.0,0.0,4.5156,4.6763,4.7802,4.8173,0.0,0.0,4.8735,4.8207,4.6719,0.0,0.0,0.0,0.0,0.0,0.0,0.0,0.0,0.0,0.0,0.0,0.0,0.0,0.0,0.0,0.0,0.0,0.0,0.0,0.0,0.0,0.0,0.0,0.0,0.0,0.0,0.0,0.0,0.0,0.0,0.0,0.0,0.0,0.0,0.0,0.0,0.0,0.0,0.0,0.0,0.0,0.0,0.0,0.0,0.0,0.0,0.0,0.0,0.0,0.0,0.0,0.0,0.0,0.0,0.0,4.6292,4.8948,5.1752,5.328,5.3518,5.3849,5.3665,5.2858,5.161,5.0218,0.0,0.0,0.0,0.0,0.0,0.0,0.0,0.0,0.0,0.0,0.0,0.0,0.0,0.0,0.0,0.0,0.0,0.0,0.0,0.0,0.0,0.0,0.0,0.0,0.0,0.0,0.0,0.0,0.0,0.0,0.0,0.0,0.0,0.0,0.0,0.0,0.0,0.0,0.0,0.0,0.0,0.0,4.8439,4.9899,0.0,0.0,0.0,5.1153,5.0438,0.0,0.0,0.0,0.0,0.0,0.0,0.0,0.0,0.0,0.0,0.0,0.0,0.0,0.0,0.0,0.0,0.0,0.0,0.0,0.0,0.0,0.0,0.0,0.0,0.0,0.0,0.0,0.0,0.0,0.0,0.0,0.0,0.0,0.0,0.0,0.0,0.0,0.0,0.0,0.0,0.0,0.0,0.0,0.0,0.0,0.0,0.0,0.0,0.0,0.0,0.0,0.0,0.0,0.0,0.0,0.0,0.0,5.0456,5.3076,5.4832,5.5537,5.5633,5.5317,5.4693,5.3151,0.0,0.0,0.0,0.0,0.0,0.0,0.0,0.0,0.0,0.0,0.0,0.0,0.0,0.0,0.0,0.0,0.0,0.0,0.0,0.0,0.0,0.0,0.0,0.0,0.0,0.0,0.0,3.504,0.0,0.0,0.0,0.0,0.0,0.0,0.0,0.0,0.0,0.0,0.0,0.0,0.0,0.0,4.7926,5.0164,5.2059,5.3228,0.0,0.0,5.3048,5.2105,5.045,4.8595,0.0,0.0,0.0,0.0,0.0,0.0,0.0,0.0,0.0,0.0,0.0,0.0,0.0,0.0,0.0,0.0,0.0,0.0,0.0,0.0,0.0,0.0,0.0,0.0,0.0,0.0,0.0,0.0,0.0,0.0,0.0,0.0,0.0,0.0,0.0,0.0,0.0,0.0,0.0,0.0,0.0,0.0,0.0,0.0,0.0,0.0,0.0,0.0,0.0,0.0,0.0,0.0,0.0,0.0,4.8514,5.0529,5.3557,5.5313,5.5611,5.5633,5.5574,5.55,5.3959,5.238,0.0,0.0,0.0,0.0,0.0,0.0,0.0,0.0,0.0,0.0,0.0,0.0,0.0,0.0,0.0,0.0,0.0,0.0,0.0,0.0,0.0,0.0,0.0,0.0,0.0,0.0,0.0,0.0,0.0,0.0,0.0,0.0,0.0,0.0,0.0,0.0,0.0,0.0,0.0,0.0,0.0,5.1544,5.2477,5.4832,5.5919,0.0,5.4576,5.4277,5.2717,5.1909,5.0675,4.8262,0.0,0.0,0.0,0.0,0.0,0.0,0.0,0.0,0.0,0.0,0.0,0.0,0.0,0.0,0.0,0.0,0.0,0.0,0.0,0.0,0.0,0.0,0.0,0.0,0.0,0.0,0.0,0.0,0.0,0.0,0.0,0.0,0.0,0.0,0.0,0.0,0.0,0.0,0.0,0.0,0.0,0.0,0.0,0.0,0.0,0.0,0.0,0.0,0.0,0.0,0.0,0.0,0.0,4.9216,5.1952,5.4661,5.6383,5.7042,5.7079,5.6822,5.6345,5.5244,5.3922,0.0,0.0,0.0,0.0,0.0,0.0,0.0,0.0,0.0,0.0,0.0,0.0,0.0,0.0,0.0,0.0,0.0,0.0,0.0,0.0,0.0,0.0,0.0,0.0,0.0,0.0,0.0,0.0,4.2154,4.2849,4.2392,0.0,0.0,0.0,0.0,0.0,0.0,0.0,0.0,0.0,0.0,5.413,5.5473,5.7328,0.0,0.0,5.7689,5.722,5.6161,5.4739,5.3088,5.1131,4.9604,0.0,0.0,0.0,0.0,0.0,0.0,0.0,0.0,0.0,0.0,0.0,0.0,0.0,0.0,0.0,0.0,0.0,0.0,0.0,0.0,0.0,0.0,0.0,0.0,0.0,0.0,0.0,0.0,0.0,0.0,0.0,0.0,0.0,0.0,0.0,0.0,0.0,0.0,0.0,0.0,0.0,0.0,0.0,0.0,0.0,0.0,0.0,0.0,0.0,0.0,0.0,0.0,5.0408,5.3259,5.5679,5.7294,5.796,5.7997,5.774,5.7189,5.6381,5.5317,0.0,0.0,0.0,0.0,0.0,0.0,0.0,0.0,0.0,0.0,0.0,0.0,0.0,0.0,0.0,0.0,0.0,0.0,0.0,0.0,0.0,0.0,0.0,0.0,0.0,0.0,0.0,0.0,4.3943,4.4598,4.4215,0.0,0.0,0.0,0.0,0.0,0.0,0.0,0.0,0.0,0.0,5.6483,5.8486,5.9719,6.0435,6.0653,5.998,5.9137,5.8235,5.663,5.5172,5.4067,0.0,0.0,0.0,0.0,0.0,0.0,0.0,0.0,0.0,0.0,0.0,0.0,0.0,0.0,0.0,0.0,0.0,0.0,0.0,0.0,0.0,0.0,0.0,0.0,0.0,0.0,0.0,3.6082,0.0,0.0,3.3713,0.0,0.0,0.0,0.0,0.0,0.0,0.0,0.0,0.0,0.0,0.0,0.0,0.0,0.0,0.0,0.0,0.0,0.0,0.0,0.0,0.0,0.0,5.2309,5.4173,5.6493,5.7844,5.7997,5.7997,5.796,5.7923,5.7189,5.6381,5.55,0.0,0.0,0.0,0.0,0.0,0.0,0.0,0.0,0.0,0.0,0.0,0.0,0.0,0.0,0.0,0.0,0.0,0.0,0.0,0.0,0.0,0.0,0.0,0.0,0.0,0.0,4.4399,4.5052,4.5718,0.0,0.0,0.0,0.0,0.0,0.0,0.0,0.0,0.0,0.0,5.6443,5.8699,6.1417,6.1723,6.1723,6.2105,6.0919,5.9504,5.8165,5.7258,5.6771,0.0,0.0,0.0,0.0,0.0,0.0,0.0,0.0,0.0,0.0,0.0,0.0,0.0,0.0,0.0,0.0,0.0,0.0,0.0,0.0,0.0,0.0,0.0,0.0,0.0,0.0,0.0,3.9295,4.1136,0.0,0.0,0.0,0.0,0.0,0.0,0.0,0.0,0.0,0.0,0.0,5.1216,5.1442,0.0,0.0,0.0,0.0,0.0,0.0,0.0,0.0,0.0,0.0,0.0,0.0,5.2448,5.421,5.6589,5.7881,5.7997,5.7997,5.7997,5.7997,5.774,5.6969,5.5611,0.0,0.0,0.0,0.0,0.0,0.0,0.0,0.0,0.0,0.0,0.0,0.0,0.0,0.0,0.0,0.0,0.0,0.0,0.0,0.0,0.0,0.0,0.0,0.0,0.0,4.6246,0.0,0.0,0.0,0.0,0.0,0.0,0.0,0.0,0.0,0.0,0.0,5.6361,5.825,5.9481,6.0567,6.1564,6.1672,6.1975,0.0,0.0,0.0,0.0,0.0,0.0,0.0,0.0,0.0,0.0,0.0,0.0,0.0,0.0,5.3665,5.0772,5.0685,5.1099,5.113,0.0,0.0,0.0,0.0,0.0,0.0,0.0,0.0,0.0,0.0,0.0,0.0,0.0,0.0,4.4528,0.0,4.4612,0.0,0.0,0.0,0.0,0.0,0.0,0.0,0.0,5.2251,5.369,5.4678,5.434,5.4062,0.0,5.2923,5.0751,0.0,0.0,0.0,0.0,0.0,0.0,0.0,0.0,5.3485,5.5499,5.7331,5.8454,5.8804,5.8841,5.8841,5.8841,5.8584,5.7776,5.6455,5.4876,5.3555,0.0,0.0,0.0,0.0,0.0,0.0,0.0,0.0,0.0,0.0,0.0,0.0,0.0,0.0,0.0,0.0,0.0,0.0,0.0,0.0,0.0,0.0,0.0,4.8741,0.0,0.0,0.0,0.0,0.0,0.0,0.0,0.0,0.0,5.3605,5.6241,5.9043,6.1523,6.1885,6.2391,6.3801,0.0,0.0,0.0,0.0,0.0,0.0,0.0,6.1795,6.393,6.3939,6.3892,6.4679,6.3309,6.216,6.2409,0.0,0.0,5.6555,5.6015,5.6239,5.635,5.6107,5.6182,5.6968,5.6743,5.6593,0.0,0.0,0.0,0.0,0.0,0.0,0.0,0.0,4.8905,5.0104,0.0,4.9734,0.0,0.0,0.0,0.0,4.7854,5.1062,0.0,0.0,5.6447,5.8033,5.7997,5.7111,5.7102,5.77,5.5414,5.4214,5.4032,5.1901,0.0,0.0,0.0,0.0,0.0,0.0,5.5522,5.7923,5.8781,5.9588,6.0346,6.0382,6.0382,6.0346,5.9648,5.8877,5.807,5.6565,5.5684,5.5633,5.2637,0.0,0.0,0.0,0.0,0.0,0.0,0.0,0.0,0.0,0.0,0.0,0.0,0.0,0.0,0.0,0.0,0.0,0.0,0.0,0.0,5.0923,0.0,0.0,0.0,0.0,0.0,0.0,0.0,0.0,0.0,0.0,5.6992,5.7947,6.0167,6.425,0.0,0.0,0.0,0.0,6.7061,6.8339,6.7896,6.7137,6.6577,6.5881,6.5905,6.7577,0.0,0.0,7.0624,6.8742,6.7156,6.7956,6.6775,6.4881,6.2056,6.0692,6.0051,6.0298,5.9818,5.9577,6.0211,6.0489,6.0696,5.2431,0.0,0.0,0.0,0.0,4.9496,5.1207,5.4326,5.3917,5.4217,5.4975,5.3974,0.0,0.0,0.0,0.0,0.0,0.0,5.5537,5.7285,5.839,5.9171,5.9722,5.9417,5.9417,5.9614,5.8893,5.8564,5.8564,5.7904,5.5637,5.1937,0.0,0.0,0.0,0.0,5.696,5.8781,5.9648,6.0199,6.0382,6.0419,6.0419,6.0419,6.0199,5.9942,5.9722,5.8731,5.7923,5.7299,5.5317,0.0,0.0,0.0,0.0,0.0,0.0,0.0,0.0,0.0,0.0,0.0,0.0,0.0,0.0,0.0,0.0,0.0,0.0,0.0,5.1574,5.353,5.4291,0.0,0.0,0.0,0.0,0.0,0.0,0.0,0.0,0.0,6.1903,6.2817,6.4092,0.0,0.0,6.4893,6.601,6.584,6.6305,6.8184,6.7998,0.0,6.8743,6.7947,6.7855,6.9558,7.1006,7.1954,7.2006,7.1168,7.058,7.0836,7.0201,6.9576,6.9268,6.6334,6.4177,6.4039,6.4322,6.4618,6.4914,6.5059,6.5167,5.718,5.4459,5.273,5.2935,5.4361,5.3971,5.5361,5.791,5.7765,5.7994,5.8514,5.781,5.6985,5.61,5.5547,0.0,0.0,0.0,5.8103,5.959,5.9637,6.0126,6.0823,6.0529,6.0566,6.086,6.0566,6.0419,6.0419,6.0419,5.888,5.5944,0.0,0.0,5.6891,5.7474,5.8547,6.0089,6.0639,6.1043,6.1337,6.1374,6.1202,6.0823,6.0872,6.0689,6.0347,5.9894,5.9465,5.8951,5.7703,5.6212,0.0,0.0,0.0,0.0,0.0,0.0,0.0,0.0,0.0,0.0,0.0,4.7011,4.7627,0.0,0.0,0.0,5.2589,5.3385,5.516,5.6283,0.0,0.0,0.0,0.0,0.0,0.0,0.0,6.0897,6.3084,6.487,6.5714,6.6841,6.7619,6.7657,6.6917,6.667,6.7443,0.0,6.7445,6.8823,6.8823,6.8892,6.9708,6.9495,6.981,7.162,7.3507,7.4466,7.3812,7.345,7.3234,7.3151,7.2565,7.2248,7.2812,7.034,6.8273,6.8055,6.8118,6.8266,6.8303,6.8467,6.8506,6.0603,6.0322,5.7201,5.6776,5.8077,5.8113,5.9003,6.0493,6.0566,6.1226,6.2131,6.0994,6.1028,6.1896,6.055,0.0,5.9358,6.0066,6.0481,6.0676,6.0639,6.1043,6.1851,6.1006,6.1006,6.1777,6.097,6.0639,6.075,6.0713,6.0713,6.0676,5.9979,5.9515,5.9368,5.9368,6.0199,6.1741,6.1814,6.2156,6.2938,6.2964,6.2522,6.1601,6.1679,6.1337,6.0444,6.0433,6.0469,6.0444,5.9698,5.888,5.786,0.0,0.0,0.0,0.0,0.0,0.0,0.0,0.0,0.0,0.0,0.0,0.0,0.0,0.0,0.0,5.7695,0.0,5.9651,5.9144,0.0,0.0,0.0,5.9874,6.1384,6.2635,6.3624,6.44,0.0,0.0,6.8469,6.9914,7.0654,6.9949,6.8994,6.9029,7.0803,7.027,6.9951,7.0273,7.0379,7.0451,7.0838,7.1263,7.2187,7.3718,7.5438,7.6302,7.5836,7.5464,7.5234,7.5195,7.4224,7.3494,7.3488,7.3031,7.2627,7.206,7.1303,7.075,7.075,7.0856,7.0935,6.2254,6.2156,6.1337,6.0921,6.0689,6.0689,6.0946,6.1374,6.1961,6.1728,6.0872,6.1166,6.1447,6.1677,6.1336,6.1459,6.1911,6.2095,6.256,6.3135,6.2548,6.3025,6.4347,6.2915,6.2658,6.3392,6.2658,6.2585,6.3172,6.3209,6.3209,6.3209,6.3025,6.2291,6.108,6.1043,6.1851,6.3503,6.3503,6.3768,6.4327,6.4406,6.3951,6.2983,6.3043,6.273,6.1901,6.1382,6.1103,6.1003,6.0408,5.9687,5.8761,5.6705,0.0,0.0,0.0,0.0,0.0,0.0,0.0,0.0,0.0,5.2987,5.3965,0.0,5.7224,0.0,5.9832,6.0964,6.0557,6.1426,0.0,0.0,6.1997,6.2875,6.3543,6.5807,6.7408,6.755,6.9457,7.0367,6.942,7.1071,7.2261,7.205,7.0853,7.015,7.0611,7.1525,7.2261,7.2935,7.385,7.4765,7.4624,7.5059,7.5352,7.585,7.6553,7.7001,7.6861,7.6661,7.6444,7.6443,7.5961,7.5647,7.5867,7.5374,7.4976,7.4948,7.3934,7.2941,7.2941,7.3018,7.3167,6.3025,6.3356,6.2989,6.2548,6.2108,6.2144,6.2144,6.2181,6.2622,6.2266,6.152,6.2365,6.2915,6.3209,6.2879,6.2952,6.3356,6.2989,6.3282,6.4053,6.3613,6.4053,6.5264,6.4383,6.4163,6.4604,6.4163,6.4163,6.4604,6.464,6.464,6.464,6.464,6.4163,6.3282,6.2879,6.3172,6.4053,6.4457,6.4616,6.4575,6.4803,6.453,6.3736,6.3566,6.3311,6.2874,6.2204,6.1938,6.2214,6.2004,6.1565,6.0938,5.9356,5.8068,0.0,0.0,0.0,0.0,0.0,0.0,0.0,0.0,0.0,0.0,0.0,5.9941,6.0955,6.2621,6.3478,6.3228,6.4022,6.4488,6.4409,6.5332,6.6316,6.719,6.8894,7.0056,7.0019,7.1631,7.2433,7.1701,7.321,7.4361,7.4361,7.3624,7.2957,7.2641,7.3062,7.3518,7.3975,7.4712,7.5414,7.5695,7.6162,7.6494,7.6609,7.7055,7.7398,7.7237,7.7114,7.7052,7.7126,7.7092,7.719,7.7528,7.7469,7.7336,7.7542,7.7047,7.5946,7.4551,7.4338,7.4482,6.3576,6.4163,6.3319,6.2952,6.2989,6.2989,6.2989,6.2989,6.2989,6.3025,6.3172,6.3906,6.464,6.5264,6.4457,6.4115,6.4053,6.3319,6.3429,6.4237,6.4237,6.4751,6.5595,6.5411,6.5338,6.5448,6.5338,6.5375,6.5448,6.5448,6.5485,6.5485,6.5448,6.5385,6.5238,6.4651,6.4358,6.4369,6.5139,6.525,6.4592,6.4875,6.4782,6.4274,6.3852,6.362,6.3503,6.2983,6.3,6.3656,6.3719,6.3665,6.353,6.2112,6.0933,0.0,5.7985,0.0,0.0,0.0,0.0,0.0,0.0,0.0,0.0,6.1462,6.2449,6.4592,6.5424,6.6036,6.6567,6.6607,6.7024,6.813,6.8679,6.9566,7.0909,7.153,7.1903,7.1974,7.3234,7.4076,7.3975,7.5304,7.6211,7.6111,7.6105,7.593,7.555,7.4918,7.4572,7.4431,7.4537,7.5344,7.5765,7.6257,7.676,7.6957,7.7495,7.7792,7.7547,7.7521,7.7601,7.7827,7.8128,7.8459,7.8852,7.909,7.9351,7.9641,7.9548,7.8662,7.6423,7.5816,7.5713,6.4934,6.5007,6.42,6.3833,6.3833,6.3833,6.3833,6.3833,6.3833,6.4237,6.4861,6.5007,6.5154,6.5228,6.4457,6.4115,6.4115,6.3943,6.4273,6.5081,6.5081,6.5852,6.71,6.5925,6.5632,6.6219,6.5595,6.5632,6.6292,6.6292,6.6292,6.6292,6.6256,6.5873,6.5144,0.0,0.0,0.0,6.6455,6.6567,6.6138,6.6286,6.5938,6.4969,6.4931,0.0,6.4243,6.4165,6.4193,6.4255,6.4448,0.0,0.0,0.0,0.0,0.0,0.0,0.0,0.0,0.0,0.0,0.0,6.4142,6.3744,6.3744,6.4903,6.6017,6.6757,6.6978,6.7469,6.8511,6.862,6.8879,6.9495,7.0168,7.0872,7.1493,7.2187,7.2816,7.3518,7.4202,7.4512,7.4212,7.502,7.5882,7.6351,7.6565,7.6957,7.7545,7.7046,7.6708,7.6819,7.71,7.7661,7.7907,7.7977,7.8054,7.8271,7.8471,7.8629,7.8574,7.8855,7.9124,7.9167,7.9432,7.9629,8.0042,7.99,7.9816,8.0226,8.0048,7.9617,7.8993,7.8877,7.8939,6.539,6.5815,6.5044,6.4714,0.0,6.4677,6.4897,6.5264,6.4861,6.5154,6.5888,6.5888,6.6109,6.6439,6.5632,6.5264,6.5264,6.4861,6.5118,6.5888,6.5888,6.6549,6.765,6.6843,6.6696,6.7063,6.6659,6.6696,6.7063,6.7063,6.71,6.71,6.7046,6.6746,6.6262,6.6464,6.6571,6.6515,6.6879,6.6838,6.6264,6.6608,6.6427,6.5602,6.5389,0.0,0.0,0.0,0.0,0.0,0.0,0.0,0.0,0.0,0.0,6.5089,6.4641,6.4722,6.5482,6.5555,6.6098,6.7257,6.7939,6.7564,6.6013,6.7017,6.8053,6.8815,6.889,6.9368,7.0522,7.07,7.0877,7.1292,7.2028,7.2548,7.2809,7.3756,7.4457,7.4362,7.5265,7.579,7.544,7.614,7.6795,7.7041,7.7263,7.7562,7.8124,7.7922,7.7677,7.7804,7.8126,7.8448,7.8609,7.8574,7.8574,7.8616,7.8699,7.8782,7.887,7.911,7.9347,7.9582,7.9665,7.9899,8.036,8.0296,8.0333,8.0822,8.0801,8.0597,8.0397,8.0057,7.9795,6.586,6.6623,6.5852,6.5521,6.5521,6.5521,6.5962,6.6659,0.0,0.0,0.0,6.6696,6.7063,6.764,6.6843,6.6512,6.6439,6.5815,6.5888,6.6476,6.6623,6.7063,6.765,6.7687,6.766,6.7687,6.7687,6.766,6.766,6.766,6.766,6.7606,6.747,6.746,6.7522,6.723,6.7157,6.7273,6.7157,6.6891,6.6447,6.6884,6.6884,6.6415,6.6114,6.603,6.6207,6.5591,6.5555,6.617,6.6243,6.6533,6.7184,6.7221,6.7221,6.7221,6.7221,6.7553,6.8253,6.8325,6.8692,6.9565,7.0685,7.0345,6.8084,6.8802,6.9747,7.0625,7.0732,7.1197,7.2321,7.2425,7.2662,7.323,7.3891,7.4197,7.4147,7.5102,7.5481,7.5018,7.5861,7.681,7.6753,7.725,7.7807,7.785,7.7737,7.785,7.8058,7.8066,7.8082,7.8287,7.8364,7.8441,7.8567,7.8785,7.8785,7.8855,7.896,7.9079,7.9204,7.9252,7.9381,7.9671,7.968,7.9921,8.0243,8.0324,8.0657,8.1337,8.1544,8.1535,8.1245,8.0718,8.0236,6.7367,6.7457,6.6659,6.6329,6.6329,6.6329,6.6806,6.7504,6.7393,6.743,6.7504,6.754,6.7577,6.765,6.6843,6.6512,6.6512,6.6402,6.6402,6.6549,6.721,6.7577,6.7687,6.7579,6.7579,6.7687,6.7579,6.7524,6.7524,6.7497,6.7442,6.7266,6.7126,6.7288,6.7608,6.7528,6.7729,6.8341,6.7853,6.776,6.8063,6.8323,6.8323,6.8063,6.8238,6.8481,6.8669,6.8555,6.8591,6.8669,6.87,6.8772,6.8881,6.885,6.8881,6.8881,6.885,6.9054,6.9497,6.9537,7.0019,7.1185,7.2047,7.1798,7.0191,7.1334,7.2157,7.1976,7.194,7.2354,7.326,7.3392,7.3837,7.4885,7.5262,7.536,7.522,7.5088,7.5123,7.538,7.5462,7.6026,7.6729,7.7128,7.7456,7.7719,7.7692,7.7392,7.7604,7.8023,7.8448,7.8532,7.8532,7.8574,7.882,7.9206,7.9557,7.9627,8.0119,8.04,8.0442,8.0535,8.0492,8.0117,8.0176,8.0207,7.9953,7.998,8.0435,8.1056,8.1375,8.1576,8.1765,8.1681,8.1273,6.7126,6.7341,6.6837,6.6719,6.6857,6.6857,6.7185,6.7687,6.7687,6.7687,6.7687,6.7687,6.7687,6.765,6.732,6.7136,6.7136,6.7136,6.7136,6.7173,6.7423,6.7579,6.7579,6.7414,6.735,6.7405,6.7387,6.7322,6.7359,6.7442,6.7359,6.7097,6.6838,6.6999,6.7544,6.7523,6.8067,6.9217,6.8562,6.8319,6.8385,6.8486,6.855,6.855,6.8674,6.8894,6.9176,6.9207,6.9146,6.9054,6.9054,6.9173,6.9512,6.9813,7.0213,7.0646,7.0979,7.1242,7.1398,7.1295,7.1265,7.1339,7.2223,7.2215,7.0974,7.1869,7.2435,7.2372,7.2833,7.3245,7.3467,7.3926,7.4269,7.4308,7.5074,7.538,7.5045,7.586,7.6199,7.5985,7.6297,7.6678,7.698,7.715,7.7268,7.749,7.7678,7.7989,7.8024,7.8859,7.9312,7.8963,7.9207,7.9581,7.9795,8.0119,8.0365,8.04,8.0681,8.0891,8.0926,8.1012,8.0922,8.0767,8.0787,8.0806,8.0623,8.0519,8.0662,8.0974,8.102,8.12,8.1407,8.1391,8.1187,6.6625,6.7032,6.6801,6.6831,6.7061,6.7097,6.7266,6.7542,6.7606,6.7633,6.7687,6.7687,6.7687,6.7687,6.7687,6.7687,6.7687,6.7687,6.7687,6.7687,6.7552,6.7506,6.7414,6.7247,6.7126,6.7154,6.7126,6.7126,6.7154,6.7275,6.7162,6.6779,6.6512,6.6803,6.7613,6.7649,6.8471,6.9839,6.9441,6.9056,6.8827,6.8824,6.889,6.8955,6.9085,6.9277,6.9498,6.9627,6.9596,6.9408,6.9521,6.9853,7.0267,7.0821,7.14,7.2044,7.2477,7.2692,7.2656,7.2509,7.2148,7.1505,7.2507,7.2867,7.2185,7.257,7.2855,7.2953,7.3627,7.3966,7.3802,7.4378,7.4635,7.3997,7.5073,7.5689,7.5059,7.6331,7.7154,7.642,7.6785,7.7071,7.7109,7.7178,7.7292,7.7613,7.8152,7.8632,7.8909,7.9713,7.9977,7.9788,7.9937,8.0254,8.071,8.0894,8.092,8.0999,8.1252,8.1428,8.1471,8.1401,8.1356,8.1457,8.1394,8.1374,8.1478,8.119,8.1128,8.149,8.1439,8.1269,8.1672,8.1559,8.1105,6.6684,6.6743,6.6684,6.6714,6.6743,6.6743,6.6917,6.7238,6.7238,6.7405,6.766,6.7687,6.7687,6.7687,6.7687,6.7687,6.7687,6.7687,6.7687,6.7687,6.7552,6.7414,6.721,6.6961,6.6903,6.699,6.6903,6.6903,6.6954,6.6903,6.6638,6.6146,6.6083,6.6742,6.79,6.8245,6.9033,7.0404,7.0539,7.0402,7.0058,7.0232,7.0127,6.9814,7.0432,7.0698,7.0527,7.0898,7.0995,7.0901,7.1447,7.1778,7.1753,7.219,7.2549,7.2691,7.2549,7.2405,7.2292,7.2405,7.2442,7.2512,7.3697,7.4345,7.4065,7.4566,7.4621,7.4094,7.4226,7.4448,7.4506,7.4913,7.5172,7.5092,7.6144,7.6903,7.6448,7.6162,7.6038,7.645,7.6233,7.6083,7.6736,7.7078,7.7523,7.8223,7.8545,7.889,7.9408,8.011,8.0686,8.0673,8.0532,8.0285,8.0488,8.0862,8.1255,8.1359,8.2097,8.2441,8.2486,8.262,8.2787,8.2137,8.2032,8.1942,8.162,8.1337,8.1744,8.2152,8.2362,8.2634,8.3045,8.3048,8.2501,6.6521,6.707,6.6418,6.6238,6.6264,6.6172,6.6385,6.6772,6.6772,6.6925,6.7097,6.7089,6.7266,6.7579,6.766,6.766,6.7579,6.7579,6.7579,6.7552,6.7219,6.7048,6.6932,6.6632,6.6512,6.6572,6.6548,6.6548,6.6542,6.6391,6.6207,6.6057,6.6392,6.7118,6.8085,6.8654,6.9509,7.0649,7.065,7.0445,7.0097,7.0097,7.0132,7.0132,7.0375,7.0579,7.0785,7.1414,7.1665,7.1432,7.201,7.2228,7.1942,7.2321,7.2592,7.2627,7.2823,7.2879,7.2836,7.2833,7.2673,7.234,7.3489,7.3844,7.2922,7.399,7.4428,7.3591,7.4309,7.4541,7.3454,7.4265,7.4834,7.4473,7.5286,7.604,7.5914,7.6086,7.6279,7.6427,7.6314,7.6257,7.6645,7.724,7.8007,7.8902,7.9362,7.9776,8.0155,8.0845,8.1306,8.1434,8.1251,8.1297,8.1457,8.1757,8.1965,8.2115,8.2461,8.2886,8.2886,8.3031,8.3068,8.2752,8.2717,8.2612,8.2488,8.2184,8.2234,8.2654,8.2942,8.3226,8.3371,8.3809,8.3447,6.6443,6.7032,6.6456,6.6141,6.5989,6.5827,6.5911,6.6202,6.6264,6.6355,6.647,6.6566,6.6772,6.7126,6.7322,6.7414,6.7359,6.7303,6.7303,6.7247,6.6903,6.6697,6.6638,6.6361,6.6207,6.6207,6.6207,6.6207,6.6182,6.6021,6.5967,6.6157,6.6631,6.7314,6.8342,6.895,6.9693,7.0613,7.0582,7.0272,6.9885,6.9813,6.9849,6.992,7.0062,7.0308,7.073,7.1609,7.2039,7.1871,7.2406,7.254,7.2202,7.2477,7.2579,7.2493,7.2782,7.3116,7.3407,7.3199,7.2949,7.2658,7.348,7.3404,7.2596,7.3616,7.4001,7.3061,7.4233,7.44,7.301,7.3778,7.4278,7.3751,7.4844,7.5595,7.5617,7.6095,7.6322,7.6309,7.648,7.6812,7.7144,7.7856,7.8671,7.9567,8.0212,8.0741,8.0914,8.1431,8.1776,8.1776,8.1776,8.1883,8.2245,8.2188,8.2303,8.235,8.2442,8.2659,8.2705,8.2851,8.3075,8.2811,8.304,8.3094,8.2972,8.276,8.2807,8.3097,8.3436,8.3705,8.4011,8.4452,8.479,6.6514,6.6756,6.7091,6.6671,6.6037,6.5829,6.5646,6.5468,6.5668,6.5828,6.5985,6.6141,6.6264,6.6294,6.6566,6.6831,6.699,6.6838,6.6743,6.6743,6.6566,6.6452,6.63,6.6115,6.5985,6.6021,6.6021,6.5994,6.5871,6.5839,6.5999,6.6378,6.652,6.7332,6.8641,6.8995,6.9489,7.0373,7.048,7.0202,6.9706,6.9634,6.9487,6.9372,6.9668,7.0202,7.0804,7.1516,7.2117,7.2441,7.3003,7.3166,7.2816,7.2852,7.2735,7.239,7.2339,7.2768,7.3516,7.349,7.337,7.3438,7.4091,7.4096,7.3201,7.4139,7.4275,7.2926,7.406,7.4422,7.3661,7.3992,7.4468,7.4786,7.5742,7.6185,7.6067,7.602,7.5994,7.6021,7.6673,7.7509,7.8429,7.8837,7.9355,7.9999,8.045,8.0832,8.1466,8.1741,8.1776,8.1776,8.1776,8.1776,8.1858,8.2125,8.2056,8.2138,8.2395,8.228,8.2257,8.235,8.2659,8.2841,8.2931,8.3031,8.3164,8.3393,8.3591,8.3847,8.3945,8.4222,8.473,8.5009,8.5361,6.547,6.5473,6.6005,6.5759,6.5023,6.4848,6.4778,6.4843,6.537,6.5718,6.5819,6.5886,6.6022,6.6119,6.5753,6.6021,6.6632,6.6476,6.6446,6.6542,6.6294,6.6141,6.6115,6.5927,6.5899,6.5863,6.5863,6.6053,6.6355,6.6259,6.638,6.6848,6.7411,6.7941,6.8362,6.9035,6.9637,7.0061,7.0237,7.0202,6.9991,6.9598,6.9514,6.978,6.9965,7.0295,7.0798,7.2118,7.2902,7.3074,7.3367,7.3361,7.2957,7.254,7.2528,7.2766,7.2834,7.3142,7.3881,7.3929,7.3885,7.3953,7.4603,7.4582,7.3992,7.44,7.4512,7.3661,7.3615,7.3976,7.4314,7.45,7.4694,7.4814,7.5506,7.5947,7.5852,7.5852,7.5974,7.6468,7.7227,7.8085,7.889,7.9274,7.9775,8.0762,8.1077,8.131,8.1625,8.1776,8.1776,8.1776,8.181,8.1983,8.25,8.2535,8.2535,8.263,8.2691,8.2556,8.2511,8.2546,8.2777,8.2973,8.2995,8.3141,8.3356,8.3376,8.3717,8.3982,8.4152,8.4574,8.5417,8.5456,8.5914,6.5233,6.5197,6.5614,6.5333,6.46,6.442,6.4317,6.4357,6.516,6.551,6.5581,6.5862,6.611,6.6181,6.5654,6.5822,6.6542,6.624,6.5985,6.6021,6.5828,6.5668,6.5572,6.5477,6.5619,6.6034,6.6316,6.6678,6.6903,6.6805,6.6883,6.7338,6.79,6.8176,6.8271,6.8875,6.9484,7.0024,7.0202,7.0309,7.0521,7.0117,6.991,7.0162,7.0436,7.0775,7.1236,7.2521,7.3267,7.3357,7.3382,7.3135,7.2552,7.2321,7.239,7.2822,7.3129,7.3572,7.4173,7.4309,7.4309,7.4344,7.4752,7.4706,7.3923,7.4228,7.4136,7.3692,7.3747,7.4119,7.4525,7.4971,7.5106,7.4999,7.5405,7.5811,7.6048,7.6082,7.6623,7.7468,7.8044,7.8751,7.9544,7.9778,8.0248,8.1068,8.1248,8.1524,8.162,8.1763,8.1776,8.1776,8.1776,8.2293,8.2949,8.3259,8.3293,8.3342,8.3307,8.3071,8.2889,8.2904,8.2928,8.3091,8.3241,8.3389,8.3441,8.3463,8.3665,8.3932,8.4074,8.445,8.5103,8.5725,8.61,6.5929,6.6009,6.6145,6.5662,6.507,6.4784,6.4366,6.4206,6.4941,6.5324,6.5318,6.5984,6.6481,6.6555,6.616,6.6377,6.6602,6.6028,6.5561,6.5361,6.5391,6.5257,6.502,6.509,6.5578,6.6415,6.733,6.7685,6.7515,6.7376,6.748,6.7784,6.7736,6.8006,6.8632,6.8517,6.9202,7.0183,7.0211,7.0558,7.1371,7.1063,7.0585,7.0299,7.0801,7.136,7.2116,7.2582,7.2972,7.3247,7.3101,7.2552,7.1922,7.2246,7.2621,7.2655,7.3151,7.3861,7.4492,7.4674,7.4721,7.4721,7.4708,7.4505,7.3997,7.376,7.376,7.3883,7.4187,7.4593,7.4762,7.5236,7.5622,7.5676,7.5743,7.6115,7.6623,7.6927,7.7435,7.8619,7.9025,7.9397,7.9988,8.0274,8.0508,8.0724,8.1122,8.1448,8.151,8.1723,8.1832,8.1776,8.1845,8.2259,8.319,8.3983,8.4052,8.4052,8.4052,8.3894,8.3666,8.359,8.3616,8.3711,8.3995,8.4159,8.4257,8.4246,8.3965,8.4164,8.4237,8.4439,8.4988,8.565,8.6027,6.5414,6.5887,6.5403,6.5368,6.5503,6.4982,6.4603,6.4537,6.5337,6.5683,6.5783,6.6443,6.6865,6.6765,6.6349,6.6219,6.6371,6.6211,6.618,6.6356,6.6391,6.6321,6.6251,6.6215,6.6462,6.6778,6.6954,6.7375,6.7724,6.7613,6.7701,6.795,6.7973,6.7916,6.7885,6.7959,6.8582,6.9519,6.9702,7.024,7.1136,7.0809,7.0724,7.1194,7.1095,7.1276,7.2004,7.2424,7.2892,7.3258,7.2769,7.2167,7.1681,7.2079,7.2722,7.3218,7.3849,7.4593,7.5236,7.5337,7.5337,7.5337,7.5337,7.527,7.4999,7.4492,7.4492,7.4796,7.483,7.4762,7.527,7.554,7.5743,7.5709,7.6183,7.6589,7.7063,7.7841,7.8517,7.9025,7.9532,7.9938,8.0107,8.0309,8.041,8.0594,8.1099,8.1502,8.1468,8.1819,8.2067,8.1901,8.2004,8.2362,8.3397,8.4259,8.457,8.4777,8.4915,8.4742,8.4501,8.4363,8.4343,8.4468,8.4721,8.4926,8.5028,8.4914,8.467,8.4643,8.4825,8.5021,8.5251,8.5536,8.5876,6.5507,6.5887,6.5286,6.5317,6.5842,6.5214,6.5042,6.5255,6.5945,6.6251,6.6351,6.6966,6.7271,6.7128,6.676,6.6626,6.6631,6.6746,6.6938,6.7061,6.669,6.6514,6.6475,6.683,6.6971,6.7041,6.7213,6.7634,6.8159,6.8006,6.7946,6.8054,6.8004,6.7799,6.7428,6.7469,6.8042,6.9301,6.9514,7.0199,7.1313,7.1229,7.1213,7.1591,7.1319,7.1377,7.1864,7.2038,7.2262,7.2517,7.2167,7.1722,7.1424,7.2225,7.3003,7.3544,7.4424,7.5236,7.5642,7.5642,7.5676,7.5676,7.5676,7.5676,7.554,7.5033,7.4965,7.5473,7.5067,7.4897,7.554,7.6014,7.6115,7.6149,7.6555,7.713,7.7671,7.8788,7.9431,7.9634,7.9904,8.0141,8.0209,8.0209,8.0259,8.0528,8.0934,8.1272,8.1259,8.1625,8.1751,8.1943,8.2211,8.2797,8.3776,8.4466,8.5018,8.5432,8.5777,8.5535,8.5294,8.5259,8.524,8.5347,8.5602,8.5541,8.5601,8.5399,8.524,8.5322,8.5454,8.5493,8.5606,8.5419,8.5667,6.6173,6.6135,6.5718,6.5748,6.6006,6.5675,6.568,6.5972,6.6596,6.6755,6.6769,6.7353,6.761,6.7523,6.7392,6.7358,6.7482,6.7345,6.7317,6.713,6.6534,6.5955,6.5941,6.6656,6.7019,6.7122,6.7791,6.8297,6.8374,6.8254,6.8241,6.7999,6.7799,6.7557,6.7222,6.6972,6.7928,6.9472,6.9569,7.049,7.2234,7.2065,7.1796,7.162,7.1576,7.1566,7.1556,7.1501,7.1457,7.159,7.1501,7.1401,7.1582,7.2699,7.3409,7.3544,7.4864,7.5473,7.5676,7.5676,7.5676,7.5676,7.5676,7.5676,7.5608,7.5067,7.4897,7.5574,7.5033,7.4897,7.5642,7.6352,7.6792,7.7063,7.7232,7.7807,7.8991,7.9735,8.0006,8.0107,8.0175,8.0209,8.0209,8.0209,8.0209,8.0327,8.0613,8.1002,8.1133,8.1517,8.1605,8.2005,8.2597,8.3314,8.4294,8.4639,8.5225,8.5777,8.6122,8.6018,8.588,8.588,8.598,8.6123,8.6179,8.6155,8.623,8.6149,8.6038,8.6107,8.6126,8.6025,8.5863,8.5662,8.5625,6.6858,6.7232,6.6439,6.6502,6.6919,6.6394,6.612,6.6234,6.6405,6.6542,6.6599,6.7249,6.7516,6.7475,6.7475,6.7475,6.7469,6.7346,6.7263,6.7195,6.6806,6.6732,6.6854,6.7112,6.7295,6.737,6.7582,6.7759,6.7799,6.7799,6.7638,6.7469,6.7428,6.7222,6.693,6.7362,6.8183,6.9271,6.9795,7.0527,7.1572,7.1634,7.1546,7.16,7.1457,7.1367,7.1367,7.1356,7.1312,7.1401,7.1356,7.1312,7.1447,7.2665,7.3477,7.3713,7.483,7.5676,7.5676,7.5676,7.5676,7.5676,7.5676,7.5676,7.5676,7.5033,7.5033,7.5405,7.5067,7.4931,7.5676,7.6487,7.7299,7.8348,7.845,7.8822,7.9634,8.0073,8.0209,8.0209,8.0209,8.0209,8.0209,8.0209,8.0209,8.0378,8.1021,8.1733,8.1613,8.2273,8.2778,8.3041,8.3547,8.4092,8.4673,8.4949,8.5397,8.6018,8.626,8.6225,8.6156,8.6156,8.634,8.6503,8.6463,8.6415,8.6856,8.7106,8.7011,8.6803,8.6886,8.6772,8.619,8.5847,8.5948,6.7301,6.7604,6.6957,6.6984,6.7441,6.6875,6.6745,6.6826,6.6826,6.6745,6.6807,6.7148,6.7304,6.7222,6.7188,6.7188,6.7188,6.7097,6.7056,6.7014,6.6862,6.6946,6.7146,6.7188,6.7188,6.7188,6.7188,6.7304,6.7387,6.7387,6.7304,6.7222,6.718,6.7056,6.6846,6.7557,6.8335,6.9079,6.9823,7.0622,7.1389,7.1356,7.1356,7.1457,7.1323,7.1312,7.1345,7.1582,7.165,7.1413,7.1312,7.1312,7.1447,7.2699,7.3443,7.3544,7.4864,7.5676,7.5676,7.5676,7.5676,7.5676,7.5676,7.5676,7.5642,7.527,7.5337,7.554,7.527,7.5506,7.6217,7.7164,7.828,7.9295,7.9566,7.9735,8.0175,8.0175,8.0209,8.0209,8.0209,8.0209,8.0209,8.0209,8.0344,8.0682,8.1257,8.1732,8.2038,8.3109,8.3807,8.3837,8.4086,8.4613,8.5072,8.5397,8.5604,8.6191,8.6294,8.6294,8.6294,8.6294,8.6394,8.6543,8.6642,8.6789,8.7082,8.7322,8.7363,8.7292,8.7498,8.7336,8.6753,8.6382,8.6453,6.7366,6.7469,6.7263,6.7263,6.7387,6.7263,6.7154,6.7394,6.7284,6.7202,6.7146,6.7139,6.7056,6.6812,6.6896,6.6812,6.6812,6.6812,6.6728,6.6728,6.6686,6.6728,6.6728,6.6854,6.6854,6.6854,6.6812,6.6972,6.7097,6.7139,6.7241,6.7343,6.7343,6.7251,6.7379,6.7843,6.8494,6.9194,6.9893,7.0535,7.1131,7.1222,7.1222,7.1222,7.1233,7.1368,7.1571,7.1909,7.2078,7.1616,7.1548,7.1684,7.1819,7.2935,7.3544,7.3883,7.485,7.5662,7.5662,7.5662,7.558,7.558,7.5628,7.5662,7.558,7.5512,7.556,7.558,7.5777,7.6284,7.7198,7.8348,7.9194,7.9904,8.0141,8.0175,8.0209,8.0209,8.0209,8.0209,8.0209,8.0209,8.0209,8.0242,8.0412,8.0615,8.1291,8.1952,8.2495,8.338,8.3824,8.3926,8.4351,8.4995,8.542,8.5796,8.6018,8.6294,8.6294,8.6294,8.6294,8.6294,8.6294,8.6344,8.6494,8.6593,8.6789,8.7047,8.7288,8.7585,8.7666,8.7649,8.7523,8.7187,8.7165,6.6678,6.7222,6.698,6.6896,6.6938,6.6896,6.6896,6.6938,6.698,6.6938,6.6896,6.6854,6.6854,6.677,6.677,6.6812,6.6728,6.6601,6.643,6.6225,6.6225,6.6268,6.6354,6.6601,6.677,6.677,6.677,6.6812,6.6888,6.6956,6.7193,6.7633,6.7734,6.792,6.8277,6.8816,6.9423,6.9715,7.0152,7.0556,7.0894,7.0961,7.0961,7.1007,7.1007,7.1435,7.1965,7.211,7.238,7.2822,7.3003,7.3003,7.3071,7.3781,7.4255,7.4411,7.4911,7.5518,7.5614,7.5422,7.5262,7.5388,7.547,7.5325,7.5213,7.5518,7.5566,7.5619,7.614,7.7048,7.8314,7.8855,7.9464,8.0006,8.0209,8.0209,8.0209,8.0209,8.0209,8.0209,8.0209,8.0209,8.0209,8.0209,8.0378,8.0615,8.1291,8.2103,8.2884,8.3666,8.401,8.4233,8.4746,8.5325,8.5529,8.5887,8.6106,8.6294,8.6294,8.6294,8.6294,8.6294,8.6294,8.6294,8.6294,8.6444,8.6593,8.6789,8.6999,8.7383,8.7761,8.7818,8.7801,8.7718,8.7621,6.6607,6.698,6.6854,6.6812,6.6812,6.6812,6.6812,6.677,6.672,6.6643,6.6677,6.6643,6.6601,6.6482,6.6601,6.6601,6.644,6.6388,6.6259,6.6139,6.6095,6.6095,6.6139,6.6311,6.6473,6.6473,6.644,6.644,6.6583,6.6972,6.7343,6.7627,6.8017,6.8267,6.8595,6.9256,6.9524,6.9692,7.0205,7.0561,7.0733,7.0733,7.0825,7.0916,7.1041,7.1514,7.2247,7.2674,7.3181,7.3836,7.4289,7.4153,7.3713,7.4187,7.4512,7.4506,7.5127,7.5436,7.547,7.5422,7.5373,7.547,7.5518,7.5373,7.5262,7.5373,7.5373,7.5445,7.6148,7.7322,7.8873,7.9532,7.9837,8.004,8.0209,8.0209,8.0209,8.0209,8.0209,8.0209,8.0209,8.0209,8.0209,8.0209,8.0818,8.1257,8.1629,8.2441,8.3592,8.4272,8.4532,8.4844,8.5309,8.5618,8.5669,8.5856,8.6075,8.6194,8.6294,8.6294,8.6294,8.6294,8.6294,8.6294,8.6294,8.6344,8.6444,8.6593,8.6789,8.7178,8.7513,8.7796,8.797,8.7962,8.7824,6.6711,6.6812,6.6812,6.6812,6.6812,6.6812,6.6812,6.677,6.6592,6.6507,6.6507,6.6464,6.6345,6.6182,6.6345,6.6302,6.6129,6.6095,6.6095,6.5922,6.6009,6.6099,6.6199,6.6266,6.6366,6.631,6.6196,6.6206,6.6637,6.7117,6.7675,6.7768,6.8438,6.8898,6.8841,6.9164,6.9632,6.9766,7.0109,7.0376,7.0469,7.0549,7.0721,7.1231,7.1356,7.1965,7.2788,7.3363,7.3971,7.4681,7.5324,7.4918,7.4343,7.4356,7.4668,7.4512,7.5214,7.545,7.547,7.547,7.5518,7.5614,7.5566,7.5422,7.5179,7.5164,7.5265,7.5619,7.6355,7.7646,7.9026,7.9735,8.0073,8.0209,8.0209,8.0209,8.0209,8.0209,8.0209,8.0209,8.0209,8.0209,8.0209,8.0242,8.1122,8.19,8.2238,8.2813,8.393,8.4606,8.48,8.4958,8.5221,8.5532,8.5583,8.5635,8.589,8.6093,8.6194,8.6244,8.6244,8.6294,8.6294,8.6294,8.6294,8.6294,8.6344,8.6444,8.6691,8.6985,8.7226,8.7513,8.7796,8.8121,8.7987,6.6237,6.6812,6.6812,6.6812,6.6812,6.6812,6.677,6.677,6.655,6.6507,6.6464,6.6259,6.6139,6.6095,6.6139,6.6042,6.5911,6.5922,6.5878,6.5692,6.5802,6.6079,6.6379,6.65,6.6754,6.6977,6.6701,6.6564,6.7107,6.7584,6.8192,6.9077,6.9491,6.9614,6.9682,6.999,6.9923,6.989,6.9982,7.0049,7.0223,7.051,7.1023,7.1782,7.1883,7.2603,7.3709,7.4134,7.4478,7.5152,7.5546,7.5397,7.5065,7.5228,7.5344,7.533,7.5335,7.547,7.547,7.5277,7.5164,7.5115,7.5131,7.4919,7.4705,7.4838,7.5171,7.5974,7.7145,7.8623,7.955,7.9955,8.0175,8.0209,8.0209,8.0209,8.0209,8.0209,8.0209,8.0209,8.0209,8.0209,8.0209,8.0344,8.0953,8.1697,8.2205,8.2847,8.3828,8.4403,8.4606,8.48,8.4958,8.5221,8.5514,8.548,8.5635,8.584,8.5992,8.6144,8.6144,8.6244,8.6294,8.6294,8.6294,8.6294,8.6344,8.6394,8.6543,8.6789,8.7033,8.7275,8.7608,8.7936,8.8121,6.6474,6.677,6.672,6.6635,6.6635,6.6516,6.644,6.6397,6.6215,6.6129,6.6086,6.5999,6.5834,6.579,6.5911,6.5824,6.5692,6.5692,6.5603,6.5503,6.5913,6.6256,6.6651,6.6916,6.7247,6.7426,6.711,6.709,6.758,6.8149,6.8696,6.914,6.9687,7.0029,6.9982,6.9921,6.9988,6.9941,6.9893,6.9846,7.0087,7.0523,7.1306,7.1714,7.2277,7.303,7.3816,7.4119,7.4392,7.4963,7.5277,7.5262,7.5262,7.5262,7.5359,7.5325,7.5422,7.5325,7.5228,7.5067,7.5131,7.5018,7.5002,7.5055,7.4906,7.5022,7.5356,7.6273,7.7258,7.8739,7.9616,7.987,8.0057,8.0209,8.0209,8.0209,8.0209,8.0209,8.0242,8.0242,8.0276,8.0276,8.0209,8.0445,8.0851,8.1426,8.2103,8.2949,8.3828,8.4234,8.4606,8.466,8.48,8.5011,8.5221,8.5273,8.5377,8.5583,8.584,8.5941,8.6093,8.6194,8.6244,8.6294,8.6294,8.6294,8.6294,8.6344,8.6494,8.6642,8.6887,8.7178,8.7501,8.7737,8.7936,6.6728,6.6728,6.6473,6.6421,6.6421,6.6182,6.6095,6.6052,6.5911,6.5824,6.578,6.5769,6.5603,6.5514,6.5559,6.5603,6.5425,6.547,6.5581,6.5823,6.6277,6.6597,6.7115,6.7479,6.7976,6.8274,6.8188,6.7976,6.814,6.8644,6.8951,6.935,6.9929,7.0035,6.9893,6.9846,6.9798,6.9798,6.9798,6.9831,7.0306,7.1013,7.1656,7.1789,7.2548,7.3328,7.4113,7.4213,7.4399,7.4801,7.4968,7.4968,7.4919,7.4968,7.4968,7.5018,7.5325,7.5131,7.5018,7.5018,7.5115,7.4903,7.5087,7.5289,7.5505,7.5537,7.577,7.6786,7.7722,7.8511,7.9392,7.9717,8.0005,8.0259,8.0293,8.0242,8.0378,8.0412,8.0412,8.0412,8.0378,8.0378,8.0344,8.0378,8.075,8.1663,8.234,8.3152,8.3964,8.4336,8.4606,8.4606,8.4694,8.4853,8.4958,8.5011,8.5116,8.5325,8.5583,8.5788,8.5992,8.6144,8.6194,8.6294,8.6294,8.6294,8.6294,8.6294,8.6394,8.6543,8.6838,8.7117,8.7309,8.7548,8.7784,6.655,6.6507,6.6259,6.6139,6.6139,6.6095,6.6095,6.6052,6.5867,6.578,6.5736,6.5559,6.547,6.5425,6.5459,6.5425,6.5503,6.5791,6.609,6.6431,6.6787,6.7451,6.8255,6.8473,6.8871,6.9169,6.9334,6.9277,6.9005,6.9064,6.9443,6.9863,6.9949,7.0035,6.9846,6.9798,6.9798,6.9798,6.9864,7.0258,7.108,7.186,7.2556,7.3135,7.3566,7.39,7.4502,7.4569,7.4687,7.4605,7.487,7.487,7.4722,7.487,7.4821,7.4771,7.487,7.5067,7.4919,7.4968,7.4919,7.4805,7.5156,7.5437,7.5734,7.6494,7.7025,7.7238,7.8126,7.8702,7.9113,7.9492,8.0087,8.0376,8.0496,8.0733,8.0919,8.0682,8.0682,8.1021,8.1156,8.0818,8.0581,8.0581,8.0682,8.1663,8.2611,8.3422,8.4065,8.4437,8.4606,8.4606,8.4606,8.4747,8.48,8.48,8.4906,8.5116,8.5377,8.5583,8.5788,8.5992,8.6194,8.6278,8.6294,8.6294,8.6294,8.6294,8.6294,8.6444,8.6691,8.6887,8.7082,8.7357,8.7643,6.6042,6.6259,6.6042,6.5955,6.5911,6.578,6.5702,6.5658,6.5603,6.5559,6.5559,6.547,6.5425,6.5558,6.579,6.6055,6.6121,6.651,6.6908,6.7214,6.7637,6.8214,6.8652,6.9103,6.9599,6.9666,6.9765,6.9647,6.9509,6.9523,6.9755,6.9921,6.9988,6.9941,6.9798,6.9798,7.0063,7.0428,7.0825,7.1238,7.1799,7.2413,7.2977,7.3424,7.379,7.4206,7.4439,7.4573,7.4523,7.4372,7.4523,7.4523,7.4423,7.4473,7.4473,7.4423,7.4473,7.4523,7.4523,7.4672,7.4656,7.4672,7.507,7.5584,7.5993,7.7086,7.7782,7.745,7.8186,7.8657,7.8983,7.9547,8.0163,8.0539,8.0746,8.1272,8.151,8.1122,8.1088,8.1528,8.1934,8.1663,8.1494,8.1629,8.1799,8.2408,8.305,8.3592,8.4133,8.4505,8.4606,8.4606,8.4606,8.4606,8.466,8.4694,8.4694,8.4853,8.5116,8.5377,8.5635,8.584,8.6093,8.6244,8.6294,8.6294,8.6294,8.6294,8.6294,8.6394,8.6494,8.674,8.6985,8.7275,8.7608,6.5559,6.5834,6.5736,6.5647,6.5636,6.547,6.5381,6.5336,6.5613,6.569,6.5712,6.5922,6.6022,6.6055,6.6552,6.6738,6.6804,6.7334,6.7711,6.8042,6.8407,6.8738,6.9103,6.9566,6.9765,6.9798,6.9798,6.9732,6.9765,6.9765,6.9779,6.9798,6.9846,6.9798,6.9798,6.9864,7.0096,7.0825,7.1753,7.2183,7.2415,7.3011,7.331,7.3592,7.384,7.4221,7.4221,7.4221,7.4221,7.4221,7.4221,7.4272,7.4221,7.4272,7.4272,7.4221,7.4272,7.4272,7.4322,7.4372,7.4472,7.4769,7.5363,7.6343,7.6954,7.798,7.8378,7.7815,7.8146,7.8584,7.891,7.9515,8.0248,8.0747,8.1111,8.1791,8.2218,8.1848,8.1832,8.2374,8.2746,8.2915,8.2813,8.2949,8.3118,8.3355,8.3659,8.3896,8.4234,8.4573,8.4606,8.4606,8.4606,8.4606,8.4606,8.4606,8.4606,8.4694,8.4906,8.5168,8.548,8.5788,8.6043,8.6144,8.6294,8.6294,8.6294,8.6294,8.6294,8.6344,8.6444,8.6642,8.6971,8.7226,8.7421,6.5144,6.5189,6.5336,6.5369,6.5222,6.5336,6.5324,6.5375,6.6085,6.6374,6.6519,6.7003,6.7235,6.7413,6.7413,6.7499,6.7499,6.7566,6.8109,6.8506,6.8705,6.9103,6.9467,6.9699,6.9798,6.9798,6.9798,6.9798,6.9798,6.9798,6.9798,6.9798,6.9798,6.9798,6.9898,7.0063,7.0428,7.1256,7.2316,7.3011,7.321,7.3608,7.3972,7.4005,7.4155,7.4221,7.4221,7.4221,7.4221,7.4221,7.4221,7.4221,7.4221,7.4221,7.4221,7.4221,7.4221,7.4221,7.4221,7.4255,7.4619,7.5382,7.6291,7.7252,7.7914,7.8246,7.8444,7.8345,7.8444,7.8477,7.8816,7.9388,8.0368,8.0916,8.1504,8.2306,8.2686,8.254,8.2678,8.3219,8.3524,8.3625,8.3761,8.3795,8.3693,8.3862,8.3862,8.4099,8.4336,8.4606,8.4606,8.4606,8.4606,8.4606,8.4606,8.4606,8.4606,8.464,8.48,8.5116,8.5428,8.5686,8.589,8.6144,8.6294,8.6294,8.6294,8.6294,8.6294,8.6294,8.6394,8.6627,8.6922,8.7261,8.7198,6.4872,6.5311,6.5542,6.5679,6.5712,6.5634,6.5943,6.6417,6.6806,6.703,6.7202,6.7295,6.7427,6.7698,6.8142,6.8274,6.8341,6.8804,6.9069,6.9268,6.9434,6.9566,6.9765,6.9798,6.9798,6.9798,6.9798,6.9798,6.9798,6.9751,6.9798,6.9798,6.9751,6.9798,6.9931,7.0593,7.1223,7.1819,7.2912,7.374,7.3807,7.3939,7.4221,7.4221,7.4221,7.4221,7.4221,7.4221,7.4221,7.4221,7.4221,7.4221,7.4221,7.4221,7.4221,7.4221,7.4221,7.4255,7.4288,7.4354,7.4701,7.586,7.6854,7.7715,7.8444,7.8511,7.8511,7.8511,7.8544,7.8556,7.8643,7.9646,8.0684,8.1221,8.1926,8.2765,8.3066,8.2975,8.3302,8.3828,8.4099,8.4268,8.4403,8.4505,8.437,8.4302,8.4268,8.4268,8.4471,8.4606,8.4606,8.4606,8.4606,8.4606,8.4606,8.4606,8.4606,8.4694,8.4747,8.5063,8.5377,8.5514,8.572,8.6077,8.6294,8.6294,8.6294,8.6294,8.6294,8.6294,8.6344,8.6528,8.6873,8.7213,8.7151,6.4952,6.5408,6.5825,6.6111,6.6204,6.6111,6.642,6.6973,6.7283,6.7702,6.8101,6.7947,6.8041,6.836,6.8738,6.9003,6.9136,6.9434,6.9666,6.9732,6.9732,6.9798,6.9798,6.9703,6.9655,6.9655,6.9607,6.9559,6.9478,6.9559,6.9511,6.9478,6.9574,6.9607,7.0129,7.1189,7.2084,7.2614,7.3409,7.4188,7.4138,7.4221,7.4221,7.4221,7.4221,7.4221,7.4221,7.4221,7.4221,7.4221,7.4221,7.4221,7.4221,7.4221,7.4221,7.4221,7.4221,7.4321,7.452,7.4833,7.5363,7.6556,7.7351,7.8014,7.8378,7.8511,7.8511,7.8577,7.8676,7.8788,7.8941,8.0155,8.0807,8.1237,8.2288,8.3151,8.3288,8.3389,8.3906,8.435,8.4485,8.4573,8.4573,8.4606,8.4573,8.4471,8.4437,8.4437,8.4505,8.4606,8.4606,8.4606,8.4606,8.4606,8.4606,8.4606,8.4606,8.4606,8.4747,8.5011,8.5221,8.5411,8.572,8.6128,8.6294,8.6294,8.6294,8.6294,8.6294,8.6294,8.6344,8.6478,8.674,8.7047,8.7126,6.5408,6.5505,6.619,6.6483,6.6563,6.6689,6.6754,6.692,6.7554,6.8352,6.9085,6.9103,6.9247,6.9471,6.9471,6.9471,6.9552,6.9684,6.9703,6.9655,6.9703,6.9751,6.9655,6.9511,6.943,6.9334,6.9237,6.914,6.9091,6.914,6.914,6.9288,6.9517,6.9597,6.9949,7.1256,7.2316,7.3078,7.3807,7.4122,7.4221,7.4221,7.4221,7.4221,7.4221,7.4221,7.4221,7.4221,7.4221,7.4221,7.4221,7.4221,7.4221,7.4221,7.4221,7.4221,7.4288,7.4652,7.5231,7.5894,7.6523,7.7152,7.7815,7.8345,7.8477,7.8511,7.8643,7.8776,7.9053,7.9417,8.0034,8.073,8.105,8.1337,8.2411,8.3153,8.3293,8.3719,8.4204,8.4519,8.4553,8.4606,8.4606,8.4606,8.4606,8.4606,8.4606,8.4606,8.4606,8.4606,8.4606,8.4606,8.4606,8.4606,8.4606,8.4606,8.4606,8.4606,8.4713,8.4958,8.5221,8.5463,8.5772,8.6194,8.6294,8.6294,8.6294,8.6294,8.6294,8.6294,8.6294,8.6394,8.6691,8.6901,8.7065,6.5707,6.6631,6.6858,6.7215,6.754,6.7199,6.7362,6.7883,6.8242,6.8667,6.901,6.8945,6.8994,6.9188,6.9285,6.9382,6.9478,6.9285,6.9237,6.9285,6.9463,6.9091,6.9026,6.932,6.9238,6.9026,6.8928,6.8994,6.8994,6.901,6.937,6.9649,6.9943,7.0371,7.06,7.1407,7.2382,7.3111,7.374,7.4221,7.4221,7.4171,7.4171,7.4171,7.4171,7.4221,7.4221,7.4221,7.4221,7.4221,7.4221,7.4221,7.4221,7.4221,7.4221,7.4354,7.4586,7.5496,7.6324,7.6987,7.7119,7.7583,7.8047,7.8511,7.8511,7.8511,7.8776,7.9173,7.9571,7.9935,8.0432,8.1161,8.1514,8.1249,8.1935,8.271,8.3172,8.3779,8.4285,8.45,8.4606,8.4606,8.4606,8.4606,8.4606,8.4606,8.4606,8.4606,8.4606,8.4606,8.4606,8.4606,8.4606,8.4606,8.4606,8.4606,8.4606,8.4606,8.4694,8.4906,8.5168,8.5463,8.5823,8.6194,8.6244,8.6294,8.6294,8.6294,8.6294,8.6294,8.6294,8.6344,8.6593,8.6887,8.7144,6.5898,6.6667,6.7275,6.768,6.7852,6.7415,6.7662,6.8119,6.8201,6.8451,6.8748,6.8699,6.8748,6.8945,6.8994,6.9042,6.9237,6.8994,6.9091,6.9157,6.9517,6.9387,6.9304,6.9385,6.9612,6.9166,6.8964,6.9029,6.9177,6.908,6.9256,6.9844,7.0503,7.0587,7.0924,7.1685,7.2713,7.3425,7.4038,7.412,7.412,7.412,7.412,7.412,7.412,7.4221,7.4221,7.4221,7.4221,7.4221,7.4221,7.4221,7.4221,7.4221,7.4221,7.442,7.5165,7.6125,7.702,7.7715,7.7782,7.7914,7.8312,7.8477,7.861,7.8809,7.914,7.9537,8.0001,8.0531,8.1061,8.179,8.179,8.1614,8.1868,8.2677,8.2853,8.3427,8.4048,8.4285,8.4446,8.45,8.45,8.4606,8.4606,8.4606,8.4606,8.4553,8.4553,8.4553,8.4606,8.4606,8.4606,8.4606,8.4606,8.4606,8.4606,8.4606,8.4747,8.4853,8.5168,8.5514,8.5874,8.6144,8.6244,8.6294,8.6294,8.6294,8.6294,8.6294,8.6294,8.6394,8.6543,8.6789,8.713,6.5975,6.5845,6.7406,6.7816,6.7439,6.7324,6.7388,6.7471,6.7491,6.7949,6.855,6.855,6.86,6.8847,6.8928,6.8928,6.8927,6.8728,6.8893,6.9321,6.9679,6.966,6.982,7.0095,6.9853,6.9592,6.9329,6.8988,6.9351,6.934,6.9404,6.967,7.0191,7.0712,7.1422,7.2116,7.2988,7.362,7.397,7.4052,7.3917,7.4019,7.3968,7.3968,7.4019,7.4171,7.4221,7.4221,7.4221,7.4221,7.4221,7.4221,7.4221,7.4221,7.4221,7.4635,7.5695,7.6655,7.7484,7.8146,7.8312,7.8312,7.8444,7.8511,7.8676,7.9074,7.9504,8.0001,8.0531,8.1227,8.1834,8.2032,8.2175,8.2175,8.2274,8.2465,8.2389,8.2898,8.3552,8.396,8.4123,8.4231,8.4177,8.4231,8.4177,8.4123,8.4123,8.4339,8.4339,8.4553,8.4553,8.4606,8.4606,8.4606,8.4606,8.4606,8.4606,8.4606,8.4606,8.48,8.5168,8.5514,8.5737,8.5992,8.6194,8.6294,8.6294,8.6294,8.6294,8.6294,8.6294,8.6294,8.6444,8.674,8.7033,6.59,6.6354,6.6858,6.7181,6.7368,6.7005,6.7057,6.742,6.7797,6.8151,6.8301,6.8301,6.8216,6.7931,6.8312,6.8422,6.8472,6.8467,6.867,6.9061,6.9614,6.9326,6.9381,6.9679,6.9585,6.9243,6.892,6.8907,6.9069,6.9269,6.9912,7.03,7.0403,7.1166,7.1831,7.2384,7.2966,7.3459,7.3815,7.3848,7.3797,7.3866,7.3848,7.3815,7.4019,7.4171,7.4221,7.4221,7.4221,7.4221,7.4221,7.4221,7.4221,7.4255,7.4403,7.5695,7.6622,7.7417,7.808,7.8411,7.8511,7.8457,7.8457,7.8511,7.8689,7.9185,7.9814,8.0256,8.0851,8.1457,8.1807,8.2015,8.1991,8.1934,8.2066,8.218,8.2142,8.2442,8.3121,8.341,8.3631,8.3598,8.3598,8.3487,8.3432,8.3487,8.3686,8.3905,8.4177,8.4392,8.4553,8.4606,8.4606,8.4606,8.4606,8.4606,8.4606,8.4606,8.4606,8.4747,8.5116,8.5463,8.5635,8.589,8.6194,8.6294,8.6294,8.6294,8.6294,8.6294,8.6294,8.6294,8.6344,8.6642,8.6971,6.57,6.6,6.6459,6.6638,6.6659,6.6638,6.6691,6.6817,6.7046,6.7336,6.7574,6.7831,6.7804,6.7703,6.8192,6.8436,6.8308,6.84,6.8536,6.8999,6.9466,6.9314,6.9301,6.9545,6.9744,6.9296,6.9018,6.9064,6.9161,6.9493,7.0062,7.0181,7.0543,7.1218,7.1711,7.1972,7.2411,7.2972,7.3403,7.3591,7.3642,7.3661,7.3694,7.3609,7.3917,7.4171,7.4171,7.4171,7.4221,7.4221,7.4221,7.4221,7.4321,7.4487,7.4999,7.6159,7.692,7.7682,7.8279,7.8477,7.8511,7.8457,7.8403,7.8494,7.8923,7.9485,7.9837,8.0277,8.0903,8.144,8.1688,8.1894,8.1648,8.1402,8.1689,8.1886,8.2059,8.2173,8.2467,8.2761,8.2873,8.2873,8.2873,8.2761,8.2873,8.3098,8.3377,8.3708,8.4069,8.4339,8.45,8.4606,8.4606,8.4606,8.4606,8.4606,8.4694,8.4694,8.4606,8.48,8.5116,8.5411,8.5635,8.5941,8.6194,8.6244,8.6294,8.6294,8.6294,8.6294,8.6294,8.6294,8.6344,8.6593,8.6838,6.5351,6.4998,6.6085,6.6161,6.5754,6.6214,6.6161,6.5677,6.5848,6.6117,6.6839,6.7366,6.7619,6.7733,6.8278,6.8485,6.8414,6.8381,6.8593,6.9047,6.9462,6.9493,6.9657,7.0147,6.9916,6.9719,6.9521,6.921,6.9605,6.9776,6.9802,6.9787,6.9959,7.0526,7.1195,7.1634,7.2176,7.2847,7.3247,7.3454,7.3266,7.3403,7.3558,7.3266,7.3679,7.4171,7.4171,7.4171,7.4221,7.4221,7.4221,7.4221,7.4586,7.4999,7.5728,7.6405,7.7199,7.7795,7.8291,7.8457,7.8457,7.8403,7.8329,7.8496,7.8936,7.9276,7.9616,8.025,8.0818,8.1287,8.1566,8.145,8.1262,8.1309,8.1479,8.1577,8.1636,8.1752,8.1959,8.2165,8.2165,8.2223,8.2223,8.2108,8.2075,8.2534,8.3098,8.3432,8.3817,8.4177,8.4446,8.4606,8.4606,8.4606,8.4606,8.4606,8.4747,8.4747,8.4747,8.4747,8.5011,8.5325,8.5686,8.5941,8.6144,8.6244,8.6294,8.6294,8.6294,8.6294,8.6294,8.6294,8.6394,8.6543,8.6691,6.4998,6.4943,6.5623,6.5592,6.5218,6.5677,6.5623,6.5139,6.5664,6.6371,6.7247,6.7512,6.7643,6.7793,6.8364,6.8539,6.8293,6.8541,6.8767,6.908,6.9412,6.9495,6.9537,6.9776,6.9729,6.953,6.9298,6.9182,6.9414,6.9472,6.9588,6.9818,6.9933,7.0331,7.114,7.1634,7.2068,7.2847,7.2952,7.3214,7.3214,7.3266,7.3318,7.337,7.3782,7.3968,7.4019,7.407,7.412,7.4221,7.4221,7.452,7.4999,7.5695,7.6286,7.6855,7.7589,7.7998,7.8143,7.8296,7.8457,7.8403,7.8341,7.8431,7.8683,7.8956,7.9369,8.0099,8.0697,8.1073,8.1251,8.1095,8.1004,8.1154,8.1322,8.1263,8.1263,8.1381,8.144,8.1499,8.1558,8.1525,8.1525,8.1525,8.1408,8.1876,8.2534,8.3042,8.3487,8.3872,8.4446,8.4606,8.4606,8.4606,8.4606,8.464,8.4747,8.4853,8.4853,8.4853,8.4906,8.5325,8.5737,8.589,8.6093,8.6194,8.6294,8.6294,8.6294,8.6294,8.6294,8.6294,8.6294,8.6394,8.6543,6.4888,6.4943,6.5187,6.5187,6.4998,6.5187,6.5132,6.5066,6.5596,6.6394,6.726,6.7565,6.7741,6.7926,6.8458,6.8679,6.8397,6.8674,6.8852,6.9062,6.9182,6.9267,6.9298,6.9356,6.9298,6.9123,6.9006,6.9006,6.9182,6.9182,6.9298,6.9472,6.9703,7.0218,7.1084,7.147,7.196,7.2847,7.2741,7.2847,7.3057,7.311,7.3057,7.3162,7.337,7.3628,7.3679,7.3764,7.3866,7.4184,7.4451,7.4767,7.5378,7.6068,7.6551,7.6885,7.7411,7.7938,7.7916,7.8025,7.8296,7.8242,7.8242,7.83,7.9041,7.9257,7.917,7.9863,8.0626,8.1062,8.1127,8.1003,8.1003,8.1079,8.1144,8.1144,8.1144,8.1144,8.1204,8.1204,8.1204,8.1204,8.1263,8.1263,8.129,8.1785,8.2419,8.3042,8.3432,8.3817,8.4285,8.4606,8.4606,8.4606,8.4606,8.464,8.4694,8.48,8.4958,8.5063,8.5168,8.548,8.5737,8.5941,8.6093,8.6244,8.6294,8.6294,8.6294,8.6294,8.6294,8.6294,8.6294,8.6294,8.6394,6.4888,6.4888,6.4888,6.4888,6.4888,6.4888,6.498,6.5165,6.575,6.6427,6.7187,6.7835,6.7997,6.8274,6.8581,6.8766,6.8889,6.8858,6.8889,6.8889,6.8948,6.9006,6.9006,6.8948,6.8948,6.9006,6.8948,6.8889,6.8948,6.8948,6.8948,6.8948,6.9151,6.9557,7.0388,7.0949,7.147,7.2122,7.2315,7.2422,7.2582,7.2794,7.2794,7.2847,7.3005,7.3233,7.3233,7.337,7.3473,7.4027,7.468,7.5242,7.5719,7.6333,7.658,7.6943,7.7227,7.7467,7.7422,7.7719,7.7971,7.8079,7.8079,7.8442,7.9126,7.9423,7.9332,7.9873,8.0631,8.0863,8.0928,8.0993,8.1025,8.1025,8.1025,8.1025,8.1025,8.1025,8.1025,8.1025,8.1025,8.1025,8.1025,8.1025,8.1408,8.1901,8.2477,8.3042,8.3598,8.3981,8.4446,8.4606,8.4606,8.4606,8.4606,8.464,8.4694,8.48,8.4958,8.5202,8.5411,8.5566,8.5686,8.589,8.6043,8.6194,8.6244,8.6294,8.6294,8.6294,8.6294,8.6294,8.6294,8.6294,8.6294,6.4888,6.4888,6.4888,6.4888,6.4888,6.4918,6.5195,6.578,6.637,6.7104,6.7662,6.8335,6.8705,6.8705,6.8797,6.8889,6.8889,6.8889,6.8889,6.8889,6.8889,6.8889,6.8889,6.8889,6.8889,6.8889,6.8889,6.8889,6.8889,6.8889,6.8889,6.8889,6.9383,6.9901,7.0582,7.1029,7.136,7.1798,7.1743,7.1689,7.1666,7.2046,7.2794,7.2952,7.311,7.311,7.311,7.3214,7.3506,7.3994,7.4742,7.5477,7.6009,7.6419,7.6627,7.6821,7.7157,7.7134,7.7255,7.7499,7.7719,7.7916,7.8026,7.8441,7.9046,7.9553,7.9722,8.0339,8.0863,8.0734,8.0799,8.0961,8.1025,8.1025,8.1025,8.1144,8.1263,8.1144,8.1085,8.1085,8.1085,8.1085,8.1025,8.123,8.1668,8.2248,8.293,8.3487,8.3817,8.4231,8.4553,8.4553,8.4553,8.4606,8.4606,8.4606,8.4694,8.48,8.4958,8.5168,8.5411,8.5514,8.5635,8.5788,8.5941,8.6093,8.6144,8.6244,8.6294,8.6294,8.6294,8.6294,8.6294,8.6294,8.6294]}]]